GEFSSE_500_meanwind_000.txt.gz
Wind_Speed
4 6 7 6 5 4 5 6 6 6 7 7 8 8 8 8 8 8 8 10 11 11 10 9 9 9 8 7 4 2 2 3 5 6 6 5 4 4 6 7 8 7 9
2 2 4 4 2 1 1 2 3 4 5 5 5 5 6 6 6 6 6 6 7 8 9 8 8 7 7 6 5 4 2 1 2 3 3 4 3 3 3 5 5 4 5
1 0 1 2 1 0 1 3 3 5 6 6 5 4 3 4 5 5 4 3 3 5 7 7 6 6 5 5 4 4 3 2 1 0 1 1 2 2 2 3 4 4 3
3 3 1 1 1 3 4 6 6 7 7 7 6 5 4 4 5 6 5 4 3 4 6 8 7 6 4 2 2 3 3 3 2 0 1 1 2 2 2 2 2 3 5
3 4 3 4 5 6 7 8 9 8 6 5 5 6 5 5 5 5 6 5 3 4 6 9 9 9 6 4 2 2 1 2 2 1 1 3 4 4 4 3 3 2 4
3 3 4 5 6 6 6 7 8 7 5 4 4 6 7 6 6 6 6 6 6 7 11 12 10 11 10 8 6 6 4 3 2 2 1 2 3 5 7 6 5 4 4
3 3 3 3 4 5 6 7 7 7 6 6 6 6 7 7 7 7 8 11 12 13 13 11 9 9 8 8 9 9 8 7 7 6 4 2 2 5 8 9 10 8 6
3 3 3 3 4 5 6 7 8 8 8 8 8 8 8 8 10 11 14 16 15 15 13 12 12 10 7 7 9 11 12 12 11 10 9 7 6 4 5 8 11 12 11
4 4 5 6 8 9 10 10 10 11 11 11 11 11 12 14 16 16 16 18 18 18 17 16 15 14 12 10 11 13 14 15 15 15 14 13 11 9 7 7 10 13 14
10 11 11 12 13 14 15 16 16 17 17 17 17 17 18 19 20 20 21 21 20 20 19 19 19 19 18 16 14 14 14 15 16 17 18 19 17 15 13 10 10 11 14
18 19 21 22 23 24 24 24 24 22 23 23 22 22 24 25 25 25 25 26 26 26 25 24 25 24 23 22 20 18 17 17 19 18 20 21 21 20 19 16 13 12 12
24 23 24 26 28 29 30 31 31 30 30 30 30 30 30 31 31 31 30 31 31 32 32 31 31 30 29 28 27 25 24 23 24 24 23 23 24 23 22 21 18 16 15
28 28 28 30 32 33 33 33 34 35 36 36 36 36 35 36 35 35 35 36 37 38 38 37 36 36 35 36 35 33 32 29 29 29 29 27 27 26 24 23 22 21 19
31 32 32 35 36 37 37 37 37 37 38 39 39 39 40 41 41 41 41 41 42 44 43 41 41 42 41 42 43 41 39 34 35 35 33 32 30 29 27 25 24 24 24
35 35 35 35 36 38 39 40 40 40 40 40 40 41 43 44 46 45 45 45 46 48 48 45 47 50 51 46 44 42 43 43 40 38 37 35 34 32 31 29 25 24 26
37 35 33 32 34 37 39 41 41 38 37 36 35 35 37 39 41 40 39 40 41 42 42 42 45 52 51 38 35 38 35 38 43 42 43 41 36 34 33 31 28 29 29
35 34 33 33 35 36 37 38 38 36 36 37 37 36 35 35 34 32 32 33 34 34 35 37 40 41 35 32 33 33 28 28 28 34 42 43 40 37 34 33 30 30 33
32 33 37 37 35 34 35 34 35 35 36 37 36 35 34 33 31 31 31 30 31 31 35 37 38 39 35 31 33 33 29 33 28 31 34 37 38 38 36 33 31 31 33
33 35 37 36 32 32 33 32 34 34 34 34 32 30 30 30 28 28 28 28 30 31 33 36 37 37 33 31 32 31 29 30 30 31 29 31 35 37 37 37 32 32 31
36 33 34 29 26 27 28 29 31 30 29 28 30 30 29 27 25 24 25 26 27 30 32 36 38 37 33 30 29 28 28 28 28 30 28 28 31 36 39 41 34 33 32
35 34 28 25 24 26 27 26 25 25 24 23 24 26 24 21 20 21 21 21 23 26 30 34 38 39 36 33 31 29 28 27 27 27 29 30 31 35 40 41 36 35 33
36 33 28 27 27 26 23 21 20 20 19 19 21 21 18 16 17 17 17 19 22 26 28 32 36 38 37 36 35 33 29 28 26 26 29 32 34 35 37 38 37 35 36
35 31 28 27 25 22 21 21 19 17 17 18 19 18 17 17 17 16 16 18 22 26 30 33 36 37 37 36 36 34 32 29 29 27 27 30 33 35 34 32 33 33 33
30 28 28 30 28 24 24 23 21 20 21 21 21 20 19 17 16 17 17 19 23 25 29 32 35 35 35 35 36 35 34 31 31 29 28 28 29 31 33 33 33 33 32
29 32 34 34 30 27 26 27 26 25 25 26 27 26 24 22 21 20 21 22 24 26 29 31 30 32 34 34 34 35 34 33 32 32 30 30 31 33 34 34 34 33 35
30 32 33 33 32 29 28 29 28 30 31 31 32 32 30 27 24 21 21 23 23 26 30 32 32 32 33 32 31 32 34 35 34 34 34 32 31 33 35 37 36 34 36

GEFSSE_500_meanwind_006.txt.gz
Wind_Speed
2 2 1 1 2 2 5 8 10 11 12 14 14 13 12 11 10 9 9 8 8 9 11 12 12 12 11 10 9 8 7 6 6 6 5 5 5 5 6 7 7 8 8
2 3 3 3 2 2 4 7 9 9 11 12 14 13 12 11 11 10 9 8 7 7 8 10 12 12 11 10 9 8 7 5 5 4 4 4 4 3 3 3 4 5 5
2 3 4 5 4 4 5 8 10 11 12 13 13 13 12 11 11 11 10 8 7 6 7 9 11 11 11 11 9 7 6 6 5 4 4 3 2 1 1 1 1 0 1
3 3 4 4 4 5 7 9 11 13 13 13 13 12 12 12 12 11 10 9 8 7 8 12 14 13 12 12 10 8 6 5 6 5 4 3 3 2 1 1 1 1 3
5 5 5 6 6 7 8 9 11 12 13 13 13 12 11 12 12 12 11 9 9 10 12 16 17 14 13 12 11 10 8 6 5 5 5 4 5 4 3 3 2 2 3
6 6 6 7 8 9 9 9 10 12 13 13 13 13 13 13 14 13 12 11 12 14 16 17 16 14 13 12 11 10 10 9 8 7 6 5 6 6 6 6 5 4 4
8 7 7 8 9 10 11 10 12 13 14 15 15 16 16 16 16 16 15 16 18 19 19 18 16 15 14 13 10 10 11 12 12 10 10 8 8 7 8 8 9 8 7
6 7 7 8 10 11 13 14 15 17 18 18 19 20 20 19 19 19 20 21 22 22 21 19 17 17 15 15 13 12 12 13 14 14 13 12 13 11 10 9 9 10 11
8 9 11 13 14 16 17 18 19 20 21 21 22 23 23 21 21 21 23 24 25 24 24 22 21 21 20 19 18 17 17 17 15 15 15 15 16 16 14 12 12 11 12
12 14 17 19 20 21 22 23 24 24 25 26 26 26 26 25 24 25 26 28 28 28 28 27 25 25 25 24 24 23 22 22 19 16 14 14 17 19 18 17 16 14 13
18 19 21 22 22 23 24 26 28 29 28 28 29 31 31 31 30 30 31 32 32 33 32 31 30 29 28 28 28 27 26 25 24 22 20 18 18 20 20 20 20 19 17
23 24 25 26 27 28 28 28 30 31 30 31 31 33 34 34 33 34 34 36 36 36 35 35 35 34 32 32 32 31 29 28 27 27 26 25 25 24 22 22 23 23 21
26 28 30 31 31 32 31 31 31 32 31 31 33 34 34 34 34 35 36 36 37 37 37 38 38 37 36 36 37 35 34 33 31 31 32 30 30 29 27 25 24 24 24
28 30 32 35 36 36 35 34 33 33 33 33 34 34 34 33 33 33 34 35 36 37 37 38 39 39 38 39 39 37 37 37 37 37 36 34 34 34 32 29 27 25 25
32 33 34 36 38 39 37 36 36 36 37 37 36 35 35 33 32 31 31 32 31 31 32 31 30 27 26 25 25 26 28 30 34 39 40 38 38 38 36 34 31 29 27
36 37 37 38 40 38 37 38 39 38 39 39 38 37 35 34 33 33 31 28 27 27 26 24 22 22 22 22 23 25 26 27 27 29 34 35 35 37 38 37 36 34 31
39 39 40 41 40 37 38 40 41 39 38 37 37 35 32 31 30 30 28 25 24 24 23 22 21 21 22 23 24 25 25 26 26 25 26 27 28 29 33 37 39 40 38
41 40 41 42 38 37 40 41 41 39 37 35 34 32 30 28 27 27 26 25 24 23 23 22 22 22 22 22 23 25 25 26 27 28 28 28 29 29 30 34 38 41 43
38 41 40 40 38 38 39 41 41 38 36 34 31 29 27 26 25 26 27 26 25 24 23 22 19 19 19 21 22 24 25 25 27 29 30 30 31 33 34 34 35 39 43
40 40 39 39 38 39 40 42 40 36 34 32 29 27 25 24 23 23 24 23 22 21 20 17 16 17 19 21 23 25 25 26 26 29 31 31 30 32 35 35 35 36 39
39 40 41 39 38 40 41 41 37 34 32 29 27 25 24 23 22 21 20 17 17 17 16 16 16 17 19 21 23 24 25 26 27 29 32 32 30 30 32 33 34 33 34
36 39 41 41 40 41 41 39 36 35 32 29 26 25 24 22 21 20 18 17 17 17 16 16 16 17 20 22 24 24 23 24 27 29 31 33 32 32 31 30 32 31 31
38 39 42 43 43 42 40 39 38 37 35 32 29 27 25 24 22 20 20 20 19 19 19 18 17 18 20 23 25 25 23 23 26 28 30 32 33 33 32 30 29 30 30
40 41 43 43 42 39 38 37 35 33 31 30 28 27 26 24 22 22 22 22 22 23 23 22 20 19 20 23 25 26 26 25 24 26 30 31 33 33 32 30 27 26 27
39 40 42 36 33 33 32 33 30 28 27 27 27 26 25 24 24 24 25 26 27 28 27 25 24 22 22 23 25 26 26 26 25 25 26 30 32 32 31 29 26 24 23
37 38 36 31 30 32 32 33 31 29 27 27 29 29 28 28 27 26 27 29 31 33 33 30 27 25 24 24 25 26 26 25 24 24 24 27 30 31 30 29 27 26 25

GEFSSE_500_meanwind_012.txt.gz
Wind_Speed
3 2 1 3 3 4 3 4 6 7 9 11 12 11 10 10 11 11 11 10 10 11 13 15 16 15 12 11 10 9 8 7 7 7 6 6 5 5 5 7 9 9 8
5 4 4 4 5 5 5 4 5 6 8 9 10 10 9 9 9 10 9 9 8 9 11 14 16 16 13 11 9 8 7 8 8 7 6 4 4 3 3 3 5 7 7
6 6 6 6 6 6 6 5 5 6 6 7 8 8 8 8 8 9 9 8 8 9 11 13 15 16 14 12 9 7 5 6 7 7 6 4 3 2 2 1 1 2 4
8 8 8 8 8 8 7 7 7 6 5 5 6 7 7 7 7 8 8 8 8 9 12 13 13 14 14 13 10 7 4 3 4 5 6 7 4 3 2 1 1 1 2
10 9 9 9 9 9 8 8 8 7 7 6 6 7 7 8 8 8 8 7 8 10 11 12 12 13 13 13 12 9 5 4 4 4 5 6 6 5 4 3 2 1 1
10 10 10 10 10 9 8 8 8 9 9 10 11 10 10 10 10 10 9 9 10 11 11 11 11 11 12 12 12 10 8 6 5 5 7 6 6 5 5 5 4 3 2
9 9 10 10 10 9 9 9 10 11 13 15 16 16 15 14 14 13 12 12 12 13 13 12 12 12 12 12 12 11 9 8 6 5 7 8 8 7 6 5 5 4 4
8 8 9 9 9 11 12 14 15 17 18 20 20 20 19 19 18 18 16 15 15 16 16 15 15 15 16 15 14 14 12 11 9 7 7 10 10 10 9 7 7 6 5
10 11 12 12 13 14 15 17 18 20 21 22 23 23 23 22 22 21 20 20 20 20 20 19 19 19 19 19 18 18 17 16 13 11 10 11 10 11 11 10 9 8 6
14 16 17 17 17 18 19 20 20 21 22 23 24 23 23 24 24 23 23 23 23 23 23 24 24 23 23 23 22 22 22 22 20 17 14 14 14 12 11 10 10 10 9
19 21 23 23 23 22 22 22 21 21 22 23 23 23 23 23 24 23 23 24 25 25 26 27 27 26 25 25 25 26 26 26 25 23 21 18 18 17 15 13 11 11 11
23 25 27 28 28 26 24 23 22 22 22 21 21 22 23 24 24 23 22 23 25 26 27 29 28 28 27 27 28 28 28 28 28 28 27 24 23 22 20 17 16 14 14
30 30 31 31 29 27 25 24 23 23 22 21 21 22 24 25 25 24 22 21 22 23 25 27 29 29 28 28 28 27 27 28 29 29 29 28 28 27 26 23 21 19 18
34 36 36 34 31 28 26 25 24 23 22 22 23 24 24 25 24 23 22 22 22 21 21 22 25 26 25 25 24 24 25 24 23 24 24 27 29 30 30 29 27 24 22
36 38 39 37 34 30 28 27 25 23 23 23 24 24 24 24 24 22 22 21 22 21 19 18 19 20 21 22 22 23 23 22 22 21 22 23 25 26 28 31 31 29 27
42 41 41 41 38 34 31 29 26 24 23 23 23 24 24 24 23 23 22 22 21 20 18 18 19 19 21 22 23 24 24 24 23 24 24 24 24 24 25 28 32 33 31
45 43 41 41 43 40 34 31 27 25 25 23 23 23 22 22 22 21 20 21 20 19 18 18 19 20 21 22 23 23 24 24 24 25 25 25 25 25 25 26 30 33 33
44 44 44 42 43 40 35 31 28 25 24 23 22 21 20 20 20 19 18 18 19 19 19 19 19 21 21 22 21 20 20 21 22 23 23 24 25 25 25 26 28 31 32
43 43 41 39 38 36 33 29 24 22 23 23 23 21 19 18 18 18 17 17 18 18 18 18 20 20 20 19 17 17 17 18 19 20 21 22 23 24 25 26 27 29 31
52 48 40 36 31 28 25 21 19 20 21 22 22 21 20 18 18 18 17 16 16 16 16 17 17 18 17 16 15 15 15 15 15 16 17 18 19 21 23 25 26 27 29
52 51 46 32 21 18 16 15 16 19 20 21 22 21 21 19 19 18 17 16 15 15 15 15 15 16 16 16 15 15 15 14 13 14 15 16 17 19 22 25 27 27 28
46 44 36 26 19 18 18 18 18 19 20 19 19 19 19 19 19 18 18 17 16 15 15 15 16 17 18 18 17 16 16 15 14 13 13 14 16 18 21 25 28 29 29
40 37 35 28 25 21 20 20 20 17 16 16 17 16 16 17 17 18 18 17 17 16 16 17 17 18 20 20 20 19 18 18 17 16 15 15 15 17 20 23 26 28 28
37 36 35 32 29 25 24 24 21 19 19 18 18 16 15 16 18 18 19 19 19 19 19 19 19 20 21 23 23 22 21 19 19 20 18 16 15 17 18 21 24 26 27
38 36 34 34 34 32 31 29 26 24 24 23 22 20 19 19 20 20 21 22 22 22 22 22 22 23 24 25 26 25 24 22 20 19 21 19 17 17 18 19 21 24 26
42 40 39 39 39 39 39 37 35 33 31 31 30 28 26 25 24 24 24 24 25 25 26 25 25 26 27 27 27 27 26 25 23 20 20 21 20 19 18 19 21 23 25

GEFSSE_500_meanwind_018.txt.gz
Wind_Speed
11 12 11 11 11 10 9 7 6 5 4 4 5 6 6 6 6 6 6 6 7 8 10 11 11 10 6 4 3 4 5 5 6 7 7 7 7 7 8 7 6 6 6
12 13 14 14 14 12 11 9 8 6 5 3 3 3 4 4 4 4 4 3 4 6 9 10 11 11 9 5 2 3 4 5 5 6 6 5 5 4 5 5 5 5 5
11 12 14 16 15 14 12 11 9 9 7 4 3 2 1 1 1 2 2 2 3 5 7 8 9 10 10 8 4 2 3 4 5 5 5 4 4 4 4 4 4 3 4
12 14 15 16 16 14 13 12 11 10 8 6 4 3 3 3 4 4 4 4 5 5 6 7 6 7 9 9 7 2 2 3 4 4 5 5 4 4 3 4 4 3 3
14 15 16 17 16 15 14 13 12 11 9 8 8 7 7 8 8 8 8 8 8 8 8 7 7 5 5 6 6 5 2 2 3 4 4 4 4 4 4 4 4 4 3
14 15 16 16 16 15 14 13 13 12 12 12 12 13 13 13 12 12 12 12 12 12 11 10 10 8 7 6 4 4 3 2 2 4 5 4 4 4 4 3 4 5 4
14 14 15 14 13 13 13 14 15 15 15 16 17 18 18 18 17 17 16 16 16 16 16 15 14 13 12 10 9 7 6 6 5 4 5 6 6 6 5 4 3 5 6
13 14 15 14 15 15 15 16 16 17 18 19 20 20 21 20 20 20 19 19 19 19 19 19 18 17 16 15 14 13 11 10 10 9 7 6 7 8 8 8 7 5 5
14 16 17 18 19 19 19 19 20 20 21 21 21 22 21 21 21 21 21 22 22 22 22 22 22 22 21 20 19 18 17 15 15 14 12 11 10 9 10 11 11 10 8
17 18 19 20 21 21 22 23 23 23 23 23 23 23 22 22 21 21 21 22 23 24 24 25 25 25 24 24 23 22 22 20 19 18 17 16 14 13 13 12 13 13 12
20 22 23 24 25 25 26 26 27 27 26 25 24 24 23 22 21 21 21 22 22 23 24 26 27 27 27 27 26 25 25 24 22 22 21 20 19 18 17 16 16 16 15
24 26 27 29 31 32 33 34 33 32 30 28 27 27 25 24 23 22 22 23 23 24 24 26 27 28 28 27 27 26 26 26 25 24 23 22 22 22 22 21 20 19 18
28 30 32 34 35 38 40 40 39 37 36 34 31 30 28 26 25 24 24 24 24 25 25 26 26 26 26 26 26 27 28 27 26 24 23 22 22 22 23 24 25 24 22
31 33 35 37 39 41 43 44 43 43 41 40 37 34 31 28 26 25 24 25 25 25 25 26 26 26 25 26 26 26 26 26 24 23 21 21 20 19 20 23 27 28 28
32 34 35 37 40 42 45 45 45 44 44 43 41 37 34 31 28 27 25 25 25 25 26 26 25 25 26 26 25 24 24 24 22 19 18 18 17 17 18 20 24 28 30
34 35 36 37 37 41 44 45 45 47 47 44 44 40 37 34 31 28 26 25 26 25 25 25 25 25 25 25 24 24 23 22 21 21 20 19 18 19 19 20 22 24 28
35 37 41 41 42 43 44 46 48 46 45 44 45 43 40 36 31 27 25 25 25 24 24 24 25 26 26 26 25 25 24 24 23 22 21 21 20 20 20 21 22 23 25
39 41 43 44 46 45 45 47 47 43 41 41 42 43 39 35 30 27 24 23 23 24 24 24 25 26 26 26 26 25 24 23 22 22 21 21 20 20 21 21 23 24 24
43 45 46 45 44 43 43 43 39 33 32 33 36 38 35 32 29 25 22 22 23 24 24 24 25 25 26 26 26 25 24 23 22 21 20 19 19 19 20 20 21 23 24
45 45 44 42 41 40 40 40 34 26 23 25 31 34 30 27 25 23 22 23 24 24 24 24 24 25 25 25 25 25 24 22 21 19 18 17 17 17 17 18 19 21 23
45 44 41 39 38 38 37 36 30 23 18 17 21 26 26 24 23 22 22 24 24 25 24 24 24 24 24 24 24 24 23 22 21 19 18 16 15 15 15 16 17 19 21
44 41 38 37 37 38 37 35 31 27 23 18 17 17 19 21 21 21 23 24 25 26 25 25 25 24 24 24 24 23 23 22 21 19 18 16 15 14 14 14 15 17 19
39 39 39 39 39 39 38 37 34 31 28 24 20 19 20 21 21 22 23 25 26 27 27 27 26 25 25 24 24 24 23 23 22 20 19 18 16 15 14 13 14 15 17
37 39 41 41 41 40 39 38 35 32 30 27 25 23 23 23 24 25 26 26 27 28 29 29 28 28 27 26 26 25 25 25 24 23 21 20 18 17 16 14 14 15 16
37 39 41 43 43 43 42 40 39 37 34 32 30 29 29 28 28 29 30 30 30 31 31 32 31 31 30 29 29 28 27 26 26 26 24 21 19 18 17 16 15 15 16
39 41 43 44 44 45 44 43 42 41 39 38 36 35 35 35 35 34 34 34 35 35 35 35 35 34 33 32 32 31 30 29 28 28 27 24 22 20 19 18 17 17 17

GEFSSE_500_meanwind_024.txt.gz
Wind_Speed
7 7 7 6 7 7 8 9 9 9 9 9 8 7 6 5 3 3 3 3 4 6 7 8 8 6 3 2 3 2 1 1 2 2 3 4 5 6 7 7 7 7 7
8 8 7 6 6 7 8 8 9 9 9 8 8 7 7 6 6 5 4 4 4 5 6 7 7 6 4 2 3 3 3 2 2 2 3 3 4 4 6 6 6 6 6
9 8 7 6 6 7 7 8 8 9 9 8 8 8 7 8 8 7 6 6 6 5 6 6 6 6 5 3 2 3 4 3 3 2 2 2 3 3 3 4 4 5 5
8 8 7 7 6 6 6 7 8 8 9 8 9 9 9 9 10 10 10 9 9 8 8 7 6 6 5 3 2 1 4 4 3 2 2 2 2 2 2 2 3 4 4
7 6 6 6 6 6 6 7 7 8 9 9 10 11 12 12 13 13 13 13 12 12 11 10 9 8 7 5 3 2 1 3 4 4 2 2 1 2 2 2 3 4 5
7 7 6 6 7 7 7 8 9 10 10 11 12 13 14 15 15 16 16 16 16 15 15 14 13 11 10 10 8 5 3 2 4 5 5 4 3 3 3 4 4 5 5
9 9 9 9 9 10 11 11 12 13 14 14 15 16 17 18 18 18 19 19 19 19 18 18 17 16 14 13 12 10 8 6 5 6 6 7 7 7 6 5 5 6 7
12 12 13 14 14 14 15 16 17 18 19 19 20 21 22 22 21 21 22 22 22 22 21 21 21 20 19 18 17 16 14 11 10 9 9 9 9 9 10 10 9 7 8
15 16 17 18 18 19 20 21 22 23 24 24 25 25 26 27 26 26 25 25 25 25 24 24 24 23 23 22 21 20 19 17 15 14 13 13 13 12 12 12 12 12 10
18 19 21 22 24 25 26 26 27 28 28 29 29 30 30 30 31 31 30 28 27 27 26 26 26 26 26 26 25 25 23 22 21 19 18 17 17 17 16 16 16 16 15
21 23 25 27 29 30 31 32 32 32 32 33 34 34 34 33 34 35 34 32 31 30 28 27 27 27 27 28 28 28 26 26 25 24 22 21 21 21 20 20 19 19 18
26 27 29 30 31 32 34 36 36 35 33 34 36 37 39 38 38 38 37 36 34 33 32 30 29 28 28 28 29 29 28 28 28 27 25 24 23 23 23 24 23 22 21
29 30 32 32 33 35 36 37 36 35 35 34 35 38 40 40 41 40 40 38 37 35 34 32 31 30 29 29 29 28 27 27 27 26 25 25 24 24 25 25 25 25 25
30 33 34 34 35 36 37 37 37 37 35 34 36 39 40 41 42 42 41 41 39 37 35 34 33 31 30 30 29 28 26 26 25 24 24 24 25 24 24 25 26 26 27
33 34 35 35 36 37 38 38 37 36 35 35 37 38 41 42 44 43 43 42 41 40 38 36 35 33 31 30 29 27 26 25 24 24 23 22 23 23 23 24 23 25 27
34 35 36 36 37 39 38 38 37 35 34 35 36 39 42 43 44 45 44 44 43 41 40 38 36 35 33 31 29 28 26 26 25 24 24 21 21 21 22 22 21 22 24
35 36 37 38 39 39 39 39 38 35 35 35 37 40 41 41 42 44 44 44 44 44 42 40 38 36 33 31 30 29 28 26 26 25 25 24 22 22 21 21 21 21 21
35 37 38 40 41 41 41 40 38 36 35 35 37 38 38 38 39 42 45 45 46 45 43 40 38 36 33 32 31 30 29 28 28 27 26 25 24 23 23 22 22 22 22
36 38 40 41 41 41 41 40 37 36 36 36 36 36 35 33 35 39 41 43 45 44 42 40 39 37 35 34 32 31 30 29 29 29 27 26 25 24 23 22 23 23 23
37 38 39 40 40 40 39 38 37 37 37 36 36 35 32 30 29 33 37 39 42 43 42 40 40 38 37 35 33 32 31 31 30 29 28 27 25 23 22 22 21 22 23
35 36 37 38 38 37 37 37 37 37 37 37 36 33 31 28 27 27 32 36 40 42 41 40 40 39 37 36 34 33 32 32 31 30 29 27 26 24 22 20 19 19 20
33 34 35 36 37 37 37 38 38 38 38 37 36 34 31 28 26 24 28 34 39 40 41 41 39 38 37 36 34 33 32 31 30 30 29 27 26 23 21 19 17 16 17
33 34 36 37 38 39 40 40 40 39 39 38 37 35 33 30 27 26 26 29 33 36 38 40 39 37 36 35 34 32 31 31 30 29 29 28 26 23 21 19 17 16 16
35 36 38 39 40 40 41 42 42 41 40 39 38 37 35 33 31 29 28 28 28 30 33 35 36 35 35 35 34 33 32 31 30 30 29 28 27 25 22 20 19 17 16
35 37 38 39 41 42 43 43 43 43 42 41 40 38 38 36 35 34 33 32 31 31 32 34 34 34 35 35 35 34 33 32 32 32 31 30 28 27 24 23 20 18 17
36 38 39 40 42 44 45 45 45 44 43 42 41 40 39 39 38 38 38 37 36 36 36 37 37 37 36 37 37 37 36 35 35 34 34 32 31 29 27 25 23 21 19

GEFSSE_500_meanwind_030.txt.gz
Wind_Speed
10 11 11 10 9 8 7 6 6 7 8 9 9 10 11 10 10 10 11 11 11 11 12 12 12 11 10 9 7 5 5 4 4 4 5 5 5 5 6 7 8 8 8
11 11 11 10 9 9 7 6 6 7 8 9 10 10 11 11 12 12 12 12 12 12 12 12 12 12 11 10 8 6 5 4 4 3 3 3 4 4 4 5 6 7 7
10 11 10 9 9 8 7 6 6 7 8 9 10 11 11 12 13 14 14 15 15 14 14 13 13 12 11 10 9 7 5 4 4 3 2 1 2 3 4 4 5 6 5
10 10 9 9 8 8 7 7 7 7 8 9 10 11 12 13 14 15 16 17 17 17 16 15 14 13 11 10 9 7 5 5 4 3 2 0 1 2 3 3 4 4 4
10 10 9 9 9 8 8 8 9 9 9 10 11 12 13 14 15 16 17 18 19 18 18 17 16 15 13 11 9 8 6 5 5 4 3 1 0 1 2 2 3 3 3
12 11 10 10 10 10 10 10 11 12 12 13 14 15 16 17 17 17 18 19 19 20 20 20 19 17 16 14 12 10 8 6 6 6 5 4 2 1 1 1 1 2 3
13 13 12 12 12 12 12 13 14 15 17 17 18 19 20 20 20 20 20 20 20 21 21 21 21 21 19 17 16 14 12 10 8 7 6 6 5 4 3 2 1 2 2
15 16 15 16 16 16 16 17 18 20 21 22 23 23 24 24 24 24 24 23 23 22 22 22 23 22 22 21 20 19 17 15 13 11 9 8 7 6 6 5 5 4 4
17 19 19 19 19 19 20 21 21 22 23 24 25 26 27 28 28 28 28 26 26 25 24 24 24 24 24 24 23 22 21 20 18 15 13 12 11 10 9 8 8 7 7
21 20 21 21 21 22 22 23 23 24 25 26 27 28 29 29 29 30 30 30 29 28 27 27 26 25 25 25 26 25 25 23 22 20 18 16 15 14 13 12 11 10 10
24 23 23 23 24 24 24 25 26 26 26 28 29 29 30 30 30 30 31 31 31 31 31 30 29 28 27 27 27 28 27 27 26 24 22 20 20 18 17 16 15 14 14
25 26 26 26 26 27 27 27 28 28 28 30 30 31 32 32 31 31 31 31 32 33 33 32 31 30 29 28 29 29 29 30 29 28 25 24 24 23 21 20 19 19 18
27 28 28 28 29 30 30 30 30 31 31 31 32 33 33 32 32 32 32 31 31 33 33 34 33 32 31 31 31 30 30 31 30 30 27 26 27 26 25 24 23 22 22
29 29 30 30 31 32 33 33 33 34 35 35 35 34 34 33 33 33 34 33 32 33 35 35 35 35 34 33 33 32 31 31 31 31 29 26 27 27 26 25 25 24 24
31 31 31 32 32 34 34 35 36 37 37 38 38 37 37 35 33 33 34 34 34 35 36 37 37 35 35 35 35 34 32 32 32 31 29 26 27 28 26 25 25 25 24
32 32 33 33 34 35 36 37 38 39 39 39 40 40 38 36 34 34 34 35 36 37 37 37 37 36 36 35 35 34 32 32 32 31 30 27 26 27 26 24 24 23 23
31 32 33 34 34 36 37 38 39 40 40 40 40 39 38 36 35 35 35 36 37 37 37 37 36 37 37 36 35 35 33 32 32 31 31 29 27 27 26 24 23 22 22
29 31 32 34 35 37 38 38 39 39 39 39 39 38 36 35 34 34 35 36 36 36 36 37 37 37 37 38 36 35 34 33 32 32 32 30 28 28 28 26 24 22 21
28 30 31 33 35 36 36 37 38 38 38 38 37 36 35 35 35 35 35 36 36 36 34 35 35 35 36 37 36 36 35 34 33 33 32 31 30 29 28 26 25 23 22
28 29 31 33 34 35 36 36 36 36 36 36 36 36 36 36 36 36 35 35 34 34 33 33 34 35 36 36 37 36 36 35 34 33 33 32 31 30 28 26 25 24 23
28 30 31 33 34 35 35 35 36 36 36 37 37 36 36 36 36 36 36 35 34 32 31 32 33 35 35 35 36 35 35 35 34 34 33 32 31 29 27 26 26 24 23
28 30 31 33 34 35 35 36 36 36 36 37 38 38 38 37 38 38 37 36 35 33 32 31 31 31 34 36 35 35 35 36 36 36 34 33 32 30 27 26 25 23 22
30 32 33 34 34 35 36 37 38 39 39 39 40 40 39 39 40 40 39 37 35 34 32 31 31 31 32 34 34 36 37 38 36 36 34 34 33 31 28 27 25 24 23
32 33 34 34 35 37 39 40 41 41 41 41 42 41 41 41 41 40 39 37 35 35 34 33 32 32 31 33 35 36 38 38 37 36 35 35 33 31 30 29 27 25 24
33 35 36 36 37 38 40 42 43 43 43 43 43 42 41 40 40 39 37 36 35 34 34 33 33 33 32 33 34 35 36 38 39 36 33 34 33 32 30 29 27 26 25
33 35 36 37 38 39 41 42 43 43 43 42 42 40 39 38 38 37 37 36 35 35 35 34 34 33 33 33 33 34 34 35 38 39 37 34 33 32 31 30 29 27 26

GEFSSE_500_meanwind_036.txt.gz
Wind_Speed
7 6 6 6 5 4 4 4 4 4 4 5 6 6 7 8 9 10 11 12 13 13 14 15 16 16 16 14 11 8 6 5 5 5 6 6 6 6 7 8 9 9 9
6 6 6 5 5 4 4 4 4 4 4 5 5 6 6 7 7 8 9 11 12 13 13 14 15 15 15 15 13 10 7 5 4 4 4 4 5 5 5 6 7 7 8
5 5 5 5 4 4 4 4 4 4 4 4 5 5 6 7 7 8 9 10 11 12 13 13 14 14 14 14 13 12 9 7 4 3 3 3 3 4 4 5 5 6 7
6 5 5 5 5 4 4 4 4 4 5 5 6 6 7 7 8 8 9 10 11 12 12 13 13 14 14 14 13 12 10 8 6 4 2 2 2 3 4 4 4 5 6
5 6 6 6 6 6 6 6 6 6 7 8 8 9 10 10 11 11 11 11 12 12 13 13 13 14 14 14 13 12 11 9 7 5 2 0 1 2 3 4 4 4 5
6 6 7 7 7 8 9 9 9 10 10 11 11 12 13 13 14 14 14 14 14 14 14 14 14 15 15 14 13 13 11 10 8 6 4 2 2 2 3 4 4 5 5
8 8 9 9 10 11 12 12 12 13 13 13 14 14 14 15 16 16 17 17 18 17 17 17 16 16 16 16 15 14 13 11 10 8 6 5 3 3 4 4 4 5 5
10 10 11 12 12 13 13 14 15 14 15 16 16 16 16 17 17 17 18 19 19 20 20 19 19 18 18 17 17 16 14 13 12 11 9 7 6 5 5 5 5 5 5
11 12 12 13 13 14 14 15 16 16 17 17 17 17 18 18 18 19 19 20 20 21 21 21 21 21 21 20 19 19 17 16 15 14 12 11 10 9 7 7 7 7 6
13 14 15 15 15 16 17 18 18 18 18 19 19 19 19 20 20 20 21 21 21 22 23 23 23 23 23 23 23 21 20 19 18 17 16 14 13 13 11 10 9 8 8
16 17 17 17 18 19 20 21 21 21 21 21 21 22 22 22 22 23 23 23 23 23 23 24 24 25 25 25 25 25 24 22 21 19 19 18 17 16 15 14 12 11 10
18 19 19 20 21 22 23 23 23 23 23 24 24 25 25 25 25 26 26 26 25 25 25 24 24 25 25 26 27 27 27 26 24 22 21 21 21 20 19 18 16 15 14
21 22 21 23 24 26 26 26 25 25 26 26 26 27 28 28 28 28 28 28 28 28 27 27 26 25 26 26 26 27 29 29 27 26 24 23 23 23 22 21 20 19 18
24 24 25 26 27 28 28 27 27 27 27 29 30 30 31 32 31 31 31 31 31 31 30 29 28 28 27 27 27 26 27 30 30 29 28 26 26 25 25 25 24 23 21
27 27 28 28 28 28 29 28 28 29 30 31 32 32 33 33 32 32 32 32 32 32 32 31 31 30 30 29 28 27 28 29 31 32 31 29 28 28 28 27 27 26 24
28 28 28 28 28 28 29 30 31 32 32 33 34 34 34 33 32 32 33 32 33 33 33 32 31 31 31 31 31 29 29 30 30 32 33 32 31 30 29 29 29 28 26
27 27 27 27 28 29 30 32 33 34 34 35 35 35 34 34 33 33 33 33 33 33 34 33 33 32 32 33 32 30 30 31 31 33 34 35 33 31 30 30 29 29 28
24 25 25 26 28 29 31 33 34 34 35 36 36 36 35 35 34 34 34 33 34 34 34 34 34 32 32 32 32 31 30 32 32 33 35 35 33 32 31 30 30 29 28
23 24 25 27 28 30 32 33 34 36 36 37 37 36 35 35 34 34 34 34 34 34 34 34 34 33 32 32 31 31 31 32 33 34 34 35 35 34 33 30 31 29 29
23 25 27 29 30 32 33 34 35 36 37 37 36 36 35 35 35 35 35 35 35 35 35 34 34 34 33 32 32 32 32 32 32 33 33 35 36 36 35 33 33 31 31
24 26 28 30 31 33 34 35 35 36 36 37 37 36 36 36 36 36 36 36 36 37 36 36 35 34 33 33 33 32 33 32 32 32 33 35 35 35 35 35 34 33 33
23 25 27 29 31 32 33 34 34 34 34 35 36 36 36 36 37 36 36 37 37 37 38 38 37 36 35 33 32 30 31 31 32 32 32 34 35 37 36 35 36 34 36
21 23 25 27 28 29 30 31 32 33 33 34 34 35 35 36 36 35 35 35 35 35 36 36 36 36 35 34 32 31 30 30 31 32 33 34 35 36 36 36 36 34 35
21 22 24 25 26 28 29 30 31 32 33 34 34 34 34 34 34 34 33 32 32 33 33 34 34 34 34 33 33 32 31 30 30 31 32 33 34 35 37 36 35 35 34
22 23 24 25 26 28 29 29 30 31 32 33 33 33 34 34 34 34 32 31 31 31 31 31 31 32 32 32 32 31 31 30 30 30 31 32 34 35 36 36 36 36 36
23 24 25 27 28 29 30 31 31 32 33 33 34 34 34 35 35 35 34 32 31 31 31 31 31 31 32 32 32 32 32 31 30 30 31 32 34 34 36 37 36 36 37

GEFSSE_500_meanwind_042.txt.gz
Wind_Speed
8 7 6 6 6 6 6 6 6 5 4 4 4 4 4 4 4 5 5 6 7 8 8 9 10 11 12 12 11 10 8 6 5 4 4 5 6 7 7 7 7 8 9
7 7 6 6 6 6 6 6 6 5 4 4 3 3 2 2 3 3 4 5 5 6 6 7 8 8 9 10 10 9 8 6 5 4 4 4 5 6 6 6 6 7 8
7 7 6 6 6 5 5 5 5 5 5 5 5 4 4 4 4 5 5 6 7 7 7 7 7 7 7 7 8 8 7 6 5 4 3 3 3 4 5 5 5 6 7
7 7 6 5 5 5 5 5 5 6 6 6 7 7 7 7 8 9 9 9 9 9 9 9 9 8 6 5 5 5 5 5 4 3 3 3 3 4 4 5 5 5 7
8 8 6 5 5 6 6 7 7 7 8 8 8 9 10 10 11 12 12 12 12 12 12 12 11 10 9 7 6 4 3 2 2 2 2 2 3 3 4 5 5 5 6
10 10 8 7 7 7 8 9 9 9 10 10 11 11 12 13 13 14 14 14 14 14 15 15 15 13 12 11 9 7 5 3 2 1 2 3 3 4 4 4 5 6 6
12 11 10 10 10 10 10 10 11 11 11 12 12 13 13 14 15 15 15 15 15 16 17 17 17 17 15 14 13 12 10 7 5 4 3 4 4 5 5 5 5 6 7
13 12 12 12 12 12 12 12 12 13 13 13 14 14 14 14 15 16 17 17 17 18 18 19 19 19 19 18 16 15 14 12 10 9 7 6 6 6 7 6 6 6 7
15 14 14 14 14 14 14 14 14 14 15 15 15 15 15 15 16 17 18 19 19 19 20 20 20 21 21 20 19 18 18 16 15 13 12 10 9 9 8 8 8 7 7
18 18 17 18 18 17 17 16 17 17 18 17 17 17 17 17 18 19 20 21 21 22 22 22 23 23 23 22 22 21 21 20 20 18 16 15 13 12 11 11 10 9 9
20 21 21 21 21 20 20 20 21 21 21 21 21 20 20 20 20 21 22 23 23 24 23 24 24 24 24 24 23 22 22 22 23 22 21 19 18 16 15 14 13 12 11
23 24 24 24 23 23 24 25 25 25 25 26 25 23 22 21 22 23 23 25 25 26 26 26 26 26 25 25 25 23 22 24 24 25 24 23 22 21 19 18 17 15 14
23 25 25 24 24 24 25 26 27 27 28 28 27 25 24 23 23 25 26 27 27 28 28 28 27 27 28 27 27 25 23 23 24 25 26 27 26 25 24 22 21 19 18
21 23 23 24 24 23 24 25 26 26 26 27 25 24 25 25 25 27 27 28 29 29 29 28 28 29 29 29 28 27 25 24 23 25 27 29 29 28 27 26 24 23 21
19 20 21 23 23 24 25 25 25 26 26 25 26 27 27 27 27 29 30 30 30 30 30 29 29 30 30 30 30 28 27 26 25 25 26 30 32 32 31 29 28 26 25
18 20 21 22 23 24 25 26 26 27 27 28 28 29 29 30 30 30 31 31 31 31 31 31 30 30 30 30 29 29 29 28 27 26 26 29 32 34 34 32 31 30 29
19 20 21 23 24 25 26 27 28 28 28 28 28 29 29 30 30 30 31 32 32 32 32 32 32 31 31 30 29 29 29 29 28 28 28 28 31 34 35 35 34 33 32
19 20 21 22 23 24 25 26 27 27 28 28 29 30 30 31 31 31 32 32 32 32 32 32 32 31 31 30 30 30 29 29 30 30 29 29 30 33 35 36 35 34 34
19 19 20 22 23 25 26 27 27 28 29 29 30 30 31 31 31 32 32 32 33 33 33 33 32 32 32 31 30 30 30 30 30 31 30 30 30 32 35 37 36 35 35
19 20 21 23 25 26 26 27 28 28 29 29 30 30 31 31 31 32 32 33 33 33 34 34 34 33 33 33 32 31 31 31 30 31 31 30 30 32 34 37 38 37 37
19 21 22 24 25 26 27 28 29 29 30 30 30 30 30 31 31 32 32 33 34 34 35 35 35 35 35 34 34 33 33 33 32 31 31 30 30 32 34 36 37 38 38
20 21 23 24 26 27 28 29 30 30 31 31 30 30 30 30 30 31 31 32 33 33 34 34 34 35 35 35 35 34 33 33 33 33 32 31 31 32 33 35 37 37 39
19 21 23 25 26 27 28 29 30 31 31 31 31 30 30 29 29 30 30 31 32 32 33 33 34 34 34 35 35 34 34 34 34 33 32 31 31 33 34 35 36 37 40
19 21 23 24 26 27 28 29 29 30 30 31 31 30 30 30 29 29 29 30 30 31 32 32 33 33 33 34 34 34 34 34 34 34 34 33 32 33 34 35 36 36 39
19 20 21 22 24 25 25 26 27 28 28 28 28 29 29 29 29 29 29 30 30 31 32 32 32 32 32 33 34 34 34 34 34 34 34 35 33 34 34 35 36 37 39
17 18 20 21 22 23 23 24 25 26 26 26 27 28 28 29 29 30 31 32 32 33 33 34 34 34 34 34 34 34 34 34 34 34 34 35 35 34 35 36 37 38 39

GEFSSE_500_meanwind_048.txt.gz
Wind_Speed
5 5 4 3 2 3 3 3 2 1 1 2 2 3 3 3 3 3 3 3 3 4 4 5 5 5 6 5 5 5 4 3 3 3 3 4 4 5 5 5 6 7 8
5 4 3 2 2 2 3 3 2 2 1 0 1 1 1 1 1 0 1 1 2 3 3 4 4 4 4 4 4 3 3 2 2 2 2 3 4 5 5 5 5 7 8
4 4 4 3 2 2 3 3 3 3 3 2 2 2 2 2 3 3 3 4 4 4 4 4 5 4 4 4 3 2 1 1 1 2 2 3 4 4 5 5 5 6 7
4 5 5 5 4 5 5 5 5 5 5 5 5 5 5 5 6 6 6 6 6 6 6 6 6 6 6 5 4 3 2 1 1 2 3 3 4 4 5 5 4 5 7
5 6 7 7 7 7 7 7 8 8 8 8 8 8 8 8 8 8 8 8 8 8 8 8 8 8 8 8 6 5 4 3 3 3 4 4 4 5 5 5 5 5 6
7 8 8 9 10 10 11 11 11 11 11 10 11 10 11 10 10 10 10 10 9 9 9 9 10 10 10 10 9 8 7 7 6 6 6 6 5 6 6 7 7 6 6
9 10 11 12 12 13 13 13 13 12 12 12 12 12 12 12 12 12 11 11 11 11 10 10 11 11 11 11 11 11 11 10 10 9 8 8 7 7 8 8 8 8 8
12 13 14 14 15 15 15 15 15 15 15 15 15 15 14 14 14 13 13 12 12 12 11 11 11 12 12 13 13 13 13 13 14 13 12 11 10 10 10 10 10 10 10
16 16 17 18 18 19 19 19 18 18 18 18 18 17 17 16 16 16 15 14 14 13 13 13 14 14 14 14 14 14 15 16 16 16 15 14 14 13 12 12 12 12 12
19 19 20 21 21 21 21 22 22 21 21 22 21 20 21 20 19 19 18 17 16 16 15 15 15 15 15 15 15 15 16 15 17 18 18 18 17 16 16 15 14 14 14
21 21 22 23 24 24 24 24 24 24 24 25 24 24 24 24 23 22 21 19 18 18 17 17 16 16 16 17 17 16 16 17 18 19 20 21 21 20 19 18 17 16 16
22 23 23 24 24 25 25 25 25 26 26 26 26 26 25 24 23 23 23 21 20 20 19 19 19 19 18 18 18 17 17 17 17 19 20 22 23 24 23 21 20 19 18
23 23 23 23 24 24 24 24 24 24 24 24 24 23 23 23 22 22 23 23 22 22 21 21 21 21 21 20 20 19 19 18 18 18 19 21 23 27 27 25 24 22 21
23 23 23 22 22 21 22 21 20 21 21 22 22 21 21 21 21 22 22 22 23 23 22 22 22 22 22 22 21 21 20 20 20 20 20 21 23 25 29 30 28 26 25
23 23 22 21 20 20 19 19 19 19 20 19 19 20 21 21 21 22 22 22 23 23 24 24 24 24 24 24 24 23 22 22 22 22 21 22 23 25 28 32 32 30 29
22 22 21 20 18 18 19 19 19 19 19 19 19 20 21 21 22 23 23 24 24 25 26 26 27 27 26 26 26 25 24 24 23 23 23 23 24 25 27 31 34 33 32
20 19 18 17 17 17 17 17 17 18 18 19 20 21 21 22 23 24 24 25 25 26 27 27 28 28 28 27 27 27 26 25 25 25 25 25 25 25 26 30 34 36 35
17 15 14 14 14 15 15 16 17 17 18 19 20 20 21 22 23 24 24 25 25 26 27 27 28 28 28 28 28 28 27 27 27 27 27 26 26 27 26 29 33 36 37
14 12 12 12 13 13 14 15 16 17 18 18 19 20 20 21 22 22 23 24 25 25 26 26 27 27 28 28 29 29 29 28 28 28 28 28 28 28 29 28 32 35 38
11 10 11 12 12 14 15 16 17 17 18 18 19 20 20 21 21 22 22 23 24 24 24 25 25 26 27 28 28 29 30 30 30 30 30 30 30 30 31 30 31 35 38
9 10 11 13 13 15 16 17 18 19 19 19 20 20 20 21 21 22 22 22 23 23 23 24 25 25 26 27 28 29 29 31 32 32 33 33 32 32 32 33 32 34 38
9 10 11 13 14 15 16 18 19 20 20 20 20 20 21 21 21 21 22 22 22 23 23 23 24 24 25 25 27 28 29 30 31 32 33 34 35 35 34 34 34 35 37
9 10 12 13 15 16 18 19 19 19 20 20 20 20 20 20 20 20 20 21 21 22 23 23 24 24 25 26 26 27 28 30 31 32 33 34 35 36 36 36 36 36 37
10 12 13 15 16 17 18 18 18 18 18 18 18 18 18 18 18 18 18 19 20 21 22 23 24 25 26 27 27 27 28 29 31 32 33 34 35 36 37 38 37 37 38
12 14 15 16 17 17 17 17 17 17 17 17 17 17 17 16 17 18 18 19 20 21 22 23 24 26 27 28 29 29 29 30 31 32 33 34 35 36 37 38 38 38 38
14 15 15 15 15 16 16 17 17 17 17 18 18 18 18 17 17 18 19 20 21 22 23 24 26 27 28 30 31 32 32 32 33 33 34 35 36 37 38 39 40 40 40

GEFSSE_500_meanwind_054.txt.gz
Wind_Speed
3 2 2 3 3 3 3 3 3 3 4 4 4 4 4 4 4 5 5 6 6 7 7 6 6 7 7 8 8 8 7 6 6 5 4 4 4 5 5 5 6 9 11
4 4 3 3 3 3 3 4 4 4 4 5 5 5 5 6 6 6 7 7 8 8 7 7 7 7 7 7 7 7 7 6 5 4 3 3 3 3 4 4 7 10 11
5 5 5 5 5 5 5 5 6 6 6 7 7 7 7 8 8 8 8 9 9 9 8 8 7 7 7 7 7 7 7 6 5 4 3 1 1 2 3 4 7 8 9
5 6 6 7 7 7 7 7 8 8 9 9 9 9 9 10 10 10 10 11 10 10 10 9 9 8 8 8 7 7 6 6 5 5 3 1 1 0 1 3 5 6 8
6 7 7 8 8 9 9 10 10 11 11 11 11 11 11 12 12 12 12 12 12 11 11 11 10 9 9 9 8 8 7 7 6 6 4 2 2 1 1 2 4 6 7
7 8 9 10 11 11 12 12 13 13 13 13 13 13 13 13 14 14 14 13 13 13 13 12 11 11 10 10 9 9 8 8 7 7 6 4 3 2 2 2 3 4 6
9 10 10 11 12 13 13 14 15 15 15 15 14 14 15 15 15 15 15 15 15 14 13 13 12 11 11 10 10 10 10 10 9 8 8 7 5 4 3 3 3 4 5
10 12 12 13 14 14 15 16 17 17 17 17 17 17 17 17 18 18 17 17 16 15 15 14 13 13 12 12 12 11 11 11 11 10 9 9 8 6 5 5 5 5 5
13 14 15 15 15 16 17 18 19 19 19 19 20 19 19 19 20 20 20 20 19 18 17 16 15 15 14 14 14 13 13 12 12 12 11 11 10 9 8 7 6 6 6
14 15 16 16 17 18 18 20 21 22 22 21 22 22 22 22 23 23 22 22 22 20 20 19 17 16 16 15 15 14 14 14 14 13 12 12 13 12 11 10 9 8 8
17 17 18 18 18 19 19 21 22 22 23 23 24 25 25 25 24 24 24 24 24 22 21 21 20 19 18 17 16 15 15 15 15 14 13 14 15 14 14 13 12 11 11
19 20 19 19 19 19 19 21 21 21 20 21 22 22 22 24 23 22 22 22 22 22 22 22 22 21 20 19 18 17 17 17 16 16 14 15 15 17 17 17 16 15 14
20 21 21 20 20 19 19 20 20 19 20 20 19 19 19 20 20 21 21 21 21 21 21 23 22 22 21 20 20 19 18 17 18 18 15 16 16 18 19 20 20 19 17
21 21 20 20 20 19 20 19 18 18 17 18 17 17 18 18 19 19 20 21 20 19 19 21 21 21 20 20 19 18 18 17 17 18 17 16 17 18 19 21 22 22 21
21 20 19 19 19 19 19 17 16 16 17 16 16 17 18 18 17 17 18 18 18 18 19 20 21 21 21 21 21 19 18 18 18 18 18 18 18 18 20 22 23 25 25
20 19 18 18 18 19 17 15 15 15 16 16 17 18 18 18 18 18 18 19 19 19 19 20 20 21 22 22 21 20 20 20 20 21 21 20 20 19 20 23 24 25 28
19 18 17 17 17 16 14 14 14 15 15 16 16 17 19 19 19 20 19 20 20 20 21 21 21 21 22 22 22 22 21 21 21 21 22 22 22 22 22 23 25 26 28
18 17 16 15 15 13 12 12 14 14 15 16 17 18 19 19 20 20 20 20 20 21 20 21 21 21 22 23 23 23 23 22 23 23 23 24 23 23 24 24 25 27 28
17 16 14 13 11 11 11 12 13 14 15 16 17 18 19 19 20 20 20 20 21 21 21 21 21 22 22 23 23 23 23 23 24 25 25 26 25 25 25 25 26 27 28
13 12 10 10 10 11 11 11 12 13 14 15 16 17 18 18 19 20 20 20 21 21 20 21 21 21 22 22 22 22 23 23 24 25 26 26 27 27 27 27 27 27 27
10 9 8 8 9 9 9 10 11 12 13 14 14 14 15 16 17 18 18 18 19 19 19 20 20 21 21 21 22 22 23 23 24 25 26 27 27 28 29 29 29 29 29
7 7 6 6 6 7 8 9 10 10 11 11 12 13 14 15 16 16 16 17 17 17 17 18 18 19 20 21 21 22 22 23 23 24 26 27 28 29 30 31 31 32 31
3 3 3 4 5 6 7 9 10 11 11 12 12 13 14 15 15 15 16 16 16 16 16 17 17 18 19 20 21 21 22 23 24 25 26 27 28 29 30 31 32 33 34
1 0 2 4 5 7 9 10 11 12 13 14 14 15 15 16 16 16 16 16 16 16 17 17 17 18 19 20 20 21 22 23 24 25 26 27 28 29 30 31 32 34 35
3 3 4 6 8 9 10 11 13 14 14 15 16 16 16 16 16 17 17 18 18 18 18 19 19 20 20 21 22 22 23 24 25 26 27 28 28 30 31 32 33 34 35
4 5 6 8 9 11 12 13 14 15 16 17 17 17 17 17 17 18 19 19 20 20 20 21 21 22 23 24 24 25 25 26 27 28 29 30 31 31 31 32 34 35 35

GEFSSE_500_meanwind_060.txt.gz
Wind_Speed
3 4 4 4 3 3 3 2 2 2 2 3 4 5 5 6 6 7 8 8 9 9 9 9 9 8 8 9 9 9 9 9 8 8 7 7 7 6 5 6 8 10 11
3 4 3 3 3 3 2 1 1 1 2 3 4 5 6 6 7 8 8 8 9 10 10 9 9 8 8 8 8 8 8 8 7 7 6 6 6 6 5 6 7 9 10
3 3 2 2 2 2 1 0 0 2 3 4 5 6 6 7 8 8 9 9 10 10 10 10 9 9 8 8 7 7 7 7 6 6 6 5 5 5 5 6 7 9 10
3 3 2 2 2 1 1 1 1 2 4 5 6 6 7 8 8 9 9 10 10 10 11 11 11 10 9 8 8 7 6 6 5 5 4 4 4 4 5 6 7 8 9
2 2 2 2 1 1 2 2 3 3 5 5 6 7 7 8 9 10 10 11 11 11 11 12 12 11 10 8 8 7 6 5 5 4 3 2 2 3 4 5 7 8 9
2 1 1 1 2 2 3 4 4 5 6 7 8 8 9 10 10 11 11 12 12 12 12 13 12 12 11 9 8 7 6 6 5 4 3 1 0 2 3 5 6 7 9
1 1 1 2 3 4 4 5 6 7 8 9 9 10 11 11 12 13 13 14 14 14 14 14 13 13 12 11 10 9 8 7 6 5 4 2 2 3 4 5 6 7 9
1 2 3 4 5 6 6 7 8 9 10 11 12 13 13 14 14 15 15 16 16 16 16 16 15 15 14 13 12 10 9 8 7 6 6 5 4 5 6 6 7 8 9
3 4 5 6 7 7 8 9 10 12 13 14 15 16 16 16 17 18 18 18 18 18 18 18 18 17 16 15 14 12 11 10 9 8 7 7 6 7 8 8 8 9 9
5 6 7 8 9 9 10 11 12 14 15 16 17 17 17 18 18 19 20 20 20 20 20 20 20 20 18 17 16 14 13 11 10 10 9 9 8 9 10 11 10 10 10
7 8 9 10 11 11 11 13 14 15 16 17 17 17 17 17 18 19 19 19 19 20 19 19 20 21 20 19 18 17 16 14 12 11 11 11 10 10 11 13 13 12 12
9 9 11 12 12 12 13 13 14 15 16 17 17 17 17 17 17 17 17 17 18 18 18 19 19 20 20 20 20 19 18 16 14 13 12 13 12 11 12 13 15 15 14
9 10 11 12 12 13 13 14 14 15 16 16 16 16 15 15 15 16 16 16 17 17 18 18 17 17 18 19 20 20 19 18 16 15 14 14 14 14 14 15 16 16 16
9 10 11 11 12 12 13 13 14 14 14 14 14 14 14 14 14 14 14 15 15 15 15 16 16 16 17 17 19 19 19 19 17 16 16 16 16 16 15 16 17 18 18
11 11 12 12 12 12 13 13 13 13 12 12 13 13 13 14 14 14 14 15 15 14 14 14 14 15 16 16 18 18 18 18 17 17 16 16 17 17 16 17 18 19 20
11 11 11 11 11 12 12 12 12 12 11 11 11 12 12 13 13 13 14 14 14 15 15 15 15 15 16 16 17 18 19 19 18 18 18 17 17 17 16 17 18 20 22
11 10 10 10 11 11 10 11 10 9 9 10 11 11 12 12 12 12 13 13 14 14 15 15 15 15 16 16 17 18 19 20 20 19 19 19 19 18 18 18 19 20 23
10 10 11 10 10 10 9 8 8 8 9 10 11 11 11 12 12 12 12 13 13 13 13 14 14 15 16 16 17 18 19 20 21 21 20 20 20 20 20 19 20 21 22
11 11 10 9 8 8 7 7 7 7 8 9 9 9 9 10 10 10 10 11 11 12 12 13 13 14 15 16 17 17 19 20 20 21 22 21 22 22 22 22 21 21 23
9 9 8 6 6 5 5 5 6 6 7 7 7 7 8 9 9 9 9 10 10 11 11 11 11 12 13 14 15 17 18 18 19 20 21 22 22 23 23 24 23 23 23
7 7 7 4 4 4 3 3 4 4 5 6 6 7 7 8 8 8 9 9 9 10 10 10 10 11 12 13 14 15 16 18 19 20 21 22 22 23 24 25 25 25 25
6 5 5 3 2 2 2 2 2 3 4 5 6 7 7 7 8 8 9 9 9 9 9 9 10 10 11 11 13 14 15 16 17 18 19 21 22 23 24 25 26 27 27
5 5 4 4 2 2 1 1 2 3 4 5 6 7 7 8 8 9 9 10 10 10 10 10 11 11 11 12 13 14 15 15 16 17 18 19 21 22 24 25 26 27 28
5 5 5 4 3 2 1 1 2 3 4 5 6 7 8 9 9 10 10 10 11 11 11 12 12 13 13 13 14 15 16 17 17 18 19 20 21 22 23 25 26 28 29
5 5 5 4 3 1 1 2 2 3 5 6 7 9 10 10 11 11 11 11 12 12 13 13 14 14 15 15 15 16 17 18 19 20 21 21 22 23 24 25 26 28 29
5 5 4 3 2 1 1 2 3 4 6 7 8 9 10 11 12 12 13 13 14 14 15 16 16 17 17 18 18 18 19 19 20 21 22 23 24 25 25 26 28 29 30

GEFSSE_500_meanwind_066.txt.gz
Wind_Speed
4 5 5 5 4 4 5 5 5 5 5 5 4 3 3 4 4 5 6 7 8 8 9 8 8 8 8 9 9 9 9 8 8 8 7 7 6 6 5 7 9 11 12
5 6 6 5 5 4 4 4 4 4 3 3 2 2 2 3 3 4 5 6 7 8 8 8 8 8 7 8 8 8 8 7 7 7 6 6 6 6 5 7 9 11 11
5 6 7 6 4 4 3 3 3 2 1 1 1 2 2 3 4 5 5 6 7 7 8 8 8 7 7 6 7 7 6 6 6 6 5 5 6 5 5 7 9 11 11
7 7 7 6 5 4 3 3 2 1 1 1 2 3 4 4 5 6 6 7 7 7 8 8 8 7 7 6 6 5 5 5 5 5 4 4 4 4 5 6 8 10 11
7 8 7 6 5 5 4 3 2 1 2 3 3 4 5 6 7 7 8 8 8 9 9 9 8 8 7 6 5 5 5 4 4 3 3 3 3 3 4 6 8 9 10
8 9 7 6 5 5 4 4 3 3 3 4 5 5 6 8 9 9 10 10 10 10 10 10 9 9 7 6 6 5 4 4 3 3 2 1 1 2 4 5 7 8 9
10 9 8 6 5 4 4 4 4 4 5 6 7 8 9 10 11 12 13 13 13 12 12 11 10 10 9 8 7 6 5 4 4 3 2 1 0 2 4 4 6 7 9
11 10 8 6 5 4 5 5 5 6 7 8 9 10 11 12 13 14 14 15 15 15 14 13 12 11 10 9 8 7 6 5 5 4 3 3 2 3 4 4 6 7 9
11 10 9 7 6 5 6 6 7 8 9 10 11 12 13 14 15 15 15 15 16 17 16 15 14 13 12 11 10 9 8 7 6 6 5 5 4 4 5 5 6 8 9
12 11 9 8 7 7 7 8 9 10 11 12 13 13 14 15 16 16 16 16 17 17 17 16 15 14 14 13 12 11 10 9 8 7 7 6 6 6 6 7 8 9 10
14 12 9 8 8 8 9 9 10 11 12 13 14 14 15 15 16 16 16 16 16 16 16 16 15 15 15 13 13 12 12 11 10 9 9 8 8 8 8 9 10 11 11
16 14 11 9 9 9 10 10 11 12 13 13 14 14 15 15 15 15 15 15 15 15 15 15 15 15 14 13 12 12 12 12 11 10 10 10 10 10 10 11 12 13 13
16 15 12 10 10 11 11 11 12 13 13 13 13 13 14 14 14 13 13 13 14 14 14 14 15 15 14 13 12 11 11 12 12 12 12 12 12 12 12 12 13 15 15
16 15 13 12 11 11 11 11 12 12 12 12 12 12 12 12 12 12 12 13 13 12 12 13 13 14 14 14 13 12 12 12 13 14 14 14 14 14 14 14 15 16 17
17 16 15 13 12 11 11 11 11 12 12 12 12 12 11 11 11 11 12 12 12 12 12 12 13 13 14 14 14 13 12 12 13 14 14 14 14 14 15 16 17 18 19
17 15 14 13 11 10 10 10 11 10 11 11 11 11 10 10 10 10 11 11 11 12 12 12 13 13 13 13 13 13 13 13 13 14 15 14 15 15 15 16 17 18 20
16 14 13 11 10 9 9 9 9 9 9 10 10 10 9 9 9 9 9 10 10 10 11 11 12 12 12 13 13 13 13 13 14 15 15 15 15 16 16 16 18 19 20
15 14 13 11 10 8 8 8 8 8 8 8 7 7 7 6 7 7 8 8 8 9 9 10 11 11 12 12 12 13 13 13 13 15 16 16 16 17 17 17 18 18 20
15 14 13 11 9 7 6 6 6 6 5 4 4 5 5 5 5 6 7 7 7 8 9 9 10 10 11 11 12 12 13 13 13 14 15 16 17 18 18 18 19 18 19
13 13 12 10 8 7 6 5 4 3 2 2 3 3 4 5 5 6 6 6 7 7 8 8 9 10 10 10 11 11 12 13 13 14 14 15 17 18 18 19 19 20 20
13 12 12 10 9 7 5 4 2 1 1 2 2 3 4 5 5 6 6 6 6 7 7 7 8 9 9 9 10 11 11 12 12 13 13 14 15 17 18 19 20 21 21
12 13 11 9 7 6 5 4 2 1 1 2 2 3 4 4 5 6 6 6 7 7 7 7 8 8 9 9 9 10 10 11 11 12 13 14 15 16 17 19 20 21 22
11 12 11 8 8 6 4 3 2 1 1 2 3 3 4 4 5 5 6 6 6 6 7 8 8 9 9 10 10 10 11 11 12 12 13 13 14 16 17 18 20 21 22
12 12 10 9 8 6 5 4 3 2 2 2 3 3 4 4 4 5 5 6 6 7 8 8 9 9 10 11 11 12 12 12 12 13 14 14 15 16 17 19 20 21 23
11 11 10 9 7 6 5 4 3 3 2 3 3 3 3 3 4 5 5 6 6 7 8 10 10 11 11 12 12 13 14 14 14 14 15 16 17 18 19 20 21 22 23
10 9 8 7 7 6 5 4 3 3 3 3 3 3 3 3 4 4 5 6 7 8 9 11 11 12 13 13 14 15 15 16 17 17 18 18 19 19 20 21 22 23 24

GEFSSE_500_meanwind_072.txt.gz
Wind_Speed
10 9 9 8 8 8 7 7 6 6 6 6 6 5 5 4 4 4 4 4 5 5 5 5 5 5 5 5 5 5 5 6 5 5 4 4 4 4 5 7 10 11 12
10 10 9 9 9 8 8 7 6 6 5 5 4 4 3 3 2 2 2 2 3 3 3 4 4 4 4 4 4 4 4 5 5 5 4 4 4 5 7 9 10 12 13
11 10 9 9 9 8 8 7 7 6 5 4 4 3 2 2 1 0 1 2 2 2 3 3 3 3 3 3 3 3 3 3 4 4 3 3 4 5 6 9 11 12 13
12 10 9 9 9 8 8 8 7 6 5 4 4 3 3 2 2 1 2 2 3 3 3 2 2 2 2 2 2 2 2 2 3 3 3 3 3 4 6 9 10 12 12
12 11 10 9 9 8 8 8 7 6 6 5 5 4 4 3 3 3 3 3 4 4 3 3 3 2 2 1 1 1 1 1 1 2 2 2 3 3 6 7 9 11 12
11 11 9 9 9 9 8 8 7 6 6 5 5 5 4 4 5 5 5 5 5 5 5 4 4 3 2 2 2 2 1 1 0 1 1 1 2 2 5 7 8 10 11
12 11 10 10 9 9 9 8 8 7 6 6 6 6 6 6 6 6 6 6 6 6 6 6 5 5 4 3 4 3 3 3 2 2 2 2 2 3 5 7 8 9 10
14 12 11 10 10 10 9 9 8 7 7 7 7 7 7 7 7 7 7 7 7 8 7 7 7 6 5 5 5 5 4 4 4 3 3 3 3 4 5 7 7 8 9
14 13 12 11 11 10 10 9 8 8 8 8 8 8 8 8 8 9 8 8 8 8 8 8 8 8 7 6 6 6 6 5 5 5 5 5 5 5 6 7 7 8 10
15 14 14 13 12 11 10 9 9 8 8 8 8 9 9 9 9 9 9 9 9 9 9 9 8 8 8 7 7 7 7 7 7 7 7 7 7 7 7 8 8 9 10
17 16 15 14 13 12 11 10 10 9 9 9 9 9 10 10 10 10 10 10 9 9 9 8 8 7 8 8 8 7 8 8 8 9 8 8 8 8 9 9 9 10 11
19 18 17 16 14 13 12 11 11 10 10 10 10 10 10 10 10 10 10 9 8 8 8 7 7 6 7 7 7 7 8 9 10 10 10 10 9 9 10 11 11 11 12
22 20 19 17 15 14 13 12 11 10 10 9 9 9 9 10 10 10 9 9 8 8 7 7 7 6 6 7 7 8 8 9 11 11 11 11 11 11 11 12 12 12 12
23 22 20 18 17 16 15 13 11 10 10 10 9 10 10 10 9 9 8 8 8 7 7 7 6 7 7 7 8 8 9 9 11 11 12 12 13 13 13 13 13 14 13
25 24 22 20 19 17 15 13 11 10 10 9 9 9 9 9 8 7 7 7 7 7 7 7 7 7 7 7 8 9 9 10 10 11 12 12 13 14 14 15 15 15 15
26 25 24 22 20 18 15 12 11 9 9 8 8 8 8 7 6 6 6 6 6 6 6 6 6 6 6 7 7 8 9 10 11 11 12 12 13 13 14 14 15 15 15
27 26 24 23 21 18 15 13 11 9 8 7 7 7 6 5 5 5 5 5 5 5 5 6 6 6 6 6 6 7 8 9 10 11 12 13 13 13 13 13 14 15 16
28 27 24 23 21 19 16 14 11 9 8 6 6 5 4 4 4 3 3 3 4 4 5 5 5 4 5 5 5 6 7 8 9 11 12 13 13 13 13 14 14 15 15
27 26 24 23 20 17 16 14 11 9 7 6 5 4 3 3 2 2 2 2 2 2 3 3 3 3 4 4 4 5 5 7 8 9 10 12 13 14 14 14 15 15 16
24 24 23 22 19 16 14 12 10 8 7 6 4 3 2 2 1 1 1 1 1 2 2 2 2 3 3 4 4 4 5 6 7 9 10 11 12 13 14 15 15 16 17
20 21 22 21 19 16 13 11 9 8 7 6 5 4 3 2 1 1 0 1 1 2 2 2 2 3 3 3 3 3 4 5 6 8 9 10 11 12 13 14 15 16 17
19 19 19 18 17 15 13 10 9 9 8 6 5 4 3 2 1 1 1 1 1 2 2 2 3 3 3 3 3 3 4 5 6 7 8 9 11 12 13 14 15 16 16
16 17 17 16 16 14 12 10 10 9 8 6 5 4 3 3 2 1 1 1 1 2 2 3 3 3 3 3 3 4 5 5 6 7 8 9 10 11 12 13 14 16 16
15 15 15 15 15 14 12 11 10 9 8 7 6 5 4 3 2 2 1 1 1 1 2 3 3 4 4 4 4 5 6 7 8 8 9 10 11 12 13 14 15 15 16
12 13 14 14 13 12 12 10 10 9 8 7 6 5 4 4 3 3 2 2 1 1 2 3 4 4 5 5 6 6 7 8 9 10 10 11 12 13 14 15 16 17 17
12 13 13 13 12 12 11 10 10 9 8 7 6 6 5 5 4 4 4 4 3 3 4 4 5 6 7 7 8 9 9 10 10 11 12 13 13 14 16 17 18 18 19

GEFSSE_500_meanwind_078.txt.gz
Wind_Speed
11 10 9 9 8 7 6 5 5 5 4 4 3 2 2 1 0 1 2 2 3 3 3 4 4 4 4 4 4 5 5 6 6 5 5 4 4 4 4 5 7 9 11
11 11 10 10 9 8 7 7 6 6 5 5 4 3 3 2 1 1 1 1 2 2 3 3 3 3 3 3 3 4 4 5 5 5 5 5 4 4 4 7 9 10 10
11 11 10 10 9 8 8 7 7 6 6 6 5 4 4 3 2 2 2 2 3 3 3 3 3 2 2 2 3 3 3 4 4 4 4 4 4 5 6 7 9 9 10
12 11 10 10 9 9 9 8 7 7 6 6 5 5 4 4 4 4 4 4 4 4 4 3 3 3 3 3 2 2 3 3 3 4 4 3 4 5 6 7 8 8 10
12 12 11 11 10 10 10 9 8 7 7 7 6 6 5 5 5 5 5 5 5 5 5 4 4 4 4 3 3 3 2 2 3 3 3 3 4 5 5 7 7 8 9
13 12 12 12 11 11 10 9 9 8 8 7 7 6 6 6 6 7 7 7 6 6 6 5 5 5 5 5 4 4 3 3 3 2 2 2 2 4 5 6 7 8 8
14 13 13 13 12 11 10 10 9 9 8 8 8 7 7 7 8 8 8 8 7 7 7 7 6 6 6 6 6 5 4 4 4 3 2 1 1 2 4 5 6 7 7
14 15 14 14 12 11 11 11 10 9 9 9 9 8 8 8 8 8 9 9 8 8 8 8 7 7 7 7 7 7 6 5 5 4 3 2 1 1 3 4 6 6 7
14 15 16 14 13 12 12 11 11 10 10 10 10 9 9 9 9 9 9 9 9 9 9 9 9 9 9 9 9 9 8 7 6 6 5 4 3 2 3 5 5 6 7
15 16 16 15 14 14 13 12 12 12 11 11 11 10 10 10 10 10 10 10 10 10 10 10 10 10 9 10 10 10 9 8 8 7 6 5 4 4 5 5 6 7 7
17 17 17 16 15 15 14 14 13 13 12 12 11 11 11 11 10 10 10 10 11 10 10 10 10 9 9 9 10 10 10 9 8 8 7 7 6 6 6 6 7 7 7
19 19 18 18 17 16 15 14 14 14 13 12 12 12 11 11 11 11 11 11 11 10 10 9 9 8 8 9 9 9 9 9 9 8 8 8 8 7 7 7 8 8 8
20 20 19 18 17 16 16 14 14 14 14 13 12 12 11 11 11 10 11 10 10 9 9 8 8 8 8 8 8 8 8 8 8 9 9 9 10 9 8 8 9 9 9
22 22 21 20 18 17 16 15 15 15 13 13 12 12 11 11 11 10 10 9 9 8 8 7 7 7 7 7 7 7 8 8 8 9 11 10 10 10 9 9 10 10 11
24 23 22 21 20 18 16 15 15 14 13 12 12 12 11 10 10 9 8 8 7 7 7 7 6 6 7 7 7 7 7 8 8 8 10 9 10 10 10 10 11 11 12
24 24 22 21 20 18 17 15 14 14 13 12 11 11 10 9 9 8 7 7 6 6 6 6 5 6 5 6 6 6 7 7 8 7 8 8 9 10 10 11 11 12 12
22 23 22 23 21 19 18 17 15 13 12 10 10 9 8 8 8 7 6 6 6 5 5 5 4 4 4 4 5 5 6 6 7 7 7 7 9 9 10 11 11 12 13
22 22 21 22 21 20 19 17 15 13 11 10 9 8 7 7 6 6 5 5 4 3 3 3 3 3 3 3 3 4 4 5 5 6 6 6 7 8 9 10 10 10 11
21 22 21 22 21 20 19 16 14 13 11 10 8 8 6 5 5 4 3 2 2 2 2 2 2 2 2 2 3 3 3 4 5 6 6 5 6 7 8 9 9 9 10
19 19 20 20 20 19 18 16 14 12 11 9 8 7 5 4 3 2 1 0 0 1 1 1 1 1 2 2 2 2 3 3 4 5 5 5 6 6 8 8 8 9 9
18 20 19 19 19 18 16 15 13 12 11 9 8 7 5 4 3 2 1 1 1 2 2 2 3 3 3 3 3 3 3 3 4 5 5 6 6 6 7 8 8 9 9
17 20 19 18 18 17 16 14 13 12 10 9 8 7 6 5 3 2 2 2 2 3 3 3 3 3 3 4 4 4 4 4 4 5 6 6 7 7 7 7 8 9 10
15 17 18 19 17 17 16 14 13 11 10 9 8 7 7 6 4 3 2 2 2 2 2 2 3 3 4 4 4 4 4 5 6 6 6 7 7 8 8 8 9 9 10
11 14 16 17 16 15 14 14 13 11 11 10 9 8 7 6 5 4 3 3 2 1 1 1 2 3 4 4 5 5 6 6 7 7 8 8 8 9 9 9 10 10 11
8 11 14 16 15 15 15 14 13 12 12 10 9 9 8 7 6 5 4 3 2 1 1 2 2 3 4 5 6 7 8 8 8 8 8 9 10 10 10 10 11 11 12
5 9 12 14 14 14 14 13 13 13 11 10 10 9 8 8 7 6 5 5 4 4 3 4 4 5 6 7 8 9 9 10 10 10 10 11 11 11 12 12 13 14 13

GEFSSE_500_meanwind_084.txt.gz
Wind_Speed
6 7 7 6 5 4 3 2 2 2 3 4 4 4 4 4 4 4 4 4 5 5 5 5 5 5 5 5 5 4 4 5 5 5 5 4 4 5 6 7 8 10 10
7 7 8 7 6 6 4 3 2 3 4 4 5 5 5 5 5 5 5 5 5 6 6 6 6 6 6 5 5 5 4 4 4 4 5 5 5 5 7 8 10 10 10
7 7 8 8 7 7 6 4 3 3 4 5 5 6 6 6 6 6 6 6 6 6 6 6 6 6 6 6 5 5 4 4 4 4 4 5 5 6 8 9 10 9 9
7 8 9 8 8 7 7 6 4 4 4 5 5 6 6 7 7 7 7 7 7 7 7 7 7 7 7 6 6 5 4 3 3 4 4 4 5 6 8 9 9 9 9
7 9 9 9 9 8 8 7 6 5 5 5 5 6 6 7 7 8 8 8 8 8 8 8 7 7 7 6 6 5 4 4 3 2 3 4 5 6 7 8 9 9 9
8 9 10 10 10 9 9 8 7 6 6 5 6 6 7 8 8 9 9 9 9 9 9 8 8 8 7 7 6 5 4 4 2 2 3 4 4 5 6 8 9 9 9
10 10 11 11 11 11 10 9 8 7 6 6 6 7 8 8 9 9 9 9 9 9 9 9 9 8 8 7 6 5 4 4 3 1 1 2 3 4 6 8 9 10 9
11 11 12 12 12 12 11 10 9 8 7 6 6 7 8 9 10 10 10 9 9 9 9 9 9 9 9 8 7 6 6 5 5 3 2 2 3 5 6 7 8 9 9
13 13 13 13 13 13 12 11 9 9 8 7 7 8 9 9 10 10 10 10 10 10 10 9 10 10 10 9 8 7 7 6 6 4 3 3 4 5 6 7 8 8 8
13 14 14 14 14 13 12 12 10 10 9 8 8 9 9 10 10 10 10 10 10 10 10 10 11 10 10 9 8 7 7 6 7 5 4 4 5 5 6 7 8 8 8
14 14 15 16 16 15 14 13 12 10 10 9 9 9 10 10 10 10 10 11 11 11 11 11 11 10 10 9 8 6 6 6 7 5 4 5 5 6 6 7 7 7 8
16 16 17 17 17 16 15 14 13 11 10 10 9 9 9 9 9 10 10 10 10 10 10 10 10 10 9 8 7 7 6 6 5 5 5 5 6 6 7 7 7 8 8
17 18 18 19 19 17 16 15 13 11 10 10 10 9 9 9 9 10 10 9 9 9 9 9 8 8 8 8 7 7 6 6 6 5 5 5 6 7 7 8 8 8 8
17 19 20 19 19 19 17 15 14 13 12 11 10 9 9 9 9 9 9 8 8 8 8 8 7 7 7 8 7 6 6 6 6 5 5 5 6 7 8 8 8 8 9
19 20 20 22 22 21 18 16 15 13 12 10 9 9 9 8 8 7 7 7 6 6 6 7 6 6 7 7 6 5 5 5 6 6 6 6 5 7 8 8 8 8 9
16 19 20 22 22 22 19 17 16 14 12 10 9 9 8 7 7 6 6 6 6 5 5 6 6 6 6 6 5 4 4 4 4 5 5 5 6 7 8 8 8 9 9
16 17 19 20 22 21 19 17 15 14 12 10 8 8 7 6 6 5 5 5 4 5 5 5 5 5 4 4 4 3 2 2 2 4 4 5 5 6 7 8 8 8 9
15 16 16 18 20 21 20 18 16 14 12 11 9 8 7 6 5 4 4 3 3 4 4 3 3 3 3 2 2 2 1 1 2 2 2 3 4 4 5 6 7 7 7
12 14 16 17 18 19 19 18 16 14 13 10 9 8 7 6 5 4 3 3 2 2 2 2 2 2 1 1 1 1 1 1 1 1 1 1 2 2 4 5 5 5 5
12 14 17 17 18 19 18 17 16 15 13 11 10 8 7 6 5 4 3 3 3 2 2 2 2 1 1 0 1 1 1 1 1 0 0 1 1 1 1 3 4 5 5
11 13 17 17 17 18 18 17 16 15 13 12 11 9 8 7 6 5 4 4 4 4 4 4 4 3 2 2 2 2 2 2 2 1 1 1 1 1 1 2 3 4 5
8 12 15 17 18 19 18 17 16 15 14 13 12 10 9 9 7 6 6 5 5 5 5 5 4 4 4 3 3 3 2 2 2 2 2 1 1 1 1 1 2 3 4
8 12 14 14 16 18 18 17 17 15 14 14 13 12 11 10 9 8 7 7 6 6 5 5 5 4 4 3 3 2 2 2 2 2 1 1 1 1 1 2 3 4 4
6 10 14 15 16 17 17 18 17 15 14 14 14 13 12 11 10 9 8 7 7 6 5 5 4 4 3 2 2 1 1 1 1 1 1 1 1 1 2 2 3 4 5
4 8 12 13 16 17 17 16 16 15 15 15 14 13 13 12 11 10 9 8 8 7 6 5 4 4 3 2 2 1 1 1 1 1 2 2 2 2 3 3 4 5 6
3 6 9 12 15 17 17 16 16 16 16 15 15 14 14 13 12 12 11 10 9 8 7 6 6 5 4 4 4 3 3 3 3 3 4 5 5 5 5 5 6 7 8

GEFSSE_500_meanwind_090.txt.gz
Wind_Speed
7 7 7 7 8 8 7 7 6 6 5 4 4 4 5 6 7 7 8 8 9 8 8 8 8 8 8 8 7 7 6 6 5 5 4 4 4 5 6 7 8 8 9
8 8 8 9 9 8 7 7 6 5 5 3 3 3 4 5 6 7 8 8 9 9 9 8 8 8 8 8 7 7 6 5 5 5 4 4 4 5 6 7 8 9 9
8 9 9 10 10 9 8 7 6 5 4 3 2 3 4 5 6 7 8 9 9 9 9 9 8 8 8 7 7 6 6 5 5 4 4 4 4 5 7 8 8 9 8
8 9 10 11 11 10 9 8 6 5 4 3 2 2 3 5 6 7 8 9 9 9 9 9 8 8 7 7 6 6 5 5 5 4 4 3 4 6 7 7 8 8 8
9 10 11 12 11 11 10 8 7 6 4 3 1 2 3 5 7 8 9 9 9 9 9 9 8 8 7 6 5 5 5 4 4 4 4 3 4 5 6 7 7 7 8
9 11 12 13 12 11 10 9 7 6 4 3 1 1 3 5 7 8 9 9 9 9 9 8 8 7 7 6 5 4 4 3 3 3 3 3 4 5 6 7 7 7 7
10 12 13 13 13 12 11 10 8 7 5 3 2 1 4 6 7 8 8 9 9 9 9 8 8 7 6 5 5 4 4 3 3 2 2 3 3 4 5 6 7 7 7
12 14 13 13 13 13 12 11 9 8 6 4 2 2 4 6 7 8 8 8 9 9 8 8 8 8 7 6 4 3 3 3 2 1 1 2 3 5 5 6 7 7 7
13 14 14 14 14 13 12 11 10 9 7 5 3 3 4 6 7 8 8 8 8 8 8 8 8 8 7 6 4 4 3 2 1 1 2 2 3 5 6 6 6 6 7
14 15 16 15 15 14 13 12 11 10 9 7 5 4 5 6 7 8 8 8 8 8 8 8 8 7 7 6 5 4 3 2 2 2 3 3 4 5 6 7 7 7 7
13 15 16 17 15 14 13 13 12 11 10 8 7 5 5 6 7 8 8 8 8 8 8 8 7 6 6 5 5 4 3 3 3 3 4 5 6 6 7 8 8 8 8
14 15 16 17 16 15 14 13 13 12 10 9 8 7 6 7 7 8 8 8 8 8 8 7 6 5 5 5 4 3 4 3 3 3 4 6 6 8 8 9 9 8 9
15 16 17 17 16 16 15 14 13 13 12 11 9 8 8 7 7 8 8 8 8 8 7 6 4 4 4 3 3 3 4 4 3 4 5 6 7 8 9 9 9 9 9
15 17 17 19 18 18 17 16 15 14 13 12 11 9 8 8 8 8 8 8 8 7 7 6 4 3 3 3 3 3 4 4 5 5 6 6 7 8 9 10 10 10 10
14 17 18 20 20 19 18 18 16 15 13 11 11 10 9 8 8 8 8 8 8 7 6 5 4 3 3 3 3 3 4 4 5 5 5 6 7 8 9 10 11 11 11
14 16 18 21 22 21 19 19 18 17 14 12 11 10 9 8 8 8 8 7 7 6 5 5 4 3 2 2 2 3 3 3 4 5 5 6 7 7 8 10 11 11 11
12 15 16 21 23 22 21 20 19 18 16 14 12 11 9 8 8 8 7 6 6 5 4 4 3 2 2 2 2 2 2 2 3 4 5 5 6 6 7 9 11 11 11
12 14 16 18 22 23 22 20 19 18 16 15 12 10 9 8 8 7 6 5 5 4 4 3 3 2 1 1 1 2 2 2 2 3 4 4 5 6 6 7 9 10 10
12 14 17 18 21 22 23 23 21 18 17 15 13 11 9 9 8 6 5 4 4 4 3 3 2 1 1 1 1 2 2 2 2 2 3 3 3 4 5 6 7 8 8
12 15 18 19 20 22 23 23 22 20 18 16 14 12 11 9 8 7 6 5 4 4 3 2 2 2 2 2 2 2 2 2 2 2 2 2 2 3 4 5 5 6 6
11 14 18 19 18 20 22 21 21 21 19 17 15 13 12 10 9 8 7 5 4 3 2 2 2 2 2 2 2 2 2 2 2 2 2 2 2 2 3 4 4 5 5
10 12 16 19 19 19 21 22 22 21 20 18 16 14 13 12 10 8 7 6 5 4 3 2 2 2 2 2 2 2 2 2 2 2 2 2 2 2 2 3 4 4 5
7 10 14 18 20 21 22 22 22 21 19 18 16 15 13 12 11 9 8 7 6 5 4 3 3 2 2 2 1 1 1 2 2 2 2 2 2 2 2 3 3 4 5
7 10 13 17 20 21 21 22 22 21 19 18 17 15 14 12 11 10 9 9 8 7 6 5 4 3 3 2 2 2 2 2 2 2 2 2 2 2 2 3 4 4 5
6 10 12 16 19 20 21 21 22 21 19 18 17 15 14 13 12 11 11 10 9 8 8 7 6 5 4 3 3 2 2 3 3 3 3 3 3 3 4 4 5 5 6
4 8 12 14 16 19 21 22 21 20 20 18 17 15 15 14 13 12 12 12 11 10 9 8 8 7 6 6 5 5 5 5 5 5 5 5 5 6 6 6 7 7 8

GEFSSE_500_meanwind_096.txt.gz
Wind_Speed
11 11 11 11 11 10 10 9 9 9 9 8 8 8 7 7 7 7 7 7 7 7 6 6 6 5 5 5 4 4 4 4 4 3 3 4 4 5 6 7 8 8 8
10 12 12 12 12 11 11 10 9 9 8 8 8 7 7 6 6 6 6 7 6 6 6 5 5 5 5 5 4 4 4 4 4 4 4 4 5 5 6 8 8 8 8
11 12 13 13 13 12 12 11 10 9 8 8 8 7 6 5 5 6 6 6 6 5 5 4 4 5 5 5 4 4 4 4 4 4 4 5 5 6 7 7 8 8 8
11 12 13 13 14 13 13 12 11 10 9 8 7 6 5 5 5 5 5 5 5 5 5 4 4 4 4 4 4 4 4 4 4 4 4 5 6 7 7 7 8 8 8
11 12 13 14 14 14 13 13 12 11 10 9 7 6 5 4 4 4 4 4 4 5 4 4 4 4 3 3 4 4 4 3 3 3 4 5 6 7 7 7 8 8 7
11 12 13 14 14 14 13 13 12 11 10 9 8 6 4 3 3 3 3 3 4 4 4 3 3 3 3 3 3 3 3 3 3 4 5 5 6 7 7 8 8 7 7
11 12 14 14 14 14 14 14 13 12 11 10 8 6 4 3 2 2 2 3 3 3 2 2 2 2 2 2 2 2 2 2 3 4 5 6 7 6 7 8 8 8 8
12 13 14 15 16 15 15 15 13 12 11 10 8 6 4 3 2 1 1 2 2 2 2 1 1 1 1 1 2 3 3 3 3 4 5 6 7 7 8 8 8 8 8
12 14 15 16 17 16 16 15 14 13 12 10 9 7 5 3 2 1 1 1 1 1 1 2 2 1 1 1 2 3 3 4 4 5 6 6 7 8 8 9 8 8 8
13 14 16 16 17 17 17 16 15 14 13 11 9 7 5 3 2 1 0 1 1 1 2 2 2 2 1 2 3 4 4 5 5 6 6 7 8 9 9 9 9 8 8
13 15 16 18 18 18 18 17 16 15 13 12 10 8 6 4 3 1 1 1 2 2 2 3 3 2 2 2 3 4 5 5 6 6 7 8 9 9 10 10 10 9 8
13 14 17 19 19 18 18 18 17 16 14 13 11 9 7 5 4 3 2 2 3 3 3 3 3 2 2 2 4 4 5 5 6 7 7 8 9 10 10 11 10 10 9
13 15 17 19 20 20 19 19 18 17 15 14 12 10 8 7 5 4 3 3 4 4 4 3 3 2 2 2 3 4 5 6 6 7 8 8 9 10 10 11 12 11 11
14 16 17 20 21 21 21 20 19 17 16 14 13 11 9 7 6 5 4 4 4 5 4 4 3 3 3 3 3 4 5 6 6 7 8 8 8 10 11 11 12 12 11
14 16 19 22 23 23 22 21 19 18 16 15 13 11 10 8 7 5 4 4 5 5 4 4 4 4 4 4 4 4 5 5 6 7 7 8 8 9 11 12 13 13 13
15 16 19 21 24 25 24 23 21 19 18 16 14 12 10 9 7 5 4 4 4 4 4 4 4 4 4 4 4 4 5 5 6 6 6 7 7 8 10 11 12 14 14
13 15 18 20 23 24 23 23 22 20 19 17 15 13 11 9 8 6 4 3 3 3 3 4 4 3 3 3 3 4 4 4 4 5 6 6 6 7 8 9 10 12 12
12 14 18 19 21 23 24 24 23 22 20 18 16 14 12 10 8 6 4 3 3 3 3 3 3 3 3 3 3 3 3 3 4 5 5 6 6 7 7 7 8 10 11
11 12 17 19 21 23 25 25 23 22 21 19 17 15 13 11 8 6 5 4 3 3 3 3 2 2 2 2 2 3 3 3 3 3 4 5 5 5 5 5 6 7 9
9 12 15 19 21 23 24 24 23 23 21 20 18 15 13 11 9 7 6 4 3 3 3 3 2 2 2 2 3 3 3 3 3 3 3 3 4 4 5 5 5 6 7
9 11 15 18 21 22 23 23 24 23 21 20 19 16 14 12 10 8 7 6 4 3 4 3 3 2 2 2 2 2 2 2 2 2 2 3 3 4 4 4 5 5 5
9 11 13 17 20 21 21 23 24 23 22 21 20 17 15 13 11 9 8 7 6 5 5 4 4 3 3 2 2 2 2 2 2 2 2 3 3 4 4 4 4 5 5
9 10 13 16 19 21 22 22 23 22 22 22 19 18 16 14 12 10 9 8 7 6 6 5 5 4 3 3 2 2 2 2 2 3 3 3 3 3 4 4 4 5 6
8 10 12 15 18 21 23 22 22 22 22 22 20 18 17 15 14 12 10 9 8 8 7 6 6 5 4 4 3 3 3 3 3 3 3 3 4 4 4 5 5 6 6
6 8 11 14 17 20 23 22 22 22 23 23 20 18 17 16 15 13 12 11 10 9 9 8 7 7 6 5 4 4 4 5 5 5 5 5 6 6 6 6 7 7 7
4 7 10 13 15 18 21 21 22 22 23 23 21 19 18 17 15 14 14 12 12 11 10 10 9 8 7 7 6 6 6 6 7 7 7 7 8 8 8 8 9 9 10

GEFSSE_500_meanwind_102.txt.gz
Wind_Speed
8 9 10 9 9 9 8 7 7 6 6 5 5 4 3 2 3 3 3 3 3 3 3 3 3 2 2 2 2 2 2 2 2 2 2 2 3 3 4 5 6 6 7
9 10 10 10 11 11 9 8 7 7 6 6 5 4 3 2 2 2 2 2 2 2 2 2 2 2 2 1 1 1 2 2 1 1 1 2 3 3 4 5 6 6 6
10 11 11 11 12 11 10 9 8 7 7 7 6 5 3 2 1 1 1 2 2 2 1 1 1 1 1 1 1 1 1 1 1 1 1 2 3 3 5 5 6 6 6
11 11 12 12 12 12 11 10 9 8 8 8 7 5 4 2 1 0 1 1 1 2 1 1 1 1 1 0 0 0 1 1 1 1 2 3 3 4 5 5 5 6 6
11 12 12 13 13 12 12 11 9 9 9 8 7 6 4 3 2 1 0 1 1 1 1 1 1 0 0 0 1 1 1 0 0 1 2 3 3 4 5 5 5 5 5
10 12 13 13 13 12 12 11 10 9 9 9 8 7 5 4 3 1 1 1 1 1 1 1 1 1 1 1 1 1 1 1 0 1 1 3 4 5 5 5 4 5 5
10 12 13 13 13 13 12 11 11 10 10 9 8 8 6 5 4 2 1 1 1 1 1 1 1 1 1 2 2 1 1 1 1 1 2 2 4 4 5 5 4 4 5
11 12 13 14 14 14 13 12 12 11 10 10 9 8 7 5 4 3 2 2 2 1 1 1 2 2 2 2 2 2 2 1 1 2 2 2 3 4 5 4 4 4 3
12 13 14 14 15 15 14 14 13 13 12 11 10 9 7 6 5 4 3 2 2 2 2 2 2 2 2 3 3 3 3 3 3 2 3 3 3 3 4 4 4 4 4
11 13 15 15 16 16 16 15 15 14 13 12 11 10 8 6 5 4 4 3 3 2 2 3 3 2 3 3 4 4 4 4 3 3 3 3 3 4 4 4 5 5 4
11 12 15 16 16 16 17 16 16 15 14 13 12 11 9 8 7 6 5 4 4 3 3 3 3 3 3 3 3 3 4 4 4 4 4 4 4 5 5 5 5 5 5
13 13 15 15 16 17 18 18 17 16 15 13 12 12 10 9 8 7 6 5 4 4 4 4 4 3 3 3 4 4 4 4 4 5 5 5 5 5 6 7 7 7 6
14 14 15 15 16 18 19 19 19 17 16 14 13 12 11 10 9 7 7 6 5 5 5 4 4 4 3 3 4 4 4 4 5 6 6 6 6 6 6 8 8 8 7
15 15 16 16 16 17 19 20 20 18 17 15 13 12 11 10 9 7 7 6 6 5 5 5 4 4 4 3 4 4 4 4 5 5 6 6 6 6 6 7 8 8 9
15 16 17 17 17 17 19 21 20 18 18 16 14 13 11 10 9 8 7 6 6 5 5 5 4 4 4 3 3 4 4 4 5 5 6 5 7 7 7 7 7 8 9
16 17 17 18 18 19 20 20 21 19 18 16 15 13 12 10 9 8 7 6 5 5 5 4 4 3 3 3 3 3 3 3 4 4 4 4 5 6 7 6 6 7 8
16 17 16 17 17 19 20 20 20 20 18 17 16 14 12 10 9 8 7 6 5 5 4 4 3 3 3 3 3 2 3 3 3 4 4 4 5 6 6 6 5 5 6
15 15 14 15 17 18 20 21 20 20 18 17 16 14 13 11 9 8 7 6 5 4 4 4 3 2 2 2 2 2 2 3 3 3 3 4 4 4 5 5 5 5 5
13 13 13 13 15 16 18 19 20 19 19 18 17 15 14 12 10 8 8 6 5 4 4 3 2 2 2 1 1 1 2 2 2 2 2 2 3 3 4 4 4 5 5
12 12 12 12 14 15 16 18 19 20 19 19 18 16 15 13 11 9 8 7 5 4 4 3 3 2 2 1 1 1 2 1 2 2 2 2 2 3 3 3 3 4 4
12 11 11 11 13 16 16 16 18 18 19 19 19 18 16 14 11 10 9 7 6 5 4 3 3 2 1 1 1 1 1 1 0 1 1 1 2 2 3 3 3 3 4
11 10 10 10 12 14 15 16 17 18 19 19 19 18 16 15 12 10 9 8 6 5 5 4 3 3 2 1 1 1 1 1 0 1 1 2 2 3 3 3 3 4 5
11 10 10 10 11 13 15 16 17 18 19 19 19 19 18 16 13 12 10 9 8 7 6 5 4 4 3 2 1 1 1 1 1 1 1 2 2 3 3 4 4 4 4
10 9 10 11 11 12 14 16 18 18 18 19 19 19 18 16 14 13 11 10 9 9 8 7 6 5 4 3 2 2 2 2 1 2 2 2 3 3 4 4 4 5 5
10 9 10 9 10 12 14 15 17 18 18 19 19 19 18 17 16 14 13 12 12 11 9 8 8 7 6 5 4 4 4 3 3 3 3 4 4 5 5 5 5 5 6
9 9 8 9 9 11 13 14 16 17 17 18 18 18 18 17 16 15 14 14 13 12 11 10 10 9 8 8 7 7 6 6 6 6 6 6 6 7 7 7 7 8 7

GEFSSE_500_meanwind_108.txt.gz
Wind_Speed
3 3 4 5 5 5 4 3 2 0 2 3 4 4 4 5 4 4 4 3 3 3 2 2 2 2 2 2 2 2 2 2 3 3 3 4 4 5 6 6 6 7 7
3 4 4 5 5 5 5 4 3 2 2 3 4 4 5 5 5 5 5 4 4 3 3 2 2 2 2 2 2 2 2 2 3 3 3 3 4 5 5 5 6 6 7
4 5 5 6 6 6 6 5 4 3 3 3 4 5 5 5 6 6 5 4 4 3 3 2 2 2 2 2 2 2 2 2 2 3 3 3 4 4 4 5 6 6 6
3 5 6 6 7 7 7 6 6 5 4 4 4 5 5 6 6 6 5 5 4 3 3 2 2 2 2 2 2 1 1 1 2 2 2 3 4 4 4 5 5 6 6
3 4 6 7 7 8 8 7 7 6 5 5 4 5 5 6 6 6 6 5 4 3 3 3 2 2 2 2 2 1 1 1 1 1 2 3 4 4 5 5 5 5 5
3 5 6 8 8 8 9 8 8 7 6 5 5 5 5 6 6 6 6 5 4 4 3 3 3 3 2 2 2 1 1 1 1 1 2 3 4 4 5 4 5 5 5
4 5 7 9 9 10 10 9 9 8 7 6 5 5 5 6 6 6 6 5 4 4 4 4 3 3 3 2 2 1 1 1 1 1 1 2 3 4 4 5 5 5 5
5 6 7 9 10 11 11 11 10 9 8 7 6 5 5 6 6 6 6 5 5 4 4 4 4 3 3 2 2 2 1 1 0 1 2 2 3 4 4 5 5 5 5
4 5 7 9 10 11 12 12 11 10 9 8 7 6 6 6 6 6 5 5 5 5 4 4 3 3 3 2 2 2 1 1 1 2 2 3 3 4 4 4 5 5 5
5 6 7 10 10 12 12 13 13 11 10 9 8 7 7 6 6 6 5 5 5 5 5 4 4 3 3 2 2 2 1 1 1 2 2 3 3 3 4 4 4 4 5
6 8 8 9 11 12 13 14 14 12 11 10 9 8 8 7 7 6 6 6 5 5 5 4 4 3 2 2 1 1 1 0 1 1 2 3 3 3 4 4 4 4 5
7 7 8 9 11 13 14 15 15 14 13 11 10 9 8 8 7 7 6 6 5 5 5 5 4 3 2 2 1 1 1 1 1 2 2 2 3 4 4 5 5 5 5
9 8 8 9 12 14 16 16 16 15 14 13 11 10 9 8 8 7 6 5 5 5 5 5 4 4 2 2 1 1 1 2 1 2 3 3 4 4 5 5 6 6 6
10 10 9 11 12 14 15 16 17 16 15 14 13 11 10 8 8 7 6 5 5 5 5 5 4 4 2 2 2 2 2 2 2 2 3 3 4 4 4 5 6 6 7
10 10 10 11 12 14 15 16 17 17 17 16 14 13 11 9 8 7 6 5 5 4 4 4 4 4 3 2 2 2 2 2 2 2 2 3 4 4 3 4 5 6 7
10 10 11 11 12 14 15 16 17 17 17 16 15 14 12 10 8 7 6 5 4 4 3 3 4 3 3 3 2 2 2 2 2 2 2 2 3 3 3 3 4 5 6
10 11 12 11 12 13 15 16 16 18 18 18 16 14 13 11 10 9 7 6 4 4 3 3 3 3 3 2 2 2 2 2 3 2 1 2 3 3 3 3 3 4 4
10 11 11 11 12 13 15 16 16 17 19 19 17 15 14 12 11 9 7 6 5 4 3 3 3 3 3 2 2 3 3 3 3 2 2 2 2 3 3 3 3 4 4
11 10 10 9 11 12 14 15 16 16 18 19 17 15 14 13 12 10 8 7 6 5 4 3 3 3 3 3 2 2 2 3 2 2 2 2 2 2 3 3 3 4 4
11 10 9 9 10 12 12 13 16 16 18 18 18 16 15 14 12 11 9 8 7 6 5 4 3 3 3 3 2 2 2 2 1 1 1 2 2 2 3 2 2 3 3
10 9 7 9 8 9 11 12 15 17 18 18 17 17 15 15 14 12 10 9 8 7 6 5 5 4 3 3 3 2 2 2 2 1 1 2 2 2 2 2 2 2 2
11 10 7 6 8 9 12 12 14 15 17 17 18 18 17 15 14 13 12 11 9 8 7 6 6 5 4 4 4 3 3 3 3 2 2 2 2 2 1 1 2 1 2
10 8 7 5 6 9 12 13 13 14 15 16 17 18 17 16 15 15 14 13 11 10 9 8 7 6 5 5 5 4 4 3 3 3 3 2 2 1 1 1 1 2 2
9 7 6 5 6 9 11 13 14 14 15 17 17 18 17 17 17 16 15 14 13 12 11 10 9 8 7 7 6 5 4 4 3 3 3 2 2 2 2 2 2 2 3
8 5 5 6 7 8 11 12 14 15 16 17 18 18 18 17 17 17 17 16 15 13 12 11 11 10 9 8 7 6 5 5 4 4 4 4 4 4 4 4 4 4 4
7 5 4 5 7 8 10 12 13 15 16 18 18 19 19 18 18 18 18 17 16 15 14 13 13 12 11 10 9 9 8 7 7 6 6 6 6 6 6 6 6 6 7

GEFSSE_500_meanwind_114.txt.gz
Wind_Speed
4 4 4 5 5 6 6 6 7 7 8 8 8 8 8 8 8 8 7 7 6 6 5 5 5 5 4 4 4 4 4 4 4 5 5 6 6 6 6 6 7 7 7
3 4 5 5 5 5 5 5 5 6 7 7 7 7 7 7 8 8 7 7 6 6 5 5 5 5 4 4 4 4 4 4 4 4 5 5 5 5 6 6 6 7 7
3 4 5 5 5 5 4 4 4 5 5 6 6 6 6 7 7 7 7 7 6 6 6 5 5 5 4 4 4 4 4 4 4 4 4 4 5 5 5 5 6 6 6
2 4 6 6 5 5 5 4 3 3 4 4 4 5 6 6 7 7 7 7 7 6 6 6 5 5 4 4 4 3 3 3 3 3 3 3 4 4 5 5 6 6 6
2 4 5 6 6 6 5 4 3 3 3 3 3 4 5 6 6 7 7 7 7 6 6 6 5 5 4 4 3 3 3 2 2 3 3 3 4 4 4 5 6 6 6
3 5 6 6 7 6 6 5 4 3 2 2 2 3 4 5 6 6 7 7 7 6 6 6 5 4 4 4 3 3 2 2 2 2 2 3 4 4 4 4 5 5 5
3 5 7 8 8 8 7 6 5 3 2 2 1 2 3 4 5 6 6 6 6 6 6 5 5 4 4 3 3 3 2 2 2 2 3 3 4 3 3 4 4 4 5
4 4 6 8 9 8 8 7 6 4 3 3 1 1 2 4 4 5 5 6 6 5 5 4 4 3 3 3 2 2 2 2 2 2 3 3 3 3 3 3 4 4 5
4 4 6 8 9 9 9 8 7 6 5 3 2 1 1 3 4 4 5 5 5 5 4 4 4 3 3 3 2 2 1 2 2 2 3 3 3 3 3 3 3 4 5
5 5 6 8 10 10 10 10 9 8 7 5 4 2 1 2 3 4 4 4 4 4 4 3 3 3 2 2 2 2 1 2 2 3 3 3 4 3 3 4 3 4 5
7 7 7 8 10 11 11 11 10 9 8 7 5 4 3 2 3 4 4 4 4 3 3 3 3 3 2 1 2 2 1 1 2 3 3 3 4 4 4 4 4 5 5
8 7 7 9 11 12 12 12 11 11 10 8 7 5 4 3 3 4 4 3 3 3 3 3 3 2 2 1 1 0 0 1 2 2 3 3 4 4 4 5 5 6 6
9 7 7 9 10 12 13 13 13 13 12 10 8 7 6 4 4 4 3 3 3 2 2 3 3 2 2 1 0 0 1 1 2 2 2 3 4 5 5 6 6 6 7
9 9 9 9 10 12 13 14 14 14 14 12 11 9 7 6 5 4 3 3 3 2 2 3 3 3 2 2 1 1 1 2 2 2 2 4 4 5 6 6 7 7 8
10 8 8 10 12 13 14 14 14 15 15 14 13 10 9 7 5 4 4 3 3 3 2 3 3 3 2 2 2 2 2 2 3 3 3 4 5 5 5 6 6 8 9
11 7 8 9 12 13 14 15 15 15 16 16 14 12 11 9 7 6 5 5 4 3 3 3 3 3 2 2 2 2 2 2 3 3 4 5 5 5 5 6 7 8 9
10 7 8 9 12 13 14 15 16 16 17 17 16 15 13 12 9 7 7 6 5 5 4 4 3 2 2 2 2 2 3 3 3 3 3 4 4 5 5 6 7 7 7
11 10 10 9 11 14 15 16 16 16 17 18 18 16 15 13 11 10 8 7 6 6 5 3 3 2 2 2 2 2 3 3 3 3 3 4 4 4 5 5 6 6 6
11 10 10 9 9 12 15 15 16 18 19 18 18 17 17 15 13 12 10 8 8 7 5 4 3 3 3 3 2 3 3 3 3 3 3 3 3 4 4 5 5 6 6
11 10 9 8 8 11 14 15 16 18 19 18 17 18 17 16 14 13 11 10 9 8 7 5 4 3 3 3 2 2 3 3 3 3 3 3 3 3 3 4 5 5 6
12 11 9 8 8 9 12 15 16 18 19 19 18 19 18 17 15 14 12 11 10 9 8 7 5 4 3 3 2 2 2 2 3 3 3 3 2 2 2 3 4 5 5
13 10 8 7 7 10 12 15 17 19 20 19 18 19 18 18 17 15 13 12 12 11 9 8 7 5 4 4 3 3 3 3 3 2 2 2 2 2 2 3 3 4 4
13 11 10 9 9 10 11 12 15 16 18 19 18 19 18 18 17 16 15 13 13 12 11 10 8 7 6 5 5 5 4 4 3 3 3 3 3 2 2 2 3 4 4
13 11 8 7 8 10 11 12 14 15 16 17 19 20 19 18 17 16 16 14 14 14 13 12 10 9 8 8 7 6 5 5 5 4 4 4 4 3 3 3 4 4 5
12 10 7 6 7 9 11 12 13 14 15 18 19 19 19 19 18 18 17 16 15 15 14 13 12 11 10 9 9 8 7 7 7 6 6 5 5 5 5 6 6 6 7
11 9 7 6 6 7 10 11 11 13 15 17 19 20 20 19 19 19 19 17 17 16 16 15 14 14 13 12 11 10 10 10 9 9 9 8 8 8 8 8 9 9 9

GEFSSE_500_meanwind_120.txt.gz
Wind_Speed
8 8 8 9 8 8 8 8 9 10 10 11 11 11 11 11 10 10 9 8 7 7 6 6 5 5 5 5 5 5 5 5 5 5 5 5 5 6 6 7 8 8 8
7 8 8 9 8 8 8 8 8 9 10 10 11 10 10 10 9 9 8 8 7 7 6 6 5 5 5 5 5 5 5 5 5 5 5 5 5 6 6 7 7 8 8
6 8 8 9 9 9 8 8 8 9 9 10 10 9 9 9 9 8 8 8 7 7 6 6 5 5 5 5 5 5 5 5 5 5 5 5 5 5 6 6 7 7 7
5 7 8 9 9 9 9 8 8 8 9 9 9 9 8 8 8 8 8 7 7 6 6 5 5 5 4 4 5 5 5 5 5 5 5 4 5 5 5 6 7 7 7
5 6 8 9 9 9 9 8 8 8 8 8 8 8 8 8 8 8 7 7 7 6 6 5 5 4 4 4 5 4 4 4 4 4 5 4 4 4 5 6 6 7 7
3 6 7 9 9 9 9 8 7 8 8 7 8 7 7 7 7 7 7 7 6 6 5 5 5 4 4 4 4 4 4 4 5 5 5 5 4 4 5 6 6 7 7
2 5 7 9 9 10 9 9 8 8 8 7 7 7 6 6 6 7 6 6 6 5 5 5 4 4 4 4 4 4 4 4 4 5 5 5 5 5 5 6 6 6 6
2 4 7 9 10 10 10 9 9 9 8 8 7 6 6 5 6 6 6 5 5 4 4 4 4 4 3 3 3 3 3 4 4 4 5 5 5 5 5 5 5 5 6
3 4 6 9 10 11 11 10 10 10 9 9 7 6 6 5 5 5 5 4 4 4 4 4 4 3 3 2 2 3 3 3 4 4 5 5 5 5 5 5 4 5 5
4 5 6 9 10 11 11 11 11 10 10 9 8 7 6 5 5 4 4 4 3 3 3 3 3 3 2 2 2 2 2 3 4 4 5 5 5 5 5 5 4 5 5
5 5 6 8 10 11 12 12 12 12 11 10 9 8 7 5 5 4 4 3 3 3 3 3 2 2 2 2 2 2 2 3 3 4 4 5 5 5 5 5 4 5 5
6 6 7 8 10 11 12 12 12 13 12 11 10 9 8 6 5 4 4 3 3 3 2 2 2 2 2 2 2 2 2 2 3 3 4 4 5 5 5 5 5 5 5
7 6 7 9 11 12 12 13 13 14 13 12 11 10 9 7 6 5 4 3 3 3 2 2 2 2 2 2 1 1 2 3 3 3 4 4 4 5 5 5 5 5 6
8 6 8 10 11 13 14 14 15 14 14 14 12 11 9 8 6 5 5 4 3 3 2 2 2 2 2 2 2 2 2 3 3 3 4 4 4 5 5 6 6 6 7
8 8 8 9 11 13 15 16 16 16 15 15 14 13 11 9 8 7 6 5 4 3 2 2 2 2 2 2 3 3 3 3 3 3 4 4 4 5 6 6 6 7 8
9 9 8 10 12 12 15 17 17 16 16 16 15 14 13 11 10 8 7 6 5 4 3 2 2 2 2 3 3 3 3 3 3 3 4 4 5 5 5 6 6 7 8
10 9 8 7 9 12 15 17 17 17 17 17 17 15 14 13 11 10 8 7 6 5 4 3 3 3 3 3 3 3 3 3 4 4 4 5 5 5 5 6 7 7 8
11 10 7 6 8 10 13 16 17 18 17 18 18 16 15 14 13 11 10 8 7 6 5 4 3 3 3 3 3 4 4 4 4 4 4 5 5 5 5 6 7 7 7
11 10 7 7 8 9 11 14 15 17 18 18 18 18 17 16 15 13 11 10 9 8 6 5 4 4 3 3 3 3 4 4 4 4 4 4 5 4 5 5 6 7 7
11 10 8 7 7 9 11 13 14 17 18 19 19 18 18 17 16 15 13 12 10 9 7 6 5 4 4 3 3 3 4 4 4 4 4 4 4 4 4 5 5 6 6
10 10 9 8 8 9 10 13 13 15 18 19 19 19 18 17 16 16 15 13 12 10 9 8 7 6 5 5 4 4 4 4 4 4 4 5 5 5 5 5 4 5 5
10 9 9 8 7 7 9 10 12 13 15 17 18 18 18 17 17 16 16 15 13 12 10 9 8 8 7 6 6 5 5 4 3 4 4 4 4 4 5 5 5 5 6
10 10 9 7 7 7 8 9 11 12 14 15 16 17 18 18 18 16 16 16 14 13 11 10 9 9 9 8 7 6 6 5 5 4 4 4 5 5 5 5 5 5 6
10 10 9 8 7 7 7 8 10 12 13 14 15 17 17 18 18 18 17 16 15 14 13 11 11 11 10 10 9 8 8 7 7 6 6 6 6 6 6 7 7 7 8
10 10 9 9 8 7 7 8 10 11 13 14 15 16 17 18 18 18 18 17 16 16 14 13 12 12 12 12 12 11 10 9 9 9 8 8 8 8 8 8 9 9 10
9 8 8 8 7 7 7 8 10 11 12 13 14 16 17 18 19 20 19 18 17 17 16 15 14 14 14 14 14 13 12 12 12 11 11 11 11 11 11 11 11 12 12

GEFSSE_500_meanwind_126.txt.gz
Wind_Speed
5 7 7 7 7 6 6 6 6 6 6 6 6 7 7 7 6 6 6 5 5 5 5 5 4 4 4 3 3 3 3 3 3 3 3 3 4 4 4 4 5 5 6
4 6 6 7 7 6 6 6 6 6 6 6 6 6 6 6 6 6 5 5 5 5 5 4 4 4 3 3 2 2 2 2 3 3 3 3 3 4 4 5 6 5 6
3 4 5 6 6 6 6 6 6 6 6 6 6 6 6 6 5 5 5 5 5 5 4 4 4 3 3 3 2 2 2 2 2 3 2 3 3 4 5 5 5 5 5
3 4 4 5 6 6 6 6 6 6 6 6 6 6 6 5 5 5 5 5 5 5 4 4 4 3 3 2 2 2 2 1 2 2 2 3 3 4 4 4 5 4 4
3 5 5 6 6 6 6 7 6 7 7 6 6 5 5 5 5 5 5 5 5 4 4 4 3 3 3 2 2 2 1 1 1 2 2 2 3 3 3 4 4 4 4
3 4 5 6 7 7 7 7 7 7 7 6 6 6 5 5 4 4 4 4 4 4 3 3 3 3 3 2 2 2 2 2 1 1 1 2 2 3 3 3 3 3 3
3 5 5 7 8 8 8 8 7 7 7 6 6 5 5 4 4 4 4 4 3 3 3 3 3 3 3 2 2 2 2 2 2 1 1 2 2 2 2 2 2 3 2
4 5 5 7 8 9 9 9 8 8 8 7 7 6 5 4 4 4 4 4 3 3 3 3 3 3 3 2 2 2 2 2 2 1 1 1 1 1 2 2 2 3 2
5 5 6 7 9 10 10 10 9 9 9 8 7 6 6 5 4 4 4 3 3 3 3 3 3 3 3 2 2 2 2 2 2 1 1 1 1 1 1 1 1 2 3
5 5 6 7 8 10 11 11 10 10 9 9 9 8 7 6 5 5 4 4 3 3 3 3 3 3 2 2 2 2 2 1 1 1 1 1 1 1 1 1 2 2 3
6 5 6 7 8 10 11 12 12 11 11 10 10 9 8 7 6 5 4 4 3 3 3 3 3 2 2 2 2 1 1 2 1 1 1 1 2 2 2 2 2 2 3
8 8 7 8 8 9 11 12 12 12 12 11 11 10 9 8 7 6 5 4 3 3 3 2 2 2 2 2 2 1 1 2 1 1 1 1 2 2 2 2 2 2 3
10 8 8 8 7 8 10 13 13 13 12 12 11 11 10 9 8 7 6 5 4 3 2 2 3 2 2 2 1 1 1 1 1 2 2 2 2 3 3 3 3 3 3
11 10 8 7 7 8 10 13 14 14 13 13 12 11 11 9 8 7 7 6 4 3 2 2 2 3 3 2 2 2 1 1 1 2 2 2 2 2 3 3 3 4 4
13 10 9 7 8 9 11 13 15 14 13 13 12 12 11 10 9 8 7 6 5 4 3 2 2 3 3 3 3 2 2 2 2 3 3 2 2 3 3 4 4 4 4
14 11 10 8 9 9 10 12 14 15 13 13 13 12 11 9 9 8 7 6 6 5 4 4 3 3 4 4 3 3 3 3 3 4 3 3 3 3 4 5 5 4 5
13 12 10 10 9 9 9 9 12 14 14 13 13 13 12 10 10 9 8 7 6 5 5 4 4 4 4 4 4 4 4 3 3 3 3 4 4 4 5 5 5 5 5
13 12 12 11 8 8 8 9 10 12 14 14 13 13 12 11 10 9 9 8 7 6 6 5 5 5 4 5 5 4 4 4 4 3 4 4 4 4 5 5 5 5 5
14 12 12 12 9 7 7 9 10 11 12 14 14 13 13 13 12 11 11 10 8 8 7 6 5 5 5 5 5 4 4 4 4 4 4 4 4 5 4 4 4 5 5
13 12 12 12 9 7 8 8 8 9 11 12 13 13 14 14 14 12 12 11 10 9 8 7 6 6 5 5 5 5 4 5 5 5 5 4 5 5 5 4 4 4 5
13 12 11 11 10 8 8 8 9 9 10 11 12 14 15 15 15 14 13 12 12 11 10 9 8 7 7 6 6 5 5 5 5 5 5 5 5 5 5 5 5 4 4
13 11 11 11 10 9 8 8 9 9 10 10 11 12 14 15 15 14 14 14 14 13 12 11 10 9 8 7 7 6 6 6 5 6 6 5 5 5 5 5 5 4 4
12 11 11 11 11 10 9 8 8 9 10 11 11 12 13 13 14 15 15 15 15 14 14 13 12 11 10 9 8 8 7 7 7 6 5 6 5 5 5 5 6 6 6
12 11 11 11 10 10 9 8 8 8 9 10 11 12 13 13 14 14 15 15 15 16 15 14 14 13 12 11 10 10 10 9 9 8 7 7 6 6 6 6 7 7 7
12 12 11 10 10 9 9 9 8 8 10 10 11 12 13 14 15 15 15 15 16 16 16 15 15 14 13 13 13 12 12 11 11 11 10 9 9 8 8 9 9 9 10
13 12 11 10 9 9 9 8 7 7 9 10 11 11 12 13 14 15 15 16 16 16 17 17 17 16 15 14 14 14 14 14 14 13 13 12 12 12 12 12 12 13 13

GEFSSE_500_meanwind_132.txt.gz
Wind_Speed
4 5 4 4 4 3 3 2 2 2 2 2 2 1 2 1 1 1 1 1 1 1 2 2 2 2 3 3 3 3 4 4 4 4 5 4 4 4 4 5 5 5 6
4 4 4 4 4 3 3 2 1 1 2 2 2 2 2 2 2 2 1 1 1 1 1 1 2 2 2 2 3 3 3 3 3 4 4 4 4 4 4 5 6 6 7
3 3 4 3 3 2 2 2 1 1 2 2 2 3 3 3 3 2 2 1 1 1 1 1 1 1 2 2 2 3 3 3 3 3 4 4 4 4 4 5 6 6 6
2 2 3 3 3 3 2 2 1 1 2 2 2 3 4 3 3 3 2 2 1 1 1 1 1 1 1 2 2 2 2 3 3 3 3 4 4 4 4 5 5 5 5
2 1 2 2 3 3 4 3 3 2 2 2 2 3 4 4 4 3 3 2 2 1 1 1 1 1 1 2 2 2 2 3 3 3 3 3 3 4 4 4 5 5 5
3 1 2 3 4 4 4 5 4 3 3 3 3 4 4 4 4 4 4 3 3 2 2 1 1 1 1 1 2 2 3 3 3 4 3 3 3 4 4 4 4 5 4
4 1 2 3 4 5 5 5 5 4 3 3 4 4 4 4 4 4 3 3 3 3 2 2 1 1 1 1 1 2 3 3 3 3 3 3 3 3 3 4 4 4 4
4 2 2 4 5 6 7 7 6 5 4 4 4 3 4 4 3 3 3 3 3 3 3 2 2 1 1 1 1 2 2 3 2 3 2 3 3 3 3 3 4 4 4
5 3 2 4 5 7 8 7 7 6 5 5 4 4 4 3 3 3 3 3 2 2 2 2 1 1 1 1 1 2 2 2 2 2 2 2 2 2 2 2 3 3 3
6 3 2 3 4 6 8 8 8 7 6 6 5 5 4 4 4 4 3 3 2 2 2 1 1 1 1 1 1 2 2 2 2 2 2 2 2 2 2 2 3 3 3
7 4 3 4 5 6 8 9 9 9 8 7 6 6 5 5 4 4 4 3 2 2 2 1 1 1 1 1 1 1 2 2 2 2 2 2 2 2 2 2 2 3 4
8 6 4 4 5 6 7 8 9 9 9 8 7 7 6 5 5 4 4 4 3 2 2 2 1 1 1 1 1 1 1 1 1 2 2 2 2 2 2 2 2 3 4
9 7 5 4 4 5 6 8 9 10 10 9 8 7 7 6 5 5 4 4 3 2 2 2 1 2 2 1 1 2 2 2 2 1 2 2 2 2 2 2 2 2 3
10 8 6 5 5 5 6 8 10 10 10 9 9 8 7 6 5 5 4 4 3 3 2 2 1 1 2 2 2 2 2 2 2 2 2 2 2 2 2 2 2 2 3
10 9 7 7 5 3 4 7 9 10 10 10 9 9 8 7 6 6 5 4 4 4 3 2 1 1 2 2 3 3 2 2 2 2 2 2 2 2 2 2 2 3 4
9 9 8 6 5 4 4 5 7 10 10 10 10 10 9 8 7 6 6 5 4 4 4 3 2 2 2 2 3 3 3 3 3 3 3 3 3 3 3 3 3 4 4
10 9 9 8 6 5 5 5 7 8 10 11 11 12 11 9 8 7 6 6 5 4 4 3 3 3 3 3 4 4 4 4 4 4 4 3 3 3 3 4 4 4 5
10 10 9 8 7 5 4 5 6 8 9 10 10 11 12 11 10 8 7 7 6 5 4 4 3 3 3 3 4 4 4 4 4 4 4 4 4 4 4 4 5 5 6
11 10 9 8 8 7 4 4 6 7 8 9 11 11 12 12 11 10 9 7 7 6 5 5 4 4 3 4 4 4 4 4 5 5 5 5 5 5 4 4 5 5 5
11 10 10 8 8 7 5 4 5 6 8 10 12 12 12 12 11 11 10 9 8 7 7 6 5 5 4 4 4 5 5 5 5 6 6 6 6 6 5 5 5 5 6
10 9 9 8 7 7 6 5 5 6 8 10 10 12 12 12 12 12 11 10 9 9 8 7 7 7 7 6 6 5 6 6 6 6 7 7 7 7 7 6 6 6 6
9 8 8 7 7 6 6 5 4 6 7 8 10 10 10 11 11 12 11 11 10 10 10 9 9 9 9 8 8 7 7 7 7 7 8 8 8 8 8 8 7 7 6
9 8 7 7 7 6 6 6 5 5 6 7 8 9 9 10 11 12 12 11 11 11 11 10 10 10 10 10 10 9 9 8 8 8 9 8 8 8 8 9 9 8 7
9 8 7 7 7 7 6 6 4 4 5 6 7 9 10 11 11 12 12 11 11 10 10 11 11 11 11 11 11 11 11 10 10 10 10 10 10 10 10 10 10 10 10
8 8 7 7 7 7 6 6 5 5 5 6 8 9 10 11 12 12 12 12 12 12 11 11 12 12 12 12 12 12 12 12 12 12 12 12 12 11 11 12 11 12 12
8 7 7 7 7 6 6 6 5 5 6 7 8 10 11 11 12 13 13 13 13 13 13 13 13 12 13 13 13 13 13 13 14 13 14 14 13 13 14 14 14 14 15

GEFSSE_500_meanwind_138.txt.gz
Wind_Speed
4 3 3 5 6 7 7 8 8 8 8 8 7 7 7 7 6 5 5 4 4 3 4 4 4 4 3 3 3 3 4 4 4 5 5 5 5 5 5 5 5 5 5
4 3 3 5 6 7 7 7 8 8 8 8 7 7 7 6 5 5 4 4 3 3 3 3 3 3 3 3 3 3 3 3 4 4 5 5 5 4 4 5 5 4 5
4 3 3 4 5 6 6 7 7 7 7 7 7 7 6 6 5 5 4 4 3 3 3 3 2 2 2 2 2 2 3 3 3 4 4 4 4 4 4 4 5 5 5
3 2 2 3 4 5 6 6 6 6 6 6 6 6 6 5 6 5 4 4 3 3 3 2 2 2 3 2 2 2 2 3 3 3 3 3 3 4 4 4 5 5 5
3 1 1 2 2 3 4 5 5 5 5 5 5 5 5 5 5 5 4 4 3 3 2 2 3 3 3 2 2 2 2 3 3 3 3 3 3 4 3 3 4 4 4
3 1 1 1 2 2 3 3 3 4 4 4 4 4 4 5 5 5 4 3 3 3 3 2 2 2 2 2 2 2 2 2 2 2 3 3 3 3 3 3 3 3 3
3 1 1 1 1 2 2 2 2 2 3 3 3 3 3 4 4 4 4 3 2 3 3 2 2 2 2 2 2 2 2 2 2 2 2 2 2 3 2 2 2 3 2
3 1 0 1 1 2 2 2 2 2 1 2 2 3 3 4 4 4 4 3 3 3 2 2 2 2 2 2 2 2 2 2 1 2 2 2 2 2 1 1 1 2 2
5 3 1 0 2 2 2 2 2 2 1 1 1 2 2 3 3 3 3 3 3 2 2 2 2 2 2 2 2 2 2 1 1 1 2 2 2 1 1 1 1 2 2
6 4 2 0 1 2 2 3 2 2 2 1 0 1 1 2 2 2 2 2 2 2 2 2 2 2 2 2 2 2 1 1 1 1 1 1 1 0 0 1 1 2 2
7 5 2 1 1 2 3 4 3 3 3 2 1 1 0 0 0 1 1 2 2 2 2 2 1 2 2 2 2 1 1 1 1 1 1 1 0 0 1 1 1 2 3
7 5 3 2 1 2 3 4 5 5 4 4 3 2 2 1 1 0 0 1 1 1 1 1 1 1 1 1 1 1 1 1 0 1 1 0 1 1 2 2 2 2 3
8 6 4 3 2 3 3 4 5 5 6 5 4 3 3 2 2 1 1 1 0 1 1 1 1 0 1 1 1 1 0 0 0 1 1 1 1 2 2 3 3 3 3
9 7 5 4 3 3 2 3 5 5 6 6 6 5 4 3 2 2 1 1 1 0 0 0 0 0 1 1 1 1 1 0 0 0 1 1 2 2 2 3 3 3 4
9 8 7 5 4 4 2 2 5 5 6 7 6 6 5 4 3 3 2 2 2 1 1 1 1 1 0 1 1 1 0 1 0 0 1 1 2 2 3 3 3 4 4
10 9 9 6 5 5 3 2 4 6 7 8 8 8 6 6 5 4 3 3 3 2 1 1 1 2 1 1 1 1 1 1 1 1 1 2 2 3 3 3 3 4 4
11 10 9 7 6 5 4 4 5 6 7 8 9 9 8 8 7 6 5 4 4 3 3 2 2 2 1 2 2 2 2 2 2 2 2 3 3 3 4 4 5 5 5
11 10 9 7 5 4 4 4 5 6 7 7 9 9 9 9 9 8 7 6 5 5 4 4 3 3 2 2 3 3 3 3 3 3 3 4 4 4 5 5 6 6 6
10 9 8 8 6 5 5 4 4 6 8 8 9 9 9 10 10 9 9 8 7 6 6 5 4 4 4 3 3 4 4 4 3 4 4 4 5 5 6 6 6 7 7
11 9 7 7 6 5 5 4 4 6 9 9 9 10 11 11 11 10 9 9 8 8 7 7 6 6 6 5 5 4 5 4 4 5 5 5 6 6 6 7 7 7 8
11 8 7 6 5 5 4 4 4 5 7 9 10 11 11 12 12 10 10 9 9 10 9 9 8 8 8 7 6 6 6 6 6 7 7 7 7 8 8 8 8 8 9
10 8 6 5 5 4 4 3 2 3 6 7 10 10 10 11 12 12 11 10 11 10 10 10 10 10 10 9 8 8 8 8 9 9 9 8 9 9 9 9 9 10 10
10 8 6 5 5 4 4 3 3 3 4 6 9 10 11 11 11 11 11 11 11 11 10 11 11 10 10 10 10 10 10 10 10 10 10 10 10 10 10 11 11 11 11
10 8 6 6 5 5 4 5 5 4 5 5 7 9 11 12 13 12 12 11 11 12 12 12 12 12 11 11 11 11 11 11 11 11 11 12 12 12 12 12 12 12 12
9 7 7 6 5 5 5 5 5 5 6 6 7 9 11 12 13 13 13 13 12 12 13 13 13 13 13 12 12 12 12 12 13 13 14 14 13 13 13 13 14 14 14
10 8 7 7 6 5 5 6 5 6 6 6 7 8 10 11 13 14 13 14 14 13 14 14 14 15 15 15 14 14 14 14 14 15 15 15 15 15 15 16 16 16 16

GEFSSE_500_meanwind_144.txt.gz
Wind_Speed
8 7 7 7 7 7 9 10 11 11 11 11 11 11 11 10 9 9 8 8 7 7 6 5 5 5 5 5 5 5 5 5 5 5 4 4 4 5 4 4 4 5 5
7 7 6 6 6 7 8 9 10 11 11 11 11 11 10 10 9 8 8 7 7 6 6 5 4 5 5 5 5 5 5 5 5 5 5 4 4 4 4 4 4 5 5
7 6 6 6 6 7 7 8 9 10 10 10 10 10 9 9 9 8 7 7 6 6 5 5 5 5 5 5 5 5 5 5 5 5 4 3 4 4 4 3 4 4 5
6 6 5 5 6 6 7 7 8 9 9 9 9 9 9 9 8 7 7 6 6 6 5 5 5 5 5 5 5 5 5 5 5 4 4 3 3 3 3 4 4 4 4
5 5 4 4 5 6 7 7 7 8 8 9 9 9 9 8 8 7 7 6 6 5 5 5 5 5 5 5 5 5 5 5 4 4 4 3 3 3 3 3 4 3 3
4 3 3 3 4 5 6 7 7 7 7 8 8 8 8 8 7 6 6 6 6 5 5 5 5 5 5 5 5 5 5 4 4 4 4 4 3 3 3 3 2 2 3
4 3 2 3 4 5 6 6 6 6 7 7 7 8 8 7 6 6 6 6 5 5 5 5 5 5 5 5 5 5 5 4 4 3 3 3 3 3 2 2 2 2 2
4 3 2 2 3 5 5 6 6 6 6 6 6 7 7 7 6 6 6 6 6 5 5 5 5 4 4 5 5 4 5 4 4 3 3 3 3 3 2 2 1 2 2
4 2 1 2 3 4 6 6 5 5 6 6 6 6 6 6 6 6 6 6 6 5 5 5 5 5 5 5 5 5 4 4 3 3 3 2 2 2 2 1 1 2 2
5 3 1 2 3 4 5 5 5 4 5 6 6 6 6 6 6 5 5 5 5 5 5 5 5 5 5 5 5 4 4 4 3 3 2 2 2 2 1 1 1 2 2
6 3 1 1 2 3 3 4 4 5 5 6 6 6 6 6 6 5 5 5 4 4 5 5 5 5 4 4 4 4 4 3 3 3 2 2 2 2 1 1 1 2 2
6 3 1 1 1 2 3 4 5 5 6 6 6 6 6 5 5 5 5 5 5 4 4 4 5 4 4 4 4 4 3 3 3 3 2 2 2 2 1 1 2 2 2
6 4 2 0 1 2 3 4 5 6 6 7 7 6 6 5 5 5 5 5 5 4 4 4 4 4 3 3 3 3 3 3 3 2 2 2 2 2 2 2 2 2 3
7 5 3 2 2 3 3 3 5 6 6 7 7 7 6 6 6 5 5 5 5 5 4 4 4 3 3 3 4 3 2 2 2 2 2 2 1 1 2 2 3 3 3
8 6 5 4 3 3 3 3 4 5 6 7 8 8 7 6 6 6 5 5 5 5 4 4 4 3 3 3 3 3 3 2 2 2 2 2 2 2 2 3 3 3 3
10 8 6 5 4 3 4 4 5 5 6 7 8 8 8 7 7 6 6 5 5 5 4 4 4 3 3 3 3 3 3 3 2 2 2 2 3 3 3 3 3 3 4
11 10 8 6 4 4 4 4 5 6 6 7 7 8 8 8 8 8 7 6 5 5 4 4 4 3 3 3 3 4 3 3 3 3 3 3 4 4 4 4 4 4 5
11 10 9 6 5 5 5 5 5 6 6 6 7 8 8 9 9 9 8 7 6 6 5 5 5 4 4 3 4 4 4 5 4 4 4 5 5 5 5 5 5 5 6
12 10 9 8 7 6 5 6 7 7 8 7 8 8 9 9 9 8 8 8 8 7 6 6 6 6 5 4 4 4 5 5 5 5 5 6 6 7 7 7 7 6 7
12 10 9 8 7 6 5 5 6 6 7 8 8 9 10 10 9 9 9 8 8 8 7 7 8 7 7 6 6 6 6 6 6 7 7 7 7 7 8 8 8 8 8
11 10 10 8 8 6 4 4 5 6 6 7 9 9 10 10 10 10 9 9 9 9 9 9 9 8 8 8 7 7 7 7 8 8 9 9 9 9 9 10 10 10 10
11 10 10 9 8 7 5 4 4 5 5 7 8 9 10 11 11 11 11 10 10 10 10 10 10 10 9 9 9 9 8 9 9 9 10 10 10 11 11 11 11 12 12
12 10 9 8 7 6 6 5 4 5 5 5 7 9 10 11 12 12 11 11 10 10 10 11 11 10 10 10 10 10 9 10 10 11 11 11 11 12 12 12 13 13 14
12 10 9 7 6 6 6 5 5 5 6 6 7 7 10 11 12 12 12 12 11 11 11 11 12 12 12 12 11 11 11 11 12 12 12 12 12 12 13 13 14 14 14
11 10 8 7 7 7 6 6 7 7 6 7 8 8 8 11 12 12 13 13 13 13 12 12 13 13 13 13 13 13 13 13 13 13 13 13 13 14 14 14 15 16 16
11 10 8 7 7 8 8 8 8 8 7 8 8 9 9 10 12 13 14 14 14 14 13 13 13 14 14 15 15 15 15 15 15 15 15 15 16 16 16 16 17 17 17

GEFSSE_500_meanwind_150.txt.gz
Wind_Speed
4 4 3 2 2 2 3 5 4 5 5 6 6 7 7 7 7 7 6 6 6 5 5 4 4 4 5 5 5 5 5 5 5 5 5 5 5 5 5 5 5 5 6
4 3 3 2 2 2 3 4 4 5 5 6 6 7 6 7 7 6 6 6 5 5 5 4 4 4 5 5 5 5 5 5 5 5 5 6 5 5 5 5 5 5 5
4 3 2 2 1 1 2 3 4 5 5 5 6 6 6 6 6 6 6 5 5 5 4 4 5 4 4 4 5 5 5 5 4 4 5 5 5 5 5 5 5 5 5
4 3 3 2 1 1 1 3 4 4 5 5 6 6 6 6 6 6 6 5 5 4 4 4 4 4 4 4 4 5 5 4 3 4 4 5 5 5 5 5 5 5 5
3 3 2 2 1 0 1 2 3 4 4 5 5 5 5 5 5 5 5 5 5 5 4 4 4 4 4 4 4 4 4 4 3 4 4 4 5 5 4 4 4 4 4
2 1 1 0 1 1 2 2 2 3 3 4 4 5 5 4 4 4 4 4 4 4 4 4 4 4 4 4 4 4 3 3 3 3 3 4 4 4 4 3 3 3 4
2 1 1 1 2 3 3 3 3 3 3 4 4 4 4 4 4 4 4 4 4 3 3 4 4 4 4 4 4 4 3 3 3 3 3 3 3 3 4 3 2 2 3
3 1 1 1 2 3 4 4 4 4 4 4 4 4 4 4 4 3 3 3 3 3 3 4 4 4 5 4 4 4 3 3 3 3 3 3 3 3 3 3 3 2 2
5 3 2 2 2 3 4 5 5 5 5 5 5 4 4 4 4 3 2 3 3 3 4 4 5 5 5 4 4 4 3 3 2 2 2 2 2 2 2 3 2 2 1
8 5 3 2 3 3 4 5 5 6 6 6 5 5 5 4 4 3 3 3 3 4 4 4 4 4 4 4 3 3 3 3 2 1 1 1 1 1 2 2 2 2 1
9 7 4 3 3 4 5 5 5 6 6 6 6 6 6 5 4 4 3 3 3 4 4 4 4 4 3 3 3 3 2 2 2 1 1 1 1 1 1 1 2 2 2
11 8 6 4 4 4 4 5 5 6 6 7 6 6 6 5 4 4 4 3 3 4 4 4 3 3 3 3 3 3 2 1 1 1 1 0 0 1 1 1 2 2 2
12 10 8 6 5 5 5 5 5 6 6 6 6 6 6 5 4 4 4 4 3 4 4 4 3 3 3 3 2 2 2 1 1 0 0 0 0 0 1 1 2 2 2
13 12 10 8 6 6 6 6 6 5 5 5 5 5 5 4 4 4 4 4 4 4 4 4 3 3 3 3 3 3 3 2 1 1 1 1 1 1 1 1 2 2 2
14 13 11 9 7 7 6 6 5 4 5 5 4 5 5 4 3 4 4 5 4 4 4 3 3 3 3 2 2 3 3 2 2 1 1 1 2 2 2 2 3 3 3
14 13 11 9 9 8 7 7 5 5 4 4 5 5 5 5 4 4 4 5 5 5 4 4 4 3 2 2 2 3 3 2 2 2 2 2 2 3 3 3 4 4 3
14 13 11 9 9 8 8 6 5 5 5 5 5 6 6 5 5 4 4 4 5 5 5 4 4 4 3 2 2 3 3 3 3 3 3 3 3 4 4 4 4 5 4
14 13 12 10 10 9 8 6 6 5 4 5 6 7 7 6 6 5 5 5 4 5 5 5 5 5 4 4 3 3 4 4 4 4 4 4 5 5 5 5 5 5 5
14 13 12 11 11 10 8 6 6 5 4 5 6 7 8 7 7 6 6 6 6 6 6 6 6 6 5 5 5 4 5 5 5 5 6 6 6 6 6 6 7 7 7
15 14 12 11 11 10 7 6 5 5 4 4 5 6 8 9 8 7 7 6 6 6 7 7 7 7 7 7 6 6 6 7 6 6 6 6 7 7 7 8 8 9 9
15 15 13 11 11 9 8 7 4 5 5 4 5 6 8 9 9 9 8 8 7 7 7 8 9 9 9 8 8 8 8 8 8 8 8 8 8 8 8 9 9 10 10
16 15 13 12 11 9 8 7 6 5 5 5 6 6 7 9 10 10 10 10 9 9 8 9 10 10 9 9 9 9 9 9 8 9 9 10 10 10 10 10 10 11 11
16 14 13 12 10 9 8 7 6 6 6 6 6 7 7 8 9 10 10 10 10 9 9 10 10 10 10 10 11 11 10 10 10 10 10 10 11 11 12 12 11 12 12
15 14 13 11 10 9 8 7 7 7 7 6 6 6 7 8 8 9 10 10 10 10 10 10 10 11 11 11 11 12 12 12 12 11 11 11 11 12 13 12 13 13 13
15 14 13 12 11 10 10 9 8 7 7 7 7 7 8 9 9 10 10 10 11 11 11 11 11 11 12 12 12 13 14 14 14 13 13 13 13 13 14 15 15 14 15
15 14 13 12 11 10 10 9 8 8 8 8 8 8 9 9 10 11 11 11 12 12 12 12 12 13 13 14 14 14 15 15 15 15 15 15 15 16 16 17 17 17 17

GEFSSE_500_meanwind_156.txt.gz
Wind_Speed
7 7 6 6 6 5 4 3 2 2 2 1 0 0 1 2 3 3 3 3 3 2 3 3 3 4 4 5 5 5 5 5 6 6 6 6 6 6 6 6 6 6 7
6 6 6 6 5 5 4 3 2 2 1 1 1 1 1 1 2 2 2 2 2 2 2 2 2 3 4 5 5 5 5 5 5 6 6 6 6 7 7 7 6 6 6
6 6 5 5 5 5 4 3 3 2 2 1 1 2 2 2 2 2 2 2 2 2 1 1 2 3 3 4 5 5 5 5 5 5 6 6 6 6 6 6 7 7 6
7 6 5 5 5 4 3 3 2 2 1 2 2 2 2 2 2 2 2 2 2 2 1 1 2 3 3 3 4 4 4 4 5 5 6 6 6 6 6 6 6 6 6
6 6 5 4 4 4 3 3 2 2 2 2 2 2 2 2 2 2 2 2 2 2 2 2 2 3 3 3 4 4 3 4 5 5 5 5 5 6 5 5 6 6 5
7 5 4 3 3 2 2 2 2 2 2 2 2 2 2 2 2 2 2 2 3 3 2 2 2 3 3 3 4 3 3 4 4 4 4 4 5 5 5 4 5 5 5
7 6 4 2 2 1 1 0 1 1 2 2 2 2 2 2 2 2 2 2 3 3 3 3 3 3 3 3 3 3 3 3 4 4 4 4 4 5 4 4 4 4 4
9 7 5 3 2 1 1 1 1 1 2 2 2 2 2 2 3 2 2 2 3 3 3 3 3 3 4 3 3 3 3 3 3 3 3 4 4 4 4 4 3 3 3
9 8 6 4 2 1 1 1 2 2 2 2 2 2 3 3 3 3 2 2 2 3 3 3 3 3 3 3 3 3 3 3 3 3 3 4 4 4 3 3 3 3 2
9 8 6 4 3 2 2 1 2 2 3 3 3 3 3 3 3 3 2 2 2 2 2 3 3 4 3 3 3 3 3 3 3 2 2 2 2 2 2 2 2 2 2
10 8 7 5 3 2 2 2 2 2 3 3 3 4 3 3 3 2 2 2 2 2 2 3 3 3 3 3 3 3 3 2 2 2 1 2 2 2 2 2 2 1 1
12 10 9 6 4 3 3 3 2 3 3 3 3 4 3 3 3 2 2 2 3 3 3 3 2 3 3 2 3 3 2 2 2 1 1 1 2 1 1 1 1 1 1
12 11 10 8 6 3 3 3 2 2 2 2 3 4 4 3 2 2 3 3 3 3 2 2 2 2 2 2 2 3 3 2 2 2 1 2 2 1 1 1 1 1 1
14 11 10 8 7 5 3 2 1 1 1 1 2 3 4 3 3 3 3 3 3 3 3 2 2 2 2 2 2 2 2 3 2 2 2 2 2 1 1 1 1 1 2
15 13 10 8 7 6 5 4 2 1 1 1 1 2 3 3 3 3 3 3 4 4 3 3 3 2 2 2 3 3 3 3 3 3 2 2 2 2 2 2 2 2 2
15 14 12 9 8 7 5 4 3 2 2 2 1 2 2 3 3 3 3 3 4 4 4 3 3 2 2 2 2 3 3 3 4 4 3 3 3 3 3 3 3 3 3
16 15 13 11 10 8 5 4 3 2 1 1 1 2 3 3 3 3 3 3 4 4 4 3 3 2 2 3 2 3 3 4 4 4 4 4 4 4 4 4 4 4 4
16 15 13 12 11 10 6 4 3 2 1 0 1 2 3 4 4 4 3 3 3 4 4 4 4 4 4 4 4 4 4 5 5 5 5 5 5 5 6 6 6 6 6
16 14 13 12 10 10 7 5 4 4 2 1 1 2 3 5 5 5 4 4 3 3 4 5 5 5 5 5 5 5 5 6 6 7 7 7 7 7 7 7 8 8 8
16 15 13 11 10 9 7 6 5 3 3 2 1 1 2 4 4 5 5 5 4 4 5 6 6 6 7 6 6 6 7 7 7 7 8 8 9 9 9 9 9 9 10
14 14 12 11 8 8 7 7 6 3 3 2 2 2 2 3 4 6 6 6 6 6 6 6 7 7 7 7 7 7 8 7 8 8 9 9 9 9 9 9 9 10 11
13 13 11 10 7 7 7 7 6 5 3 2 2 3 3 3 5 6 7 7 7 7 7 7 7 7 7 8 8 8 8 9 9 10 10 10 9 10 10 10 10 10 11
13 12 11 9 7 6 6 6 6 6 5 4 3 4 4 4 5 6 7 7 8 8 8 8 8 8 8 9 9 9 10 11 11 11 11 11 11 10 11 11 12 12 13
12 11 10 9 8 6 5 6 6 6 5 5 4 4 4 4 5 6 7 8 8 9 9 10 9 9 9 10 10 11 11 11 11 12 13 12 12 12 12 12 13 14 14
11 10 10 10 8 6 6 6 6 5 5 5 5 5 5 5 6 7 8 9 9 10 11 11 10 11 11 11 12 12 12 13 13 13 14 14 14 14 14 14 14 15 16
11 10 10 9 9 7 6 6 6 5 5 5 5 5 6 6 7 8 9 10 11 11 12 12 12 12 12 13 13 13 14 14 15 15 15 16 16 16 16 16 16 17 17

GEFSSE_500_meanwind_162.txt.gz
Wind_Speed
6 5 5 6 6 7 8 9 9 9 8 7 6 6 6 5 4 4 4 4 4 4 4 4 4 4 4 4 4 5 5 5 5 5 5 5 5 6 6 6 6 6 6
5 5 5 5 6 7 7 8 8 8 7 7 6 6 5 4 4 4 4 4 3 4 4 4 3 4 4 4 4 4 4 5 5 5 5 5 6 6 6 6 6 6 6
5 5 5 6 7 7 8 8 8 8 7 7 6 6 6 5 4 4 4 3 3 3 4 4 4 4 4 4 4 3 3 4 4 4 5 5 5 5 5 6 5 6 6
5 5 6 6 6 7 7 7 7 7 7 7 6 6 5 5 5 4 3 3 3 3 3 3 3 3 3 3 3 3 4 4 4 4 4 4 4 5 5 4 5 5 5
5 5 5 5 6 6 6 6 6 6 6 6 6 5 5 4 4 4 4 4 3 3 3 3 2 3 3 3 3 3 4 4 4 4 4 3 4 4 4 4 4 4 4
5 5 5 5 5 5 5 6 6 5 5 5 5 5 5 5 4 5 4 4 4 3 3 2 2 3 3 3 3 3 4 4 4 3 3 3 3 3 3 4 3 3 3
6 5 5 5 4 4 4 5 5 4 4 4 4 4 4 4 4 4 4 4 3 3 2 2 2 2 2 2 3 3 3 4 3 3 3 3 3 3 3 3 2 2 3
6 6 6 5 4 4 3 3 3 3 4 4 3 4 3 3 3 3 4 4 3 2 2 2 2 2 2 3 3 4 4 3 3 3 3 4 3 3 3 2 2 2 2
7 6 6 5 4 4 3 3 2 3 3 3 3 3 3 3 2 2 3 3 2 2 2 2 2 2 2 2 3 3 3 3 3 3 3 3 3 3 3 2 2 2 2
8 7 6 5 4 3 3 2 2 2 2 2 2 2 2 2 2 2 2 2 2 2 2 2 2 2 2 2 2 3 3 2 2 2 2 2 2 2 2 1 1 1 1
9 8 7 5 4 2 2 2 2 1 1 1 2 2 2 1 2 2 2 1 2 2 2 2 2 2 2 2 2 2 2 1 1 1 1 1 1 1 1 1 0 1 1
11 10 9 7 5 3 2 1 1 1 1 1 2 2 2 1 1 1 2 2 1 2 2 2 2 2 2 2 2 1 1 1 1 0 0 0 0 0 1 0 1 1 1
12 11 10 9 7 5 3 2 1 1 1 1 2 3 2 2 1 1 2 2 2 2 3 3 3 2 2 2 1 1 0 0 0 0 1 0 1 1 0 0 1 1 2
12 11 11 10 8 6 4 3 3 2 2 2 2 3 3 2 1 2 2 2 3 3 2 2 2 2 1 1 0 1 0 0 1 1 1 1 1 1 1 1 2 2 2
13 11 11 10 9 7 5 4 3 2 2 2 3 3 3 2 2 2 2 2 3 3 2 2 1 1 1 1 0 1 1 1 1 1 1 2 2 3 3 3 3 3 3
14 12 11 11 10 8 5 4 3 2 2 2 2 2 2 1 2 2 3 3 3 3 2 2 1 1 1 1 0 1 1 2 2 2 3 3 3 3 4 4 4 4 4
14 12 11 10 9 7 6 4 2 2 2 2 2 2 2 1 1 2 4 4 3 3 3 3 2 2 2 2 2 2 2 3 3 4 4 4 4 4 5 5 5 6 6
13 12 11 10 8 7 7 6 4 4 2 1 1 2 2 1 2 3 4 4 3 4 4 4 3 2 2 3 3 3 3 4 4 4 5 5 5 6 6 6 7 7 8
12 11 10 9 7 7 6 5 4 4 2 0 1 1 1 1 2 3 3 4 4 4 4 5 4 4 3 4 4 5 5 5 5 5 6 6 7 7 8 8 8 9 10
12 10 9 8 7 6 6 5 4 3 2 0 1 1 1 1 2 3 4 4 4 4 4 5 6 5 5 6 6 6 7 7 7 7 7 8 8 9 9 9 10 10 10
12 11 9 8 6 5 5 5 4 4 2 1 1 2 2 3 3 4 4 5 5 5 5 6 7 7 7 7 7 7 8 9 9 9 9 9 10 10 10 10 10 11 12
12 11 10 9 7 5 5 4 4 4 3 2 2 3 3 3 4 5 5 6 6 6 6 7 8 8 8 8 9 9 9 10 10 11 11 11 11 10 10 11 12 13 13
11 11 10 9 7 6 5 4 4 3 3 3 3 3 4 5 5 5 6 7 7 7 8 8 8 9 9 10 10 10 10 11 11 11 12 12 12 12 12 12 13 14 14
11 10 9 8 7 5 5 5 4 4 3 3 4 4 4 5 6 6 7 7 8 9 9 10 10 10 10 10 11 12 12 12 12 13 14 14 14 14 14 14 14 14 15
11 10 9 8 6 5 5 5 5 4 4 4 4 4 5 6 8 8 8 9 10 10 11 11 11 12 12 13 13 13 13 14 14 14 15 15 15 15 15 16 16 16 17
11 10 9 8 7 6 6 5 5 5 5 5 5 5 6 7 8 8 9 10 10 11 12 13 13 14 14 14 14 14 14 15 15 15 15 15 16 17 17 18 17 18 19

GEFSSE_500_meanwind_168.txt.gz
Wind_Speed
6 6 5 6 7 8 8 9 9 10 10 11 11 11 11 11 10 10 9 9 8 8 7 7 7 7 7 6 5 6 6 6 6 6 6 6 6 6 5 5 5 6 6
6 5 5 5 6 7 8 9 9 9 10 10 10 10 10 10 10 9 9 8 8 7 7 7 6 6 6 6 5 6 6 6 5 6 6 6 6 6 5 5 5 6 6
6 5 4 4 5 6 7 7 8 9 10 10 9 9 9 9 9 8 7 7 7 7 6 6 6 6 5 5 6 6 6 5 5 6 6 6 6 6 6 5 5 6 6
6 5 5 4 4 5 6 7 8 8 9 9 9 9 9 9 8 7 7 7 7 6 6 5 6 6 6 5 5 6 5 5 6 6 6 5 5 6 6 5 5 5 5
6 5 4 4 4 4 5 6 7 8 8 9 9 9 8 9 8 7 7 7 7 6 6 6 6 6 6 5 6 6 6 5 6 6 5 5 5 5 5 5 4 5 5
5 4 3 3 3 4 4 5 6 7 8 8 8 8 8 9 8 7 7 7 7 7 6 6 6 5 5 5 6 6 6 5 6 5 5 5 4 4 4 4 4 4 5
6 4 3 3 3 3 4 5 5 6 7 8 8 8 8 8 8 7 6 6 7 7 7 6 5 5 5 6 6 6 5 6 6 5 4 4 4 4 4 4 3 3 4
7 5 3 2 2 3 4 4 5 6 6 7 7 8 8 7 7 7 6 6 6 6 6 6 5 4 5 6 6 6 6 6 5 4 4 4 3 4 3 3 3 2 3
7 5 4 2 2 2 3 3 4 5 5 7 7 8 7 7 7 7 7 6 5 5 6 6 5 4 5 5 6 6 5 5 5 5 4 3 3 3 3 3 2 2 2
7 6 4 3 1 1 2 3 4 4 5 6 7 7 7 6 7 7 7 6 6 5 6 6 5 5 5 5 6 6 5 4 4 4 4 3 3 3 2 2 2 2 2
8 7 6 3 2 1 2 3 3 4 5 6 6 6 6 5 6 7 7 6 6 6 6 6 6 5 5 5 5 5 5 4 3 3 3 2 2 2 2 2 1 1 2
9 7 6 4 2 2 2 2 3 4 5 5 6 6 5 5 5 6 6 6 6 6 6 6 6 5 5 5 5 5 4 4 3 3 2 2 2 1 1 1 2 2 2
9 8 7 6 4 2 2 3 3 4 4 4 5 5 5 5 5 5 6 6 6 6 6 6 5 5 5 5 5 5 4 4 3 3 2 2 2 2 1 2 2 2 2
9 8 8 7 6 4 3 3 3 3 4 4 5 5 5 5 5 5 5 6 6 5 6 6 5 5 5 5 4 4 4 3 3 2 2 2 2 2 3 3 3 3 3
10 9 8 7 6 5 3 2 3 3 3 4 5 5 5 5 5 5 5 5 5 5 5 5 4 5 5 4 3 3 3 3 2 2 2 2 3 3 3 3 3 4 4
11 10 8 7 6 5 3 3 3 3 3 4 5 5 5 5 4 5 5 5 4 4 5 4 4 4 4 4 3 3 3 2 2 2 2 3 3 3 3 4 4 4 4
11 10 8 7 7 6 5 3 3 3 3 4 4 5 4 4 4 4 5 4 4 4 4 4 4 4 4 3 3 3 3 2 2 2 3 3 4 4 4 5 5 6 6
11 10 9 8 6 6 5 4 3 2 2 3 3 3 4 4 4 4 4 4 4 4 4 4 4 4 4 3 3 3 3 3 3 3 4 4 5 6 6 7 7 7 7
12 11 10 8 6 6 5 3 2 2 2 2 2 3 3 3 4 4 4 4 4 4 5 4 4 4 4 4 4 4 5 5 5 5 5 6 6 7 7 8 8 9 9
11 11 10 9 7 5 4 3 2 1 1 1 1 2 2 3 3 3 4 4 4 4 5 5 5 5 5 5 5 6 6 6 7 7 7 7 8 8 8 9 9 10 10
12 11 11 10 7 6 5 3 2 1 0 1 1 2 2 3 3 3 4 5 5 5 6 6 6 6 7 7 7 7 7 8 8 8 9 9 9 9 10 10 10 12 12
12 12 11 10 8 6 4 4 2 2 1 1 1 1 2 3 4 4 4 5 6 6 7 8 8 8 8 9 8 8 8 9 10 10 10 11 11 12 12 12 12 13 14
12 11 11 10 8 6 5 4 3 3 2 2 2 2 3 4 4 4 5 5 7 8 8 8 9 9 9 10 10 10 10 10 11 11 12 12 12 13 13 13 14 14 15
13 11 11 10 8 7 6 5 3 3 3 3 3 3 3 4 4 5 5 6 7 7 8 9 10 10 10 10 11 11 12 12 12 12 13 13 13 14 14 14 14 15 16
12 11 10 10 9 7 6 5 4 3 3 4 4 4 4 4 5 6 6 7 8 8 9 10 11 11 11 12 12 12 13 13 13 14 14 15 15 14 15 15 15 16 17
12 11 10 10 9 8 6 5 4 4 4 5 5 5 5 5 5 6 7 8 9 9 10 10 10 11 12 13 13 14 15 15 15 15 15 16 16 16 16 17 17 18 17

GEFSSE_500_meanwind_174.txt.gz
Wind_Speed
5 6 6 5 4 3 3 4 5 6 6 7 7 8 8 8 9 8 8 8 8 8 7 7 7 7 6 6 6 5 5 5 6 5 5 4 4 5 6 6 6 7 8
5 6 6 5 4 3 3 4 4 5 6 7 7 7 7 8 8 8 8 8 8 8 7 7 7 6 6 5 5 6 5 5 5 5 5 5 5 6 6 7 7 7 7
6 6 6 5 4 3 2 2 3 4 5 7 7 7 8 8 7 7 7 7 7 7 7 6 6 6 5 5 5 5 5 4 4 5 5 5 5 6 5 6 6 6 6
7 6 6 5 3 3 2 2 2 3 4 5 5 6 7 7 7 7 6 7 7 6 6 6 6 5 5 5 5 5 5 4 4 5 5 5 6 6 5 5 4 5 5
6 6 5 4 3 2 2 2 2 3 3 4 5 5 6 6 7 7 6 6 6 6 6 6 6 5 5 5 4 5 4 5 5 4 4 5 5 5 5 5 4 4 4
7 6 5 5 4 3 1 1 1 2 3 4 5 5 6 6 5 6 6 5 6 6 5 5 5 5 4 4 5 5 5 4 6 5 4 5 5 5 4 4 3 3 4
7 6 6 5 4 3 2 1 0 2 3 3 4 5 5 5 5 5 5 5 5 5 5 5 5 5 5 5 5 5 5 5 5 5 5 5 5 4 3 3 3 3 3
7 6 5 4 3 2 1 1 1 2 3 3 3 4 4 4 5 5 5 5 5 5 5 5 5 5 4 5 5 5 4 5 5 5 5 4 4 3 3 3 3 3 2
8 7 6 4 3 2 2 1 1 2 3 3 4 4 3 4 4 4 4 4 5 6 6 5 5 5 5 5 5 5 5 5 5 4 4 3 3 3 3 3 2 2 2
10 8 7 5 3 3 2 2 2 2 3 3 4 4 3 3 4 4 3 4 4 5 5 5 5 5 4 5 5 5 5 5 4 4 3 3 3 3 2 2 2 1 1
11 9 8 7 5 2 1 1 1 2 2 3 4 4 4 4 4 4 4 4 4 5 5 5 5 5 5 5 5 5 4 4 4 3 3 3 3 2 2 1 1 1 1
12 11 10 8 6 3 1 1 1 1 2 3 3 4 3 3 3 4 4 5 5 5 5 5 5 5 5 5 5 4 4 4 4 3 2 2 1 1 0 0 1 0 0
13 12 11 10 8 5 2 2 1 1 1 1 2 3 2 2 3 4 4 4 4 5 5 4 4 5 5 5 4 4 3 3 3 3 2 1 0 0 1 1 1 1 2
14 12 12 11 10 8 5 4 2 1 1 1 2 2 2 2 3 4 4 4 4 4 4 4 4 4 4 4 4 4 3 3 3 2 2 1 1 1 1 1 2 2 2
14 13 12 11 10 9 7 4 4 2 1 1 1 2 1 2 2 3 3 3 4 4 4 3 3 4 4 4 4 4 3 3 2 2 2 2 2 2 2 2 3 3 3
15 13 12 11 11 9 8 5 4 2 2 1 1 1 1 1 1 2 2 3 2 3 3 3 3 3 3 3 3 3 3 2 2 2 2 2 3 3 3 4 4 4 4
15 13 13 12 11 10 9 7 5 3 2 2 1 0 1 1 1 2 1 2 2 3 3 3 3 3 3 3 3 3 3 3 3 2 3 3 4 4 4 5 5 5 5
15 14 13 13 12 11 9 8 6 4 3 2 1 1 1 1 1 2 2 2 2 2 3 3 3 3 3 3 3 3 3 4 4 4 4 4 4 5 6 6 6 6 6
16 15 14 12 11 11 9 9 8 6 4 2 1 1 1 2 2 2 3 3 2 2 2 2 3 4 4 4 4 5 5 5 5 5 5 6 5 6 6 6 7 8 8
16 15 14 12 11 11 9 9 9 6 4 3 2 2 2 2 2 2 3 3 3 3 3 3 4 4 4 5 5 6 7 7 7 7 7 7 7 7 7 7 8 8 9
16 16 15 12 11 11 10 8 9 7 5 4 3 2 2 2 2 3 3 3 4 5 5 5 5 5 5 6 6 7 8 8 8 8 8 9 9 9 9 9 10 10 10
17 16 15 13 12 11 10 9 8 7 5 4 4 3 2 2 3 3 4 3 4 5 5 6 6 6 7 7 8 8 9 9 10 9 10 10 10 11 11 11 12 12 12
17 16 15 13 12 11 10 9 8 7 6 5 5 4 4 3 3 3 4 4 5 5 6 6 7 7 8 8 9 9 9 10 10 11 11 11 12 12 12 12 12 12 12
16 15 14 13 12 11 10 9 8 7 6 6 5 5 5 4 4 4 4 5 6 6 6 6 7 8 8 9 9 9 10 10 11 11 12 12 13 13 13 13 13 13 13
15 15 14 13 12 12 11 9 8 8 7 6 6 6 6 5 5 5 5 6 6 7 7 7 8 9 9 10 10 10 10 11 12 12 12 13 13 14 14 14 14 14 15
15 14 14 13 12 11 11 10 9 8 7 7 7 7 7 6 6 6 6 7 7 8 8 8 9 9 10 10 11 11 12 12 13 14 14 14 14 15 15 15 15 16 16

GEFSSE_500_meanwind_180.txt.gz
Wind_Speed
9 8 8 7 7 6 5 4 3 3 2 2 3 4 4 6 6 6 6 6 6 6 6 6 7 6 6 6 6 6 6 6 6 6 6 6 6 6 7 7 7 7 7
9 8 8 8 7 6 5 4 3 2 2 2 3 3 5 5 5 5 6 6 6 6 6 6 6 6 5 5 5 5 6 6 6 6 6 6 6 6 6 7 7 7 7
9 8 8 8 7 6 5 4 3 3 2 2 2 3 4 4 4 4 5 5 5 6 6 5 6 5 5 5 5 5 5 5 5 5 6 7 6 6 7 6 7 7 7
9 8 8 7 7 6 5 4 3 2 2 2 1 1 2 3 4 4 4 5 5 5 6 5 5 5 5 5 4 5 5 5 4 5 6 6 6 7 6 6 7 6 6
9 8 8 8 6 5 5 4 3 2 1 2 2 1 2 2 3 3 4 5 5 5 5 5 5 5 5 5 4 4 4 5 5 6 7 7 6 6 6 6 6 5 6
8 7 6 6 6 5 4 4 3 2 1 1 2 2 2 3 3 2 3 4 4 4 4 5 5 5 5 5 4 4 4 5 5 6 7 6 6 6 5 5 5 5 5
8 7 6 6 5 4 3 3 2 2 1 1 1 2 2 3 3 3 3 3 3 3 4 4 5 5 5 4 4 4 5 5 6 6 6 6 6 5 5 5 5 5 5
8 7 7 6 5 4 3 3 3 2 1 1 1 1 2 2 3 3 3 3 3 3 4 5 5 5 5 4 5 5 5 6 6 6 6 5 5 5 5 5 5 5 4
9 8 7 6 5 4 3 2 2 2 2 1 1 1 1 2 2 3 3 3 3 3 3 4 5 5 5 5 5 5 5 5 6 6 5 5 5 5 5 4 4 4 4
12 10 9 8 6 4 4 2 2 2 2 1 2 1 1 1 2 3 3 3 2 2 3 4 4 4 5 5 5 5 5 6 6 5 5 5 5 4 4 4 5 4 4
12 11 11 10 8 6 4 3 2 2 2 2 1 1 1 2 2 2 2 3 3 3 4 4 5 5 5 5 5 5 5 5 5 4 4 4 4 4 4 4 4 4 3
13 12 11 10 9 8 6 4 3 3 2 2 2 2 2 2 2 2 3 3 4 4 5 5 4 5 5 5 5 4 5 4 4 3 3 3 3 3 3 4 4 3 2
14 13 13 11 10 9 7 5 4 3 3 2 2 2 2 3 2 2 3 4 4 4 4 4 4 4 5 5 5 5 4 4 3 3 3 3 3 3 3 3 3 3 2
15 14 13 12 11 10 9 6 5 4 4 3 3 3 3 2 2 3 4 4 4 4 4 4 3 4 4 4 5 4 4 4 3 3 3 3 3 3 3 3 3 3 3
16 15 14 12 11 11 10 8 7 6 5 4 4 4 3 2 3 3 3 3 4 3 3 3 3 4 4 4 4 3 4 3 3 3 3 3 3 3 3 3 3 4 4
17 16 14 13 12 12 11 10 8 6 6 5 4 3 3 3 3 3 3 3 3 3 3 4 4 4 4 4 4 4 3 3 3 3 3 3 4 4 5 5 5 5 5
17 16 14 13 12 12 11 10 9 7 6 5 4 4 3 3 3 2 2 3 3 3 4 4 4 4 4 4 3 4 4 4 4 4 4 4 4 5 5 5 5 5 5
17 16 15 13 12 11 10 10 9 7 5 4 3 3 2 2 2 2 2 2 2 3 4 4 5 4 4 4 4 4 4 5 5 5 5 5 5 6 5 5 6 6 7
17 16 15 13 12 11 10 10 9 7 5 4 3 2 2 2 2 2 2 2 3 3 4 4 5 5 4 4 5 5 5 6 6 6 7 7 7 7 7 7 7 7 8
17 15 14 13 11 10 10 10 9 7 6 5 3 2 2 2 2 3 3 3 3 3 4 4 5 5 5 5 5 6 5 6 7 8 8 8 8 8 8 9 9 9 9
16 15 14 13 12 11 10 9 9 8 6 5 4 2 2 2 3 3 3 3 3 3 4 4 5 5 5 5 6 6 7 7 8 9 9 9 9 10 10 10 10 11 11
15 14 13 13 12 11 10 10 9 8 7 6 4 3 2 2 2 2 2 2 3 3 4 4 5 5 6 7 7 7 8 8 9 10 10 11 11 11 12 12 12 12 13
15 14 14 13 11 10 10 10 10 8 6 6 5 4 3 2 1 1 2 2 3 3 3 4 5 6 7 7 7 7 8 8 9 10 10 11 12 12 12 12 13 13 13
14 14 14 12 11 10 10 10 10 8 6 5 5 4 3 2 1 0 2 2 3 3 3 4 5 6 7 7 7 8 8 8 9 10 11 11 11 12 12 12 12 13 14
12 13 13 12 11 10 9 9 9 8 7 6 5 4 4 3 2 2 2 3 3 4 4 5 6 7 7 7 8 8 8 9 9 10 11 12 12 12 12 12 13 13 14
11 12 12 12 11 11 9 9 8 7 7 5 5 4 3 4 3 3 3 3 4 5 5 5 6 7 8 9 9 9 9 10 10 10 11 12 12 13 13 13 13 14 15

GEFSSE_500_meanwind_186.txt.gz
Wind_Speed
6 5 5 5 6 6 7 6 6 6 5 4 4 4 4 5 5 5 5 6 6 6 7 7 7 7 7 7 6 6 5 5 4 4 4 5 6 6 6 5 6 7 7
5 4 5 5 5 6 6 5 6 5 5 4 4 4 4 4 5 5 6 5 5 6 6 7 6 6 6 6 5 5 4 4 4 4 4 5 6 6 6 6 6 6 7
5 4 5 5 5 6 6 5 5 5 5 4 4 5 5 5 4 4 5 5 6 7 7 6 6 5 5 4 4 3 4 4 4 4 5 5 5 6 6 6 6 6 6
6 5 5 6 6 6 6 5 5 5 5 5 6 5 5 4 4 5 5 5 6 6 6 5 5 4 4 4 4 3 3 4 4 4 5 5 6 6 6 6 6 6 6
6 5 5 6 6 6 6 6 6 5 5 5 5 5 5 6 5 5 6 5 5 5 5 5 5 4 4 3 3 3 3 3 4 4 5 5 5 5 5 5 5 6 6
7 6 6 6 6 6 6 6 6 6 5 5 6 5 5 6 6 6 6 5 5 4 4 4 4 4 3 3 3 3 3 3 4 4 4 4 4 4 4 4 5 5 5
7 7 6 7 6 5 6 6 6 6 5 6 6 5 5 5 5 5 6 5 4 4 4 4 3 4 4 3 4 3 4 4 4 5 4 4 4 4 4 4 4 4 5
8 7 6 6 6 6 6 6 6 6 6 6 6 5 5 5 5 5 4 4 4 4 4 4 3 4 4 4 4 4 4 4 5 5 5 4 4 3 4 3 3 4 4
9 8 8 7 6 6 5 6 6 5 5 5 6 6 5 4 4 4 4 4 3 3 4 4 3 3 3 3 3 4 4 4 4 4 5 4 4 3 3 3 3 3 3
11 10 9 8 6 6 5 5 5 5 5 5 5 5 5 5 4 4 3 3 3 3 3 3 3 3 3 3 4 4 3 4 4 4 3 3 3 3 3 3 2 3 2
12 12 10 9 8 7 5 5 5 4 4 5 5 5 5 4 4 3 3 3 3 3 3 3 3 3 3 4 4 4 4 4 4 3 3 3 2 2 3 2 3 3 2
13 12 11 10 9 8 7 5 4 4 4 4 4 5 5 4 3 4 3 3 3 3 3 3 3 3 3 4 4 3 3 4 3 3 2 2 2 2 3 3 3 3 3
13 13 12 11 10 9 7 6 5 4 3 4 4 5 5 5 4 4 4 3 3 3 3 3 3 3 3 3 3 3 3 3 3 2 2 2 2 2 3 3 4 4 3
14 13 12 12 11 11 9 7 6 5 4 5 5 5 5 4 4 3 4 4 3 3 3 4 3 3 3 3 3 3 3 3 2 2 2 2 2 3 3 4 4 5 5
15 14 13 13 12 11 10 8 6 5 5 5 5 5 5 4 3 3 3 4 3 3 3 3 3 3 3 3 3 3 3 3 2 2 2 3 3 3 4 4 5 6 6
16 15 13 13 12 11 11 10 7 6 5 4 4 4 4 4 3 3 3 4 3 3 3 3 3 3 4 4 3 3 3 3 3 3 3 4 4 4 4 5 5 6 6
16 15 13 12 12 11 11 10 8 6 5 4 3 3 4 4 3 3 3 4 3 3 3 4 4 4 4 4 4 3 4 4 5 5 5 5 5 5 5 6 6 7 7
16 15 14 12 11 11 10 10 8 6 5 4 3 3 3 3 3 3 3 3 3 3 3 4 4 4 4 4 4 4 4 5 6 6 6 6 6 7 7 8 8 8 9
16 15 14 12 11 11 10 9 8 7 6 4 3 2 1 2 2 2 2 3 3 3 4 4 4 5 4 5 5 5 5 6 6 7 7 8 8 8 8 9 9 10 10
16 15 14 12 11 11 11 10 8 7 6 5 3 2 1 0 1 1 2 2 3 3 4 4 5 5 6 6 6 6 6 7 7 7 8 8 9 9 9 10 10 11 11
15 15 14 13 12 11 10 10 9 7 6 4 4 3 1 0 1 2 2 2 2 3 4 5 6 6 6 6 7 7 8 8 9 9 9 10 10 10 11 12 12 12 13
14 14 14 13 12 11 10 9 9 8 7 5 4 3 2 1 2 3 3 2 2 3 4 5 5 6 7 7 8 8 8 9 10 10 11 11 11 12 12 13 13 13 13
13 12 12 12 11 11 10 9 9 8 7 5 5 4 3 2 1 2 3 3 3 4 5 6 6 7 7 8 8 9 10 10 11 12 11 11 12 12 13 13 14 14 14
12 11 12 11 11 11 10 9 9 8 7 6 5 4 4 3 3 3 3 4 5 5 5 6 7 7 8 8 9 9 10 10 11 12 12 12 12 13 13 14 14 14 14
11 10 11 11 10 10 10 9 9 8 7 6 5 4 4 4 4 4 4 4 5 6 6 7 8 8 9 9 10 10 11 11 12 12 13 13 13 13 14 14 14 15 15
9 9 9 9 9 9 9 9 9 8 8 7 7 5 4 4 4 4 5 5 6 7 7 8 9 9 10 11 11 12 12 12 12 13 14 14 14 15 15 15 15 15 15

GEFSSE_500_meanwind_192.txt.gz
Wind_Speed
5 5 5 5 6 7 8 9 9 9 9 10 11 10 9 9 9 9 9 10 11 11 11 11 9 9 9 9 8 8 7 7 7 6 5 5 6 6 6 6 6 6 6
5 4 4 5 6 6 7 8 9 9 9 9 10 9 9 9 8 8 10 11 11 11 11 10 10 9 8 8 7 7 7 7 6 6 5 6 6 6 6 6 6 6 6
5 4 4 5 6 6 6 7 8 9 9 10 9 9 9 9 9 10 10 10 10 10 10 10 10 9 8 8 7 7 7 7 6 6 6 5 6 6 7 6 6 6 6
5 4 4 5 6 6 7 7 8 8 9 9 9 9 10 9 10 10 10 10 11 11 10 10 10 9 8 8 7 7 7 6 6 6 5 5 6 6 6 6 6 6 6
5 4 4 5 6 6 7 7 7 8 7 8 8 9 9 9 10 10 10 10 11 10 9 9 9 8 8 7 7 7 7 6 7 7 6 6 6 5 6 6 6 6 6
6 5 5 5 5 6 6 7 7 7 7 8 9 9 9 9 10 10 10 10 10 9 9 9 8 7 7 6 6 6 6 7 7 6 6 5 5 5 5 5 5 5 5
7 6 5 5 5 5 6 7 7 7 7 8 8 9 10 10 10 10 10 9 9 9 9 8 7 7 7 6 6 6 7 7 6 6 6 5 5 5 4 4 4 4 4
9 7 7 5 5 5 5 6 6 7 8 8 9 9 9 10 10 10 10 9 8 8 8 7 7 7 6 6 6 7 7 6 5 6 5 6 6 5 4 4 4 4 3
10 8 7 7 6 5 5 6 6 7 8 8 9 9 9 9 9 10 9 9 8 8 7 7 7 7 6 6 6 6 6 6 5 5 5 5 5 5 4 4 4 4 3
11 9 8 7 6 6 6 7 7 8 8 8 8 9 8 8 8 8 8 8 8 8 7 7 7 6 6 6 5 6 6 6 5 5 5 5 5 4 4 4 4 3 3
12 10 9 7 6 5 5 6 7 7 7 7 8 9 8 8 7 7 7 8 8 8 7 7 7 6 5 5 6 6 6 6 5 5 5 4 4 3 3 3 3 3 3
12 11 10 8 7 6 6 6 6 6 7 7 7 8 8 7 7 7 7 7 7 7 7 7 6 5 5 5 6 5 6 5 5 4 4 4 4 3 3 3 3 3 3
12 11 10 9 8 7 6 5 6 6 6 6 6 7 7 7 7 6 6 6 6 7 7 6 5 5 5 5 5 5 6 5 5 4 3 4 3 3 3 3 4 4 4
12 11 10 10 9 8 6 5 5 5 5 5 6 6 7 7 6 6 6 6 6 6 6 5 5 5 5 4 5 5 5 5 4 3 3 3 3 3 3 4 4 4 4
12 11 11 10 9 9 7 6 5 4 4 5 5 5 6 6 5 6 5 5 5 5 5 4 4 4 4 4 4 4 4 3 3 3 3 3 3 3 4 4 4 4 5
12 12 11 10 10 9 8 7 6 5 4 4 4 5 5 5 5 5 5 5 5 4 5 5 4 4 4 4 4 3 3 3 3 3 4 3 4 4 5 5 5 5 6
13 12 11 10 10 9 8 8 7 6 5 4 4 4 4 5 5 4 4 5 5 5 5 4 4 4 4 4 4 4 3 3 3 4 4 4 5 5 6 6 7 7 7
13 13 12 11 11 10 9 8 7 7 6 5 4 3 3 3 3 4 5 5 5 5 5 4 4 4 4 4 5 4 4 3 4 5 5 5 6 6 7 7 7 8 8
13 13 13 12 11 10 10 8 7 6 6 6 5 4 3 3 2 2 4 4 4 5 5 4 4 4 4 5 5 5 4 4 5 5 5 6 7 7 7 7 8 9 10
13 13 12 11 10 10 9 9 8 6 6 5 4 3 2 2 2 2 3 3 4 4 5 5 5 5 5 5 5 5 5 5 6 6 7 7 8 8 9 9 10 10 10
12 12 12 11 10 9 9 9 8 7 6 5 5 4 3 2 1 1 2 2 2 3 4 5 5 5 5 5 5 6 6 6 7 7 8 8 8 9 10 10 10 11 11
11 11 11 10 10 9 9 9 8 7 7 5 4 4 4 2 1 0 1 1 1 2 3 4 4 5 6 7 7 7 7 8 7 8 9 9 10 10 10 11 11 12 12
10 10 10 9 9 9 9 8 8 7 7 6 5 5 4 3 2 1 2 2 2 3 3 4 5 6 6 6 7 7 8 8 9 10 10 10 11 11 11 12 12 12 13
9 9 9 9 9 8 8 8 7 7 7 6 6 5 4 4 4 3 3 3 3 3 4 4 5 6 6 7 7 7 8 9 10 10 11 11 11 11 12 12 13 13 14
9 9 9 9 8 8 8 8 8 7 6 7 7 6 5 4 4 4 4 4 3 4 4 5 6 6 7 7 7 8 8 9 10 11 11 12 12 12 13 13 13 14 14
9 8 8 8 8 8 8 8 7 7 7 6 6 6 6 6 5 5 5 5 5 5 5 6 7 7 8 8 8 9 9 10 11 11 11 12 13 14 14 14 14 15 15

GEFSSE_500_meanwind_198.txt.gz
Wind_Speed
5 4 5 5 4 5 5 6 7 8 8 8 8 9 9 9 9 9 10 10 10 10 10 10 9 9 9 8 8 8 7 7 6 7 6 5 5 6 6 5 5 5 6
5 4 5 4 5 4 4 5 6 7 7 7 8 8 8 8 8 8 9 9 9 9 10 9 9 9 8 8 7 7 6 6 6 6 6 5 6 6 5 5 6 5 6
5 4 4 4 4 4 4 4 5 6 7 7 7 8 8 8 8 7 8 9 9 9 9 9 8 8 8 7 7 6 6 6 6 6 5 5 5 6 5 6 6 6 7
5 5 4 4 4 4 4 4 5 5 6 6 6 7 8 7 7 7 8 9 9 9 9 9 8 8 7 7 6 7 6 5 6 6 5 5 5 6 6 6 6 6 6
6 6 5 4 4 4 4 4 4 5 5 5 6 6 7 7 7 8 7 8 9 9 9 8 8 7 6 6 6 6 6 6 6 6 6 5 5 6 6 6 6 6 6
7 7 6 4 3 3 4 4 3 4 5 6 6 7 7 7 8 7 8 9 10 9 9 8 7 7 6 6 6 5 6 6 6 5 6 5 5 5 6 6 5 5 5
8 7 6 4 3 4 3 3 3 4 4 5 6 6 6 7 7 8 9 9 9 8 8 8 7 7 6 6 6 6 5 5 5 5 5 5 5 6 6 5 5 5 4
9 7 7 6 4 4 3 3 3 3 4 4 5 6 6 7 8 8 9 9 9 9 8 7 7 7 6 6 6 6 5 5 4 4 5 5 5 5 5 4 4 4 3
11 9 8 7 5 4 3 3 3 4 4 4 5 6 6 7 8 8 8 8 8 8 7 7 7 7 6 5 5 5 5 5 4 4 4 4 4 4 4 3 3 3 3
12 11 9 8 7 5 3 3 3 4 4 4 4 5 5 6 7 8 8 8 8 7 6 5 6 6 6 5 5 4 5 5 5 4 3 3 4 4 3 3 2 2 1
13 12 11 9 8 6 4 3 3 3 3 3 4 4 5 5 6 7 7 7 7 7 6 5 6 5 5 5 5 5 5 4 4 4 3 3 3 3 2 2 1 2 1
15 14 12 11 9 7 5 3 2 3 3 3 3 4 5 5 5 5 6 6 6 6 6 5 5 5 5 5 5 5 4 4 4 4 3 3 3 2 1 1 1 1 2
15 15 13 12 10 8 6 4 3 2 1 2 3 4 4 4 4 4 5 5 5 5 5 5 5 4 4 4 5 4 4 4 5 4 4 3 2 2 1 1 1 1 2
15 14 14 14 12 9 8 5 4 2 1 1 3 4 4 3 4 4 4 4 4 4 4 4 4 3 4 5 5 5 4 4 4 4 3 2 2 1 1 1 1 2 2
16 15 13 13 13 12 9 7 5 3 2 1 2 2 3 3 3 3 3 3 3 4 3 4 4 4 4 5 5 4 4 4 4 3 3 2 2 2 2 2 3 3 3
16 15 14 13 12 12 11 9 7 6 3 2 2 2 2 2 2 2 2 3 3 4 4 3 3 3 4 4 4 4 4 4 3 2 3 3 3 3 3 4 4 4 5
16 16 14 13 12 12 11 10 9 7 5 4 3 2 1 1 1 1 2 2 2 3 4 3 3 3 4 4 5 4 4 3 3 3 3 4 4 4 5 5 5 5 5
16 15 14 12 12 12 11 10 10 9 7 5 4 2 1 1 1 1 1 2 3 3 4 3 3 3 4 4 4 4 4 4 3 3 3 4 5 5 6 6 6 6 7
16 15 14 12 12 12 12 11 9 9 8 6 5 4 1 0 1 1 2 3 3 3 4 4 3 3 3 3 3 4 4 4 3 4 4 4 5 6 6 7 7 8 8
15 14 14 13 12 12 11 11 10 9 8 7 5 4 3 1 1 1 2 3 3 3 4 4 4 4 4 4 4 4 4 5 4 5 5 6 6 6 7 8 8 8 8
15 14 13 12 12 12 11 10 9 9 8 7 6 5 4 3 2 1 1 2 3 4 4 4 5 5 6 5 5 5 5 6 6 6 7 7 8 8 8 8 9 9 10
14 14 13 12 11 11 11 10 10 9 9 8 7 6 5 4 3 2 2 2 3 3 4 5 5 5 5 6 6 6 6 7 7 8 8 8 9 9 9 9 10 11 11
13 14 14 12 11 11 11 11 10 9 9 8 7 6 6 5 4 3 3 3 4 4 4 4 5 5 5 5 6 7 8 8 8 9 9 9 9 10 11 11 11 12 12
12 12 13 12 11 11 11 11 11 10 9 9 8 7 7 6 6 5 5 4 4 4 4 5 5 6 6 6 7 8 8 9 9 10 10 10 10 10 11 11 11 11 12
11 11 12 12 12 11 11 11 11 10 9 9 8 8 7 7 6 6 6 6 5 4 5 5 6 7 7 7 8 8 9 10 10 10 10 11 11 12 12 12 13 13 13
10 11 11 11 11 10 11 11 11 10 9 8 8 8 8 8 8 7 7 8 7 6 5 6 7 8 8 9 9 10 10 10 10 10 11 11 12 12 12 13 13 14 14

GEFSSE_500_meanwind_204.txt.gz
Wind_Speed
5 4 4 4 4 4 4 6 7 8 9 9 9 8 9 9 10 10 10 11 12 12 11 11 9 9 9 9 9 8 8 8 7 6 6 6 7 7 7 8 7 7 7
6 5 4 4 4 6 6 6 7 7 8 8 8 8 8 9 10 9 10 10 11 10 10 9 8 8 9 9 8 8 8 8 7 6 6 6 6 7 8 8 7 7 7
7 6 4 5 6 7 7 7 7 8 8 8 8 8 8 8 8 8 8 9 9 9 9 8 8 8 8 8 7 7 7 7 7 6 6 6 6 7 8 7 7 7 7
8 7 6 6 7 8 8 7 7 8 8 8 7 7 7 7 7 7 8 9 9 9 8 8 8 8 8 8 7 7 7 7 7 6 6 6 6 7 7 7 7 7 8
8 8 7 7 7 8 8 8 8 8 7 7 7 7 7 7 8 8 8 8 8 8 8 7 8 8 8 7 7 7 7 7 7 7 7 7 7 7 7 7 7 8 8
9 8 7 8 7 8 8 8 7 7 6 6 6 6 7 7 7 8 8 8 8 8 7 7 7 7 7 7 7 7 7 7 7 7 8 7 7 7 7 7 7 7 7
11 10 9 9 8 8 7 7 7 6 5 5 5 6 6 7 7 7 7 8 9 8 8 7 7 7 7 8 7 7 7 7 7 7 7 7 7 7 7 6 7 6 6
12 11 11 10 9 8 7 7 7 6 5 5 5 5 6 6 7 7 7 8 8 8 7 7 7 7 7 7 7 7 7 7 7 7 6 6 6 7 6 6 6 6 5
12 12 11 11 10 8 8 7 6 5 5 5 6 6 6 7 7 7 8 8 7 7 7 7 7 7 7 7 7 7 7 6 7 7 6 6 6 6 6 6 6 6 5
13 13 12 11 10 9 8 7 6 5 5 5 6 6 6 7 8 8 8 8 7 7 7 7 7 7 7 7 7 7 7 7 7 6 6 6 6 6 6 5 5 5 5
14 13 12 12 11 9 8 7 6 5 5 5 4 5 6 7 7 8 8 7 7 7 7 7 7 7 6 7 7 7 7 6 6 6 6 5 6 5 5 5 5 5 5
16 14 13 12 12 10 8 7 6 6 6 5 5 5 6 6 7 7 7 7 7 7 6 6 6 6 6 6 6 6 6 6 6 5 5 5 5 5 5 5 5 5 4
16 15 13 12 11 11 9 7 6 6 6 5 5 5 6 6 7 7 7 7 7 6 6 6 5 6 6 6 6 6 6 6 6 5 5 6 5 5 5 4 4 4 4
17 16 14 13 12 11 10 8 7 6 5 4 5 5 5 6 7 7 6 6 6 5 5 5 5 5 6 6 6 7 7 6 6 6 6 6 5 5 5 4 4 4 4
18 17 15 14 13 11 10 9 8 7 6 5 5 5 5 5 6 6 6 5 5 4 4 4 5 6 6 6 6 6 6 6 6 6 6 6 6 6 5 5 5 5 5
18 17 16 15 14 13 11 10 8 7 6 5 5 4 4 4 4 5 5 4 4 4 4 4 4 5 5 5 5 5 6 6 6 6 6 5 5 6 6 5 5 6 6
18 17 15 15 14 14 13 11 10 8 7 6 6 4 4 3 4 4 4 4 4 4 4 4 4 5 5 5 5 5 6 6 6 6 6 5 5 5 6 6 6 6 7
17 16 15 14 14 14 14 12 11 9 8 7 6 5 3 2 2 3 3 4 4 4 4 4 5 5 5 5 5 6 6 6 6 6 6 6 6 6 6 7 7 7 7
16 16 15 14 13 13 13 12 12 10 9 8 6 4 3 2 2 2 3 3 4 5 5 5 5 5 5 6 6 6 6 7 7 7 6 6 7 7 8 8 8 8 9
15 15 14 13 13 13 13 12 12 10 10 9 7 5 4 3 1 2 2 3 3 4 4 5 6 6 6 6 6 6 7 7 7 7 7 7 8 8 8 8 8 9 9
14 14 13 13 12 12 12 12 11 10 10 9 8 6 5 3 2 1 1 2 2 3 4 5 6 6 7 7 7 8 8 9 9 8 8 8 9 9 9 9 9 10 10
12 12 12 11 11 11 11 11 11 10 10 9 8 7 6 5 4 3 1 1 2 3 4 5 6 6 7 8 8 8 8 9 9 10 10 10 10 10 10 10 11 11 11
9 10 10 10 10 10 10 10 10 9 9 8 8 7 7 6 4 3 2 1 1 2 4 5 6 7 8 8 8 8 8 8 9 10 11 11 11 12 11 12 12 12 13
8 8 9 9 9 9 9 9 8 8 8 8 8 7 7 6 6 4 3 2 2 3 4 4 5 6 7 8 9 9 9 9 9 10 11 11 12 12 12 11 12 13 13
6 6 7 8 8 8 8 7 7 7 7 7 7 7 6 6 6 6 5 3 2 3 4 4 5 5 6 7 8 9 9 10 10 10 11 11 12 12 13 12 13 13 13
6 5 5 6 6 6 7 7 7 6 6 7 6 6 6 6 6 6 6 5 4 4 4 5 5 6 7 8 9 10 11 11 11 11 11 11 12 13 13 13 14 14 14

GEFSSE_500_meanwind_210.txt.gz
Wind_Speed
5 4 4 4 4 5 6 7 7 8 9 8 8 10 10 10 10 10 10 11 11 11 11 10 10 10 9 8 8 7 7 6 6 6 5 5 5 6 6 7 6 6 6
4 4 3 4 5 5 5 6 6 8 9 9 9 10 10 10 10 10 10 11 11 10 10 10 10 9 9 8 7 7 6 6 5 5 4 5 6 6 6 6 6 6 6
4 4 3 4 5 6 6 7 9 10 10 10 10 9 10 10 10 10 11 10 10 9 9 9 8 8 8 7 7 6 6 5 5 4 4 5 6 6 6 6 6 6 6
6 5 4 4 5 6 7 8 10 10 10 10 9 9 9 9 10 10 10 10 10 9 8 8 7 8 7 6 6 6 5 5 5 4 4 5 5 6 6 6 6 6 5
6 6 5 5 5 7 8 8 10 9 9 9 9 9 9 9 9 10 9 9 9 8 7 7 7 7 7 6 6 5 5 5 5 4 4 5 6 6 6 6 6 5 5
8 8 7 6 7 8 8 8 9 8 9 8 8 9 9 8 9 8 8 8 8 8 7 7 7 7 7 7 6 6 6 5 5 5 5 5 5 5 5 5 5 4 4
9 9 9 8 7 8 8 9 9 8 8 8 8 8 8 8 8 7 7 7 8 7 7 7 7 7 7 6 6 6 6 5 5 5 5 5 5 6 5 5 4 4 4
10 10 10 9 9 9 8 8 8 8 7 7 8 8 7 7 6 7 7 6 7 7 7 7 7 7 6 7 6 6 6 5 5 5 5 5 5 5 5 4 4 3 3
11 11 10 10 9 9 9 8 8 8 7 6 7 7 7 7 6 6 6 6 7 7 7 7 7 6 7 7 6 5 5 5 5 5 5 5 5 5 4 4 4 3 3
12 11 10 9 9 9 9 8 8 7 7 6 6 7 7 6 6 6 6 6 6 7 7 7 7 6 6 6 6 5 4 4 5 5 5 5 4 4 4 4 4 3 3
13 12 11 9 9 9 8 8 8 7 7 6 6 6 7 6 6 6 6 6 7 7 6 6 6 6 6 6 6 5 5 4 4 4 5 4 4 4 3 3 4 4 4
13 12 11 10 10 9 8 8 8 7 7 6 6 6 7 7 7 6 6 5 6 7 6 6 5 5 6 5 6 6 5 4 4 5 4 4 4 3 3 3 4 4 4
14 13 11 11 10 9 8 8 8 7 7 6 6 6 6 6 6 6 6 6 6 5 5 5 4 5 5 5 6 6 5 5 5 5 4 4 3 3 3 3 3 4 4
14 13 12 11 10 9 9 8 8 7 7 6 5 6 5 6 6 6 6 6 5 5 4 4 5 5 5 5 5 5 5 5 5 5 4 4 3 3 3 3 3 4 4
14 13 12 11 10 10 10 9 8 8 7 6 5 5 5 5 5 5 5 5 5 4 4 4 4 4 4 5 5 6 6 5 5 5 5 4 4 4 4 4 4 5 5
15 14 13 12 11 10 10 10 9 8 7 6 5 5 5 5 5 5 5 4 4 3 3 3 4 4 4 5 6 6 6 6 6 6 5 5 5 5 5 5 6 6 6
15 14 13 12 11 10 9 8 8 7 6 5 5 5 4 4 4 4 4 3 3 3 3 4 4 4 4 5 6 6 6 6 7 6 6 6 6 6 6 7 7 7 7
14 13 12 12 12 11 9 8 7 7 6 5 4 4 4 3 3 3 3 3 3 4 4 5 5 4 5 5 5 5 6 7 7 7 7 7 7 7 7 7 8 8 9
13 12 11 11 11 11 10 9 7 7 5 5 5 3 3 2 2 2 3 3 3 4 4 5 5 5 5 6 6 5 6 7 8 7 8 8 8 8 8 9 9 9 10
13 11 10 10 10 10 9 8 8 7 7 6 5 3 3 2 1 2 2 2 3 4 5 5 6 6 7 7 7 7 7 8 8 8 8 9 9 9 9 10 10 11 11
12 11 10 10 10 9 9 8 8 8 7 6 5 4 3 1 1 2 3 3 4 4 5 6 7 7 8 8 8 8 8 9 9 9 9 10 10 11 11 11 11 11 12
10 10 10 8 9 8 7 7 7 7 7 7 6 5 4 2 1 1 2 3 4 5 6 6 7 7 7 8 9 9 9 10 10 10 10 10 11 10 10 11 11 12 12
9 8 8 7 7 7 6 6 6 6 6 6 5 4 4 3 3 3 3 4 5 6 6 6 7 8 8 9 10 10 10 10 11 11 11 11 11 11 11 11 11 12 12
8 7 6 6 5 5 5 5 5 4 4 4 4 4 4 3 3 3 4 4 4 6 6 6 6 7 8 9 10 10 11 11 11 11 12 12 12 12 12 12 13 13 13
7 7 6 5 5 4 5 4 3 3 3 3 3 3 3 3 3 3 4 5 5 5 5 6 7 7 8 8 8 9 11 12 12 12 13 13 13 13 13 13 14 14 14
7 7 6 6 6 5 4 5 4 4 4 4 4 3 3 3 4 4 4 5 5 5 5 6 7 7 7 8 8 9 10 12 12 12 13 13 14 14 14 14 14 14 15

GEFSSE_500_meanwind_216.txt.gz
Wind_Speed
4 4 4 5 6 8 10 11 12 12 12 12 11 12 13 14 15 15 14 14 14 14 14 14 13 13 11 10 10 9 9 8 8 7 6 6 5 5 6 6 6 5 5
5 4 4 5 7 8 9 10 11 12 12 12 12 13 14 14 14 15 15 14 14 14 13 13 14 12 11 10 10 9 9 8 6 6 5 5 5 6 6 6 6 6 5
5 5 4 5 6 8 9 10 11 12 12 12 13 14 14 14 14 13 13 13 13 13 13 13 13 12 11 10 10 9 8 7 6 5 4 5 5 6 5 6 6 6 5
6 5 5 5 6 7 8 10 11 11 12 12 13 13 14 13 13 12 12 13 13 13 13 12 12 12 11 10 9 9 8 7 6 4 4 5 5 5 6 6 6 6 5
7 6 6 6 7 7 8 9 10 12 13 12 13 14 13 13 13 12 12 13 14 13 12 11 11 10 11 10 9 8 8 6 5 5 5 5 5 5 5 5 6 5 5
8 8 7 7 7 8 9 10 10 12 12 13 13 12 12 13 13 12 12 13 13 13 12 11 10 9 9 9 9 8 7 7 6 5 5 6 5 6 5 5 4 4 4
9 8 8 8 8 9 10 10 10 10 11 12 12 12 12 12 12 12 11 12 12 12 12 11 10 9 8 9 8 8 8 7 6 5 5 6 6 6 6 5 4 4 4
10 9 8 8 8 9 10 10 10 11 12 12 12 11 11 10 11 11 11 11 11 12 11 11 10 9 9 8 7 8 7 6 5 6 5 6 6 6 5 5 4 3 3
10 9 8 8 9 9 10 10 10 11 11 11 11 11 10 10 9 10 10 10 10 10 10 9 9 9 9 8 7 7 6 5 5 5 5 5 5 6 5 4 4 3 3
10 9 9 9 8 9 9 9 9 10 11 11 10 10 9 9 9 8 8 9 9 10 9 9 8 8 8 8 7 6 6 5 5 5 5 5 5 5 5 4 4 3 3
11 10 9 9 8 9 9 9 9 9 10 10 10 9 9 9 8 8 8 9 8 9 8 8 8 8 7 7 7 6 6 5 4 5 5 5 5 5 4 4 3 3 3
11 10 10 9 9 9 8 8 8 8 9 9 9 9 9 9 8 7 8 8 9 9 8 8 8 8 7 7 7 6 5 5 5 5 6 5 5 4 3 3 3 3 3
11 10 10 9 9 9 8 8 8 8 8 8 7 7 8 8 8 9 8 8 8 8 8 7 7 8 8 7 7 6 6 5 5 5 5 5 5 4 3 3 3 4 3
12 10 10 9 8 8 8 8 8 7 7 6 6 6 6 7 8 7 7 7 7 7 8 7 7 7 7 7 7 7 6 6 5 5 5 5 5 4 4 4 4 4 4
11 10 10 9 8 8 7 7 7 7 6 6 6 6 6 6 5 5 5 5 6 7 7 6 6 6 6 7 6 6 6 6 6 6 5 5 5 5 4 4 4 5 4
11 10 9 8 8 8 7 7 7 6 5 5 5 5 5 5 5 5 5 5 5 5 5 5 6 5 6 6 6 6 6 7 6 6 6 6 5 5 5 5 5 6 5
12 10 9 8 7 7 7 6 6 5 5 5 5 5 5 5 5 5 5 5 5 5 4 4 5 5 5 6 6 6 7 7 7 7 7 6 6 6 6 6 6 6 6
12 10 9 8 7 7 6 6 5 5 4 4 5 5 4 4 4 4 4 4 4 5 5 5 5 5 5 6 6 7 7 8 8 8 8 7 7 7 7 7 8 8 8
12 11 9 9 8 7 6 5 5 4 4 3 4 4 4 4 3 3 3 3 4 5 6 6 6 6 6 6 6 6 7 8 9 9 8 8 8 9 9 9 9 9 10
11 11 9 9 8 6 5 5 4 4 4 4 3 3 3 2 2 1 2 2 3 4 5 6 7 7 7 7 7 8 8 8 9 9 9 9 9 10 10 10 10 10 10
10 10 9 9 8 7 6 4 4 3 4 4 3 2 2 1 1 1 1 2 2 3 5 6 6 7 7 8 8 8 9 9 9 10 9 9 9 9 10 10 10 10 11
9 9 9 8 7 6 6 5 3 3 2 2 2 1 1 0 0 1 1 2 3 3 5 6 7 8 8 8 8 8 9 10 10 11 11 10 10 10 10 10 10 11 12
8 7 7 7 7 6 5 5 4 3 2 1 1 0 1 1 1 2 2 2 3 3 3 5 5 7 8 8 8 8 9 10 11 11 12 11 11 11 11 11 12 12 12
7 7 6 7 7 6 5 4 4 3 2 2 2 2 2 2 3 3 2 3 3 4 4 4 5 6 7 8 9 9 9 10 11 12 12 12 12 12 12 13 13 13 13
7 7 7 7 7 6 5 4 4 3 3 3 3 3 3 3 4 4 4 4 5 5 5 5 5 6 8 8 9 10 10 10 11 12 12 12 13 13 13 13 14 14 14
8 8 8 8 8 8 7 6 5 5 5 5 4 4 5 5 5 5 5 6 6 6 6 7 7 7 8 8 9 9 10 11 11 11 12 13 13 14 14 13 14 14 15

GEFSSE_500_meanwind_222.txt.gz
Wind_Speed
4 3 2 1 3 6 7 7 9 10 11 11 11 11 11 12 14 15 15 15 15 14 13 12 12 13 12 11 10 9 9 9 8 8 8 7 6 7 7 7 7 7 7
4 4 2 1 3 5 7 8 8 9 10 10 10 11 11 13 13 13 15 15 15 14 14 13 12 13 11 10 10 9 9 8 8 8 7 6 7 7 8 7 8 7 7
5 5 3 2 3 4 6 8 8 9 10 9 11 11 12 13 13 13 13 14 14 14 14 13 12 12 11 11 10 9 8 8 7 6 6 6 7 7 7 8 7 7 6
7 6 5 3 3 4 6 8 8 8 9 9 11 11 12 12 13 13 13 13 14 14 13 12 12 11 11 10 9 8 8 7 6 6 6 6 6 7 7 7 6 6 6
8 8 7 5 4 4 6 7 7 8 9 10 11 11 12 12 12 13 13 13 13 12 11 11 11 10 10 9 9 8 7 6 6 6 6 6 6 6 6 6 6 5 5
9 8 8 7 5 5 6 6 7 9 9 10 10 10 11 11 10 11 12 12 12 12 11 11 10 9 9 8 8 8 7 6 6 5 5 5 6 6 5 5 5 5 5
10 9 8 7 6 6 6 7 7 8 9 9 9 10 9 10 9 10 12 11 11 11 11 11 9 8 8 7 7 7 7 6 6 5 5 5 5 5 5 5 5 4 4
10 9 8 7 6 6 8 8 9 9 9 9 9 9 9 9 10 10 11 11 10 10 9 9 9 8 7 7 7 7 6 5 5 5 5 5 5 5 5 4 4 3 3
11 10 8 7 7 7 7 8 9 10 10 9 9 9 9 8 8 8 9 10 9 9 9 9 8 7 7 7 7 6 6 5 5 5 5 4 4 4 4 3 3 3 3
11 10 9 7 7 7 7 7 8 9 9 9 9 8 8 7 8 8 9 9 8 8 8 9 8 6 6 6 6 6 6 6 5 4 4 4 4 4 3 3 2 2 3
12 11 10 8 7 7 7 7 8 7 8 8 8 8 7 7 7 7 8 8 8 8 8 7 7 6 6 6 6 5 5 5 5 4 4 4 4 3 3 3 2 2 2
13 12 11 10 9 8 7 8 7 6 7 7 7 7 7 6 6 6 7 7 7 8 7 7 7 6 6 6 5 5 5 5 5 5 4 4 4 3 2 2 2 2 2
14 13 12 11 9 9 8 7 7 6 6 6 5 5 5 4 5 6 7 7 7 6 7 7 7 7 6 5 5 5 6 6 5 4 4 4 3 3 2 1 2 2 2
13 13 12 11 10 8 8 7 7 6 6 5 5 5 4 4 4 6 6 6 6 6 6 7 6 7 6 6 5 5 6 6 5 5 5 4 4 3 2 2 2 2 2
13 12 11 10 9 8 7 7 7 6 5 5 5 5 5 5 5 5 5 5 5 4 5 6 6 6 6 6 5 5 6 5 5 5 5 4 4 4 3 3 3 4 4
13 12 11 10 9 8 7 6 5 5 4 4 4 4 4 4 3 3 3 3 3 4 6 6 5 5 5 6 5 5 5 5 5 5 5 5 5 5 5 5 5 5 5
13 12 11 11 9 8 7 6 5 5 4 4 4 3 3 2 2 2 2 2 2 4 5 5 5 4 4 5 5 5 5 5 6 6 5 5 5 6 5 5 6 6 6
13 12 12 11 10 8 7 6 6 5 5 4 3 3 2 2 2 1 2 1 1 2 4 4 4 4 4 4 5 5 5 6 6 7 6 7 7 7 7 7 7 7 7
13 12 12 11 11 9 8 7 6 6 4 4 3 3 3 2 1 0 0 1 1 2 3 4 4 4 4 5 5 6 6 6 6 7 7 7 8 8 8 8 8 7 8
12 12 11 11 11 9 8 7 6 6 5 4 3 3 3 2 1 1 1 1 1 1 2 3 4 5 5 5 6 7 7 7 7 7 7 8 8 9 9 9 9 9 9
10 10 10 10 9 9 8 7 6 6 5 4 3 3 2 2 2 1 2 2 2 2 2 3 3 5 5 5 6 7 7 8 8 8 8 8 9 9 10 10 10 11 10
10 10 10 9 9 9 8 7 6 5 5 4 3 4 3 2 2 3 2 3 3 2 2 3 4 5 7 6 7 7 8 8 8 9 9 8 9 10 11 11 11 11 10
9 10 10 10 9 9 8 8 7 6 5 4 4 4 3 3 3 4 4 4 4 4 4 4 5 5 6 7 7 7 8 8 8 9 9 9 10 11 11 11 11 11 11
8 9 10 10 9 9 9 8 8 7 6 5 4 4 4 4 4 5 4 4 4 4 5 5 6 7 7 7 8 8 8 8 8 9 10 11 11 11 11 12 12 12 12
9 9 9 10 9 9 9 9 8 7 7 7 5 5 5 5 5 5 5 6 5 5 6 6 7 8 9 9 9 9 9 9 9 10 11 12 12 12 12 13 13 14 14
10 10 9 10 10 11 10 10 9 8 8 7 7 6 6 6 7 6 7 7 7 7 7 8 9 9 10 10 10 11 11 11 11 11 12 12 12 13 14 14 15 15 14

GEFSSE_500_meanwind_228.txt.gz
Wind_Speed
6 5 3 2 4 6 6 6 7 9 10 10 10 10 11 11 12 13 14 13 13 13 13 14 13 12 11 10 10 10 9 9 9 9 8 8 8 8 9 8 8 8 8
6 6 5 4 4 6 7 7 7 9 11 11 11 12 12 12 12 13 13 14 14 13 13 13 13 12 11 10 10 9 9 9 9 8 8 8 8 8 8 8 8 8 8
7 6 5 4 5 7 8 8 8 10 11 12 13 13 13 12 11 13 14 14 14 13 13 13 12 11 11 11 10 10 9 8 8 9 9 9 9 8 8 8 8 8 7
8 6 6 6 5 7 9 9 10 10 11 12 13 13 12 11 12 12 14 14 14 13 12 12 12 11 11 10 10 9 8 8 9 9 8 8 9 8 8 8 8 7 7
10 8 7 7 7 7 8 9 11 10 11 11 11 12 12 12 13 13 14 14 13 12 12 12 11 10 10 9 9 8 8 8 9 9 8 8 8 8 8 8 7 6 6
10 9 8 9 8 8 8 9 9 10 11 11 11 11 12 12 12 13 13 13 13 12 12 12 11 10 9 8 8 8 8 8 8 8 7 7 7 8 8 8 7 7 6
12 9 9 9 8 8 9 9 10 10 11 11 11 12 12 12 12 12 13 13 12 13 13 11 10 9 8 8 8 8 8 8 7 7 7 6 7 7 7 6 6 6 5
13 11 9 9 8 9 9 10 10 10 10 11 11 12 12 12 11 11 12 12 12 12 11 10 10 9 7 8 8 8 8 7 7 7 7 7 7 7 6 6 5 5 4
13 12 11 9 9 9 8 9 9 10 11 11 10 11 11 11 11 10 11 13 12 11 10 10 9 9 8 8 8 8 8 7 7 7 6 6 6 6 6 6 5 4 3
14 14 13 11 10 9 8 8 8 10 10 10 10 10 11 11 10 10 10 12 11 11 10 10 9 9 8 8 8 7 7 6 6 5 5 5 5 6 6 5 4 4 4
15 14 13 13 11 10 9 9 9 10 10 10 9 9 9 10 9 9 10 10 10 9 9 9 9 9 8 7 7 7 7 6 6 5 5 5 5 5 5 4 4 4 4
15 14 14 13 13 12 11 9 9 10 9 9 9 9 8 8 8 9 9 9 9 9 9 9 9 8 7 7 7 6 6 6 6 5 5 5 4 5 4 4 4 4 4
15 15 14 13 12 13 12 11 10 9 9 8 8 8 8 8 8 8 9 9 9 9 9 8 8 7 7 7 7 7 7 7 7 6 5 5 4 4 4 4 4 4 4
15 15 14 13 13 12 12 12 10 10 9 8 8 8 8 7 7 8 7 8 9 9 9 8 7 7 8 8 8 7 7 7 7 6 6 5 5 4 4 4 4 4 4
16 15 14 13 13 12 11 10 10 10 9 8 7 7 7 7 7 7 7 7 8 8 8 7 7 7 7 7 7 7 7 7 7 6 5 5 5 5 5 4 5 5 4
15 15 14 13 12 11 11 10 9 9 9 8 7 7 6 6 5 6 6 6 7 7 7 6 6 6 6 6 6 6 6 7 7 6 7 7 6 6 5 5 6 6 6
14 14 13 12 12 11 11 10 9 8 7 7 6 6 6 6 6 6 5 5 5 5 5 5 6 6 5 5 5 5 6 7 7 7 7 8 7 7 7 6 6 6 7
14 13 12 12 12 11 10 10 9 7 7 6 6 6 6 5 5 5 5 5 5 5 5 5 5 6 5 5 5 5 6 7 7 7 8 8 8 8 8 8 7 7 8
12 12 12 11 11 10 9 9 8 7 7 6 5 5 6 5 5 5 5 4 5 5 4 5 5 6 6 5 5 5 6 6 6 7 7 8 9 9 9 9 9 9 8
11 10 11 10 10 10 9 8 8 7 7 6 5 5 5 5 5 5 5 4 4 4 4 4 5 5 5 5 5 5 6 6 7 6 6 7 8 8 9 10 10 10 9
9 9 9 9 9 9 8 8 8 7 7 6 6 5 4 4 3 3 3 3 3 3 3 4 4 5 6 6 6 6 6 7 7 8 8 9 9 9 9 10 10 10 10
7 7 8 8 8 7 7 7 7 7 6 6 5 4 3 3 2 1 1 1 2 2 3 3 4 5 6 6 7 7 7 7 9 10 10 10 10 9 9 10 10 10 10
6 6 6 6 7 6 5 5 5 5 5 5 4 3 2 1 1 1 1 2 2 3 4 3 4 5 5 6 7 8 8 8 9 10 11 11 11 12 12 11 11 11 11
5 5 5 5 5 5 4 3 3 3 4 3 3 2 1 1 1 2 2 3 3 4 5 5 4 5 6 7 7 8 8 9 9 9 11 11 12 13 14 14 13 12 12
5 5 5 5 4 4 3 2 1 2 2 2 2 2 2 2 3 3 4 4 5 5 6 7 6 6 6 7 8 8 8 9 9 10 11 11 12 13 14 14 14 14 14
7 6 6 6 5 4 3 3 3 3 2 2 2 3 3 3 4 4 4 5 6 6 6 7 7 7 7 8 9 10 10 10 10 11 12 13 13 13 13 13 14 14 14

GEFSSE_500_meanwind_234.txt.gz
Wind_Speed
4 3 2 4 5 6 7 8 8 10 11 11 11 11 11 11 11 11 12 11 11 11 10 11 10 10 9 8 8 8 7 7 8 7 7 6 6 7 7 7 7 6 6
5 4 3 4 6 6 7 8 9 10 11 12 12 12 11 11 12 12 12 11 10 10 10 11 9 9 9 8 8 7 7 7 7 7 7 6 6 7 7 7 7 6 6
6 5 4 5 5 6 7 8 9 10 11 12 13 12 12 12 12 12 11 11 10 10 10 10 9 10 9 9 8 7 7 7 6 6 6 6 6 6 6 6 7 6 6
7 6 6 6 7 7 8 9 10 11 12 12 13 12 12 12 12 11 10 10 10 10 9 9 10 9 9 8 7 7 7 6 6 6 6 6 6 6 6 6 6 6 6
7 7 7 7 7 8 9 10 11 12 13 13 13 12 12 12 12 11 10 11 10 10 9 9 9 9 9 8 7 7 6 6 6 6 6 6 6 5 5 5 5 5 5
8 8 8 7 7 8 9 10 12 13 13 12 12 12 12 12 11 11 11 11 10 10 10 9 8 9 8 7 7 6 6 6 6 6 6 5 5 5 5 5 5 5 4
9 9 9 9 8 9 10 10 11 12 12 12 11 11 11 11 10 10 10 10 9 9 9 9 8 8 8 7 6 6 6 5 5 6 6 5 5 5 4 4 4 4 4
10 10 9 9 9 10 11 11 11 11 11 12 11 11 11 10 10 9 10 9 10 9 9 9 7 7 7 7 6 6 5 5 5 5 5 5 4 4 4 3 3 3 3
11 10 9 10 10 11 11 11 11 11 11 12 12 12 11 10 10 9 9 9 10 9 9 8 7 7 6 6 6 5 6 5 5 5 5 5 4 4 3 3 2 2 2
12 11 10 11 11 11 12 11 11 11 11 11 11 12 11 11 10 9 10 9 9 9 9 8 7 7 6 6 6 5 6 6 5 5 5 5 4 3 3 3 2 2 2
13 12 10 11 11 11 11 10 10 10 11 11 11 11 11 11 10 10 10 9 9 8 8 8 7 6 6 6 6 6 6 6 5 5 5 5 4 3 3 3 3 3 3
13 12 12 12 11 12 11 10 9 9 10 10 10 9 10 9 10 9 9 9 9 8 8 8 7 6 5 5 5 5 5 5 6 5 5 4 3 3 4 4 4 4 4
13 13 12 12 11 11 11 10 8 9 10 10 10 9 9 9 9 8 9 8 9 8 8 7 7 6 6 6 6 5 5 5 5 5 5 5 4 4 4 4 5 5 5
13 12 12 11 12 11 11 10 10 10 10 10 9 9 9 9 8 8 8 8 8 7 7 7 7 6 7 7 6 6 5 5 5 5 5 5 4 5 4 5 5 6 6
12 11 11 11 11 11 11 11 11 10 10 10 9 9 9 9 8 8 8 8 8 7 6 6 6 5 6 7 7 7 6 5 5 5 5 5 5 5 5 5 5 6 7
11 11 11 11 11 10 10 10 10 10 10 10 9 8 8 8 8 7 8 8 7 6 5 6 5 5 6 7 7 7 6 5 5 6 6 6 6 6 6 6 6 6 7
11 11 11 10 11 10 9 9 10 9 9 9 8 8 8 8 7 7 7 7 5 5 5 6 5 4 4 6 6 6 7 7 6 6 6 7 7 7 7 7 7 7 8
10 11 11 10 10 9 9 8 8 8 8 7 7 7 7 6 6 5 6 5 5 5 5 5 4 4 5 5 5 6 6 6 6 7 6 6 7 8 9 9 9 8 8
9 9 9 9 9 9 8 7 6 6 6 6 6 6 6 6 5 4 4 4 4 4 5 5 4 5 5 5 5 5 6 6 6 7 6 7 7 8 9 9 9 9 9
7 6 7 8 7 7 7 6 6 5 5 5 6 5 5 5 5 4 3 3 3 4 4 4 4 5 5 5 5 5 6 6 7 7 7 8 8 9 9 9 10 10 10
6 4 5 5 5 5 5 5 4 4 4 4 4 4 4 4 4 4 4 3 3 4 4 4 5 5 6 6 6 7 7 7 8 8 8 8 9 9 10 11 11 11 11
5 4 3 3 3 3 3 3 3 3 4 4 3 3 3 3 4 4 4 4 4 4 5 5 6 7 7 7 8 9 9 10 10 10 10 10 11 11 11 12 12 13 13
5 4 3 2 2 1 1 1 1 1 3 3 2 2 3 4 4 4 4 4 5 5 6 6 7 7 8 9 9 10 11 11 11 12 13 13 12 12 12 12 12 13 13
6 5 4 3 2 2 1 1 1 2 2 2 3 3 4 4 4 5 5 5 6 7 7 8 8 8 9 9 9 9 10 11 11 13 13 14 14 13 14 14 13 13 14
7 6 6 4 4 4 4 3 3 4 4 4 4 4 5 6 6 7 7 8 8 8 9 9 10 10 10 11 11 11 11 11 12 13 14 15 15 15 15 15 15 15 15
8 7 7 6 5 5 5 5 5 6 5 5 5 6 7 7 8 8 9 9 9 10 11 11 11 11 11 12 12 12 13 13 14 14 14 15 16 16 16 16 16 15 16